<?xml version="1.0" encoding="UTF-8" standalone="no" ?>
<gpx xmlns="http://www.topografix.com/GPX/1/1" xmlns:xsi="http://www.w3.org/2001/XMLSchema-instance" xsi:schemaLocation="http://www.topografix.com/GPX/1/1 http://www.topografix.com/GPX/1/1/gpx.xsd" version="1.1" creator="VisuGPX - https://www.visugpx.com">
  <metadata>
    <name>Riderz Saint-Saturnin les Apt 2016</name>
    <desc><![CDATA[Tracé de l'enduro de la Riderz Cup 2016]]></desc>
  </metadata>
  <trk>
    <name><![CDATA[Riderz Enduro Luberon - Au top!]]></name>
    <trkseg>
      <trkpt lat="43.99054" lon="5.39657">
        <ele>980</ele>
        <time>2016-05-29T06:40:04Z</time>
      </trkpt>
      <trkpt lat="43.99058" lon="5.3966">
        <ele>980</ele>
        <time>2016-05-29T06:40:05Z</time>
      </trkpt>
      <trkpt lat="43.99066" lon="5.39668">
        <ele>980</ele>
        <time>2016-05-29T06:40:08Z</time>
      </trkpt>
      <trkpt lat="43.99073" lon="5.39679">
        <ele>981</ele>
        <time>2016-05-29T06:40:11Z</time>
      </trkpt>
      <trkpt lat="43.99077" lon="5.3969">
        <ele>981</ele>
        <time>2016-05-29T06:40:14Z</time>
      </trkpt>
      <trkpt lat="43.99079" lon="5.39706">
        <ele>981</ele>
        <time>2016-05-29T06:40:18Z</time>
      </trkpt>
      <trkpt lat="43.99079" lon="5.39713">
        <ele>981.7</ele>
        <time>2016-05-29T06:40:20Z</time>
      </trkpt>
      <trkpt lat="43.9908" lon="5.39728">
        <ele>982</ele>
        <time>2016-05-29T06:40:24Z</time>
      </trkpt>
      <trkpt lat="43.9908" lon="5.39742">
        <ele>982</ele>
        <time>2016-05-29T06:40:28Z</time>
      </trkpt>
      <trkpt lat="43.9908" lon="5.39753">
        <ele>984</ele>
        <time>2016-05-29T06:40:31Z</time>
      </trkpt>
      <trkpt lat="43.99079" lon="5.39764">
        <ele>984</ele>
        <time>2016-05-29T06:40:34Z</time>
      </trkpt>
      <trkpt lat="43.99078" lon="5.39781">
        <ele>984</ele>
        <time>2016-05-29T06:40:39Z</time>
      </trkpt>
      <trkpt lat="43.99077" lon="5.39794">
        <ele>985</ele>
        <time>2016-05-29T06:40:43Z</time>
      </trkpt>
      <trkpt lat="43.99076" lon="5.39805">
        <ele>985</ele>
        <time>2016-05-29T06:40:46Z</time>
      </trkpt>
      <trkpt lat="43.99076" lon="5.39817">
        <ele>985</ele>
        <time>2016-05-29T06:40:49Z</time>
      </trkpt>
      <trkpt lat="43.99076" lon="5.39828">
        <ele>987</ele>
        <time>2016-05-29T06:40:52Z</time>
      </trkpt>
      <trkpt lat="43.99076" lon="5.39836">
        <ele>987</ele>
        <time>2016-05-29T06:40:54Z</time>
      </trkpt>
      <trkpt lat="43.99076" lon="5.39844">
        <ele>987</ele>
        <time>2016-05-29T06:40:56Z</time>
      </trkpt>
      <trkpt lat="43.99075" lon="5.39852">
        <ele>987</ele>
        <time>2016-05-29T06:40:58Z</time>
      </trkpt>
      <trkpt lat="43.99075" lon="5.3986">
        <ele>987.7</ele>
        <time>2016-05-29T06:41:00Z</time>
      </trkpt>
      <trkpt lat="43.99074" lon="5.39871">
        <ele>988</ele>
        <time>2016-05-29T06:41:03Z</time>
      </trkpt>
      <trkpt lat="43.99073" lon="5.3988">
        <ele>988</ele>
        <time>2016-05-29T06:41:05Z</time>
      </trkpt>
      <trkpt lat="43.99073" lon="5.39888">
        <ele>988</ele>
        <time>2016-05-29T06:41:07Z</time>
      </trkpt>
      <trkpt lat="43.99072" lon="5.39896">
        <ele>988</ele>
        <time>2016-05-29T06:41:09Z</time>
      </trkpt>
      <trkpt lat="43.99072" lon="5.39905">
        <ele>988</ele>
        <time>2016-05-29T06:41:11Z</time>
      </trkpt>
      <trkpt lat="43.99072" lon="5.39913">
        <ele>988</ele>
        <time>2016-05-29T06:41:13Z</time>
      </trkpt>
      <trkpt lat="43.99071" lon="5.39923">
        <ele>988</ele>
        <time>2016-05-29T06:41:15Z</time>
      </trkpt>
      <trkpt lat="43.99071" lon="5.39933">
        <ele>988</ele>
        <time>2016-05-29T06:41:17Z</time>
      </trkpt>
      <trkpt lat="43.99071" lon="5.39943">
        <ele>988</ele>
        <time>2016-05-29T06:41:19Z</time>
      </trkpt>
      <trkpt lat="43.9907" lon="5.39954">
        <ele>988</ele>
        <time>2016-05-29T06:41:21Z</time>
      </trkpt>
      <trkpt lat="43.9907" lon="5.39965">
        <ele>988</ele>
        <time>2016-05-29T06:41:23Z</time>
      </trkpt>
      <trkpt lat="43.99071" lon="5.39976">
        <ele>988</ele>
        <time>2016-05-29T06:41:25Z</time>
      </trkpt>
      <trkpt lat="43.99072" lon="5.39987">
        <ele>988</ele>
        <time>2016-05-29T06:41:27Z</time>
      </trkpt>
      <trkpt lat="43.99072" lon="5.40004">
        <ele>988</ele>
        <time>2016-05-29T06:41:30Z</time>
      </trkpt>
      <trkpt lat="43.99073" lon="5.40018">
        <ele>988</ele>
        <time>2016-05-29T06:41:32Z</time>
      </trkpt>
      <trkpt lat="43.99075" lon="5.40035">
        <ele>988</ele>
        <time>2016-05-29T06:41:34Z</time>
      </trkpt>
      <trkpt lat="43.99079" lon="5.40053">
        <ele>988</ele>
        <time>2016-05-29T06:41:36Z</time>
      </trkpt>
      <trkpt lat="43.99082" lon="5.40063">
        <ele>988</ele>
        <time>2016-05-29T06:41:37Z</time>
      </trkpt>
      <trkpt lat="43.99087" lon="5.40082">
        <ele>988</ele>
        <time>2016-05-29T06:41:39Z</time>
      </trkpt>
      <trkpt lat="43.99091" lon="5.40102">
        <ele>984</ele>
        <time>2016-05-29T06:41:41Z</time>
      </trkpt>
      <trkpt lat="43.99097" lon="5.40122">
        <ele>984</ele>
        <time>2016-05-29T06:41:43Z</time>
      </trkpt>
      <trkpt lat="43.99104" lon="5.4014">
        <ele>982.1</ele>
        <time>2016-05-29T06:41:45Z</time>
      </trkpt>
      <trkpt lat="43.99111" lon="5.40158">
        <ele>981</ele>
        <time>2016-05-29T06:41:47Z</time>
      </trkpt>
      <trkpt lat="43.99119" lon="5.40175">
        <ele>981</ele>
        <time>2016-05-29T06:41:49Z</time>
      </trkpt>
      <trkpt lat="43.99127" lon="5.4019">
        <ele>980</ele>
        <time>2016-05-29T06:41:51Z</time>
      </trkpt>
      <trkpt lat="43.99136" lon="5.40204">
        <ele>980</ele>
        <time>2016-05-29T06:41:53Z</time>
      </trkpt>
      <trkpt lat="43.99146" lon="5.40221">
        <ele>978.7</ele>
        <time>2016-05-29T06:41:55Z</time>
      </trkpt>
      <trkpt lat="43.99155" lon="5.40238">
        <ele>978</ele>
        <time>2016-05-29T06:41:57Z</time>
      </trkpt>
      <trkpt lat="43.99164" lon="5.40252">
        <ele>978</ele>
        <time>2016-05-29T06:41:59Z</time>
      </trkpt>
      <trkpt lat="43.99173" lon="5.40272">
        <ele>975</ele>
        <time>2016-05-29T06:42:01Z</time>
      </trkpt>
      <trkpt lat="43.99177" lon="5.40285">
        <ele>974.3</ele>
        <time>2016-05-29T06:42:02Z</time>
      </trkpt>
      <trkpt lat="43.99179" lon="5.40298">
        <ele>974</ele>
        <time>2016-05-29T06:42:03Z</time>
      </trkpt>
      <trkpt lat="43.99181" lon="5.40323">
        <ele>976</ele>
        <time>2016-05-29T06:42:05Z</time>
      </trkpt>
      <trkpt lat="43.99182" lon="5.40343">
        <ele>976</ele>
        <time>2016-05-29T06:42:07Z</time>
      </trkpt>
      <trkpt lat="43.99184" lon="5.40361">
        <ele>976</ele>
        <time>2016-05-29T06:42:09Z</time>
      </trkpt>
      <trkpt lat="43.99185" lon="5.40379">
        <ele>976</ele>
        <time>2016-05-29T06:42:11Z</time>
      </trkpt>
      <trkpt lat="43.99187" lon="5.40398">
        <ele>976</ele>
        <time>2016-05-29T06:42:13Z</time>
      </trkpt>
      <trkpt lat="43.99191" lon="5.40415">
        <ele>976</ele>
        <time>2016-05-29T06:42:15Z</time>
      </trkpt>
      <trkpt lat="43.99195" lon="5.40432">
        <ele>976</ele>
        <time>2016-05-29T06:42:17Z</time>
      </trkpt>
      <trkpt lat="43.99198" lon="5.40447">
        <ele>976</ele>
        <time>2016-05-29T06:42:19Z</time>
      </trkpt>
      <trkpt lat="43.992" lon="5.40455">
        <ele>976.7</ele>
        <time>2016-05-29T06:42:20Z</time>
      </trkpt>
      <trkpt lat="43.99201" lon="5.40462">
        <ele>977</ele>
        <time>2016-05-29T06:42:21Z</time>
      </trkpt>
      <trkpt lat="43.99202" lon="5.4047">
        <ele>977</ele>
        <time>2016-05-29T06:42:22Z</time>
      </trkpt>
      <trkpt lat="43.99203" lon="5.40478">
        <ele>977</ele>
        <time>2016-05-29T06:42:23Z</time>
      </trkpt>
      <trkpt lat="43.99205" lon="5.40486">
        <ele>977</ele>
        <time>2016-05-29T06:42:24Z</time>
      </trkpt>
      <trkpt lat="43.99206" lon="5.40493">
        <ele>977</ele>
        <time>2016-05-29T06:42:25Z</time>
      </trkpt>
      <trkpt lat="43.99208" lon="5.40501">
        <ele>977</ele>
        <time>2016-05-29T06:42:26Z</time>
      </trkpt>
      <trkpt lat="43.9921" lon="5.40508">
        <ele>977</ele>
        <time>2016-05-29T06:42:27Z</time>
      </trkpt>
      <trkpt lat="43.99212" lon="5.40516">
        <ele>977</ele>
        <time>2016-05-29T06:42:28Z</time>
      </trkpt>
      <trkpt lat="43.99217" lon="5.40531">
        <ele>977</ele>
        <time>2016-05-29T06:42:30Z</time>
      </trkpt>
      <trkpt lat="43.99221" lon="5.40543">
        <ele>977</ele>
        <time>2016-05-29T06:42:32Z</time>
      </trkpt>
      <trkpt lat="43.99211" lon="5.40556">
        <ele>977</ele>
        <time>2016-05-29T06:42:35Z</time>
      </trkpt>
      <trkpt lat="43.99196" lon="5.40557">
        <ele>977</ele>
        <time>2016-05-29T06:42:37Z</time>
      </trkpt>
      <trkpt lat="43.99181" lon="5.40555">
        <ele>977</ele>
        <time>2016-05-29T06:42:39Z</time>
      </trkpt>
      <trkpt lat="43.99167" lon="5.40558">
        <ele>974</ele>
        <time>2016-05-29T06:42:41Z</time>
      </trkpt>
      <trkpt lat="43.99153" lon="5.40562">
        <ele>974</ele>
        <time>2016-05-29T06:42:43Z</time>
      </trkpt>
      <trkpt lat="43.99146" lon="5.40564">
        <ele>974</ele>
        <time>2016-05-29T06:42:44Z</time>
      </trkpt>
      <trkpt lat="43.99139" lon="5.40566">
        <ele>972.1</ele>
        <time>2016-05-29T06:42:45Z</time>
      </trkpt>
      <trkpt lat="43.99128" lon="5.40574">
        <ele>971</ele>
        <time>2016-05-29T06:42:47Z</time>
      </trkpt>
      <trkpt lat="43.99117" lon="5.40583">
        <ele>971</ele>
        <time>2016-05-29T06:42:49Z</time>
      </trkpt>
      <trkpt lat="43.99105" lon="5.4059">
        <ele>970</ele>
        <time>2016-05-29T06:42:51Z</time>
      </trkpt>
      <trkpt lat="43.991" lon="5.40592">
        <ele>970</ele>
        <time>2016-05-29T06:42:52Z</time>
      </trkpt>
      <trkpt lat="43.99092" lon="5.40593">
        <ele>970</ele>
        <time>2016-05-29T06:42:53Z</time>
      </trkpt>
      <trkpt lat="43.99086" lon="5.40594">
        <ele>970</ele>
        <time>2016-05-29T06:42:54Z</time>
      </trkpt>
      <trkpt lat="43.9908" lon="5.40594">
        <ele>969.4</ele>
        <time>2016-05-29T06:42:55Z</time>
      </trkpt>
      <trkpt lat="43.99069" lon="5.40594">
        <ele>969</ele>
        <time>2016-05-29T06:42:57Z</time>
      </trkpt>
      <trkpt lat="43.99058" lon="5.40596">
        <ele>969</ele>
        <time>2016-05-29T06:42:59Z</time>
      </trkpt>
      <trkpt lat="43.99048" lon="5.40596">
        <ele>969</ele>
        <time>2016-05-29T06:43:01Z</time>
      </trkpt>
      <trkpt lat="43.99035" lon="5.40594">
        <ele>969</ele>
        <time>2016-05-29T06:43:04Z</time>
      </trkpt>
      <trkpt lat="43.99029" lon="5.40592">
        <ele>969</ele>
        <time>2016-05-29T06:43:06Z</time>
      </trkpt>
      <trkpt lat="43.9902" lon="5.40594">
        <ele>969</ele>
        <time>2016-05-29T06:43:09Z</time>
      </trkpt>
      <trkpt lat="43.99012" lon="5.40599">
        <ele>970</ele>
        <time>2016-05-29T06:43:12Z</time>
      </trkpt>
      <trkpt lat="43.99002" lon="5.40604">
        <ele>970</ele>
        <time>2016-05-29T06:43:16Z</time>
      </trkpt>
      <trkpt lat="43.98996" lon="5.4061">
        <ele>970</ele>
        <time>2016-05-29T06:43:19Z</time>
      </trkpt>
      <trkpt lat="43.98991" lon="5.40615">
        <ele>972</ele>
        <time>2016-05-29T06:43:22Z</time>
      </trkpt>
      <trkpt lat="43.98986" lon="5.40611">
        <ele>972</ele>
        <time>2016-05-29T06:43:27Z</time>
      </trkpt>
      <trkpt lat="43.98981" lon="5.40608">
        <ele>974</ele>
        <time>2016-05-29T06:43:30Z</time>
      </trkpt>
      <trkpt lat="43.98974" lon="5.40606">
        <ele>975</ele>
        <time>2016-05-29T06:43:33Z</time>
      </trkpt>
      <trkpt lat="43.98969" lon="5.40604">
        <ele>976</ele>
        <time>2016-05-29T06:43:36Z</time>
      </trkpt>
      <trkpt lat="43.98963" lon="5.40601">
        <ele>976.7</ele>
        <time>2016-05-29T06:43:40Z</time>
      </trkpt>
      <trkpt lat="43.98956" lon="5.40597">
        <ele>977</ele>
        <time>2016-05-29T06:43:44Z</time>
      </trkpt>
      <trkpt lat="43.98952" lon="5.40591">
        <ele>977</ele>
        <time>2016-05-29T06:43:47Z</time>
      </trkpt>
      <trkpt lat="43.98948" lon="5.40584">
        <ele>977.7</ele>
        <time>2016-05-29T06:43:50Z</time>
      </trkpt>
      <trkpt lat="43.98944" lon="5.40577">
        <ele>978</ele>
        <time>2016-05-29T06:43:53Z</time>
      </trkpt>
      <trkpt lat="43.98941" lon="5.40571">
        <ele>978</ele>
        <time>2016-05-29T06:43:56Z</time>
      </trkpt>
      <trkpt lat="43.98937" lon="5.40565">
        <ele>978</ele>
        <time>2016-05-29T06:43:59Z</time>
      </trkpt>
      <trkpt lat="43.98932" lon="5.4056">
        <ele>979</ele>
        <time>2016-05-29T06:44:02Z</time>
      </trkpt>
      <trkpt lat="43.98928" lon="5.40556">
        <ele>979</ele>
        <time>2016-05-29T06:44:05Z</time>
      </trkpt>
      <trkpt lat="43.98923" lon="5.40552">
        <ele>979</ele>
        <time>2016-05-29T06:44:08Z</time>
      </trkpt>
      <trkpt lat="43.98919" lon="5.40547">
        <ele>979.6</ele>
        <time>2016-05-29T06:44:11Z</time>
      </trkpt>
      <trkpt lat="43.98915" lon="5.40543">
        <ele>980</ele>
        <time>2016-05-29T06:44:14Z</time>
      </trkpt>
      <trkpt lat="43.98912" lon="5.4054">
        <ele>980</ele>
        <time>2016-05-29T06:44:16Z</time>
      </trkpt>
      <trkpt lat="43.98907" lon="5.40536">
        <ele>980</ele>
        <time>2016-05-29T06:44:19Z</time>
      </trkpt>
      <trkpt lat="43.98903" lon="5.40533">
        <ele>981</ele>
        <time>2016-05-29T06:44:22Z</time>
      </trkpt>
      <trkpt lat="43.98898" lon="5.4053">
        <ele>981</ele>
        <time>2016-05-29T06:44:25Z</time>
      </trkpt>
      <trkpt lat="43.98893" lon="5.40526">
        <ele>981</ele>
        <time>2016-05-29T06:44:29Z</time>
      </trkpt>
      <trkpt lat="43.98887" lon="5.40523">
        <ele>983</ele>
        <time>2016-05-29T06:44:35Z</time>
      </trkpt>
      <trkpt lat="43.98881" lon="5.40521">
        <ele>985</ele>
        <time>2016-05-29T06:44:42Z</time>
      </trkpt>
      <trkpt lat="43.98877" lon="5.40516">
        <ele>985</ele>
        <time>2016-05-29T06:44:48Z</time>
      </trkpt>
      <trkpt lat="43.98871" lon="5.40514">
        <ele>986</ele>
        <time>2016-05-29T06:44:54Z</time>
      </trkpt>
      <trkpt lat="43.98865" lon="5.40512">
        <ele>988</ele>
        <time>2016-05-29T06:45:02Z</time>
      </trkpt>
      <trkpt lat="43.98861" lon="5.40512">
        <ele>989</ele>
        <time>2016-05-29T06:45:12Z</time>
      </trkpt>
      <trkpt lat="43.98857" lon="5.40513">
        <ele>989</ele>
        <time>2016-05-29T06:45:18Z</time>
      </trkpt>
      <trkpt lat="43.98854" lon="5.40515">
        <ele>991</ele>
        <time>2016-05-29T06:45:22Z</time>
      </trkpt>
      <trkpt lat="43.98851" lon="5.40515">
        <ele>991</ele>
        <time>2016-05-29T06:45:26Z</time>
      </trkpt>
      <trkpt lat="43.98848" lon="5.40514">
        <ele>991.6</ele>
        <time>2016-05-29T06:45:31Z</time>
      </trkpt>
      <trkpt lat="43.98843" lon="5.40512">
        <ele>992</ele>
        <time>2016-05-29T06:45:37Z</time>
      </trkpt>
      <trkpt lat="43.98839" lon="5.40509">
        <ele>993</ele>
        <time>2016-05-29T06:45:42Z</time>
      </trkpt>
      <trkpt lat="43.98834" lon="5.40509">
        <ele>993</ele>
        <time>2016-05-29T06:45:48Z</time>
      </trkpt>
      <trkpt lat="43.9883" lon="5.40507">
        <ele>995</ele>
        <time>2016-05-29T06:45:54Z</time>
      </trkpt>
      <trkpt lat="43.98821" lon="5.40508">
        <ele>997</ele>
        <time>2016-05-29T06:46:07Z</time>
      </trkpt>
      <trkpt lat="43.98812" lon="5.4051">
        <ele>1001</ele>
        <time>2016-05-29T06:46:23Z</time>
      </trkpt>
      <trkpt lat="43.98804" lon="5.40511">
        <ele>1004</ele>
        <time>2016-05-29T06:46:34Z</time>
      </trkpt>
      <trkpt lat="43.98797" lon="5.40512">
        <ele>1006</ele>
        <time>2016-05-29T06:46:47Z</time>
      </trkpt>
      <trkpt lat="43.98791" lon="5.40514">
        <ele>1007</ele>
        <time>2016-05-29T06:46:56Z</time>
      </trkpt>
      <trkpt lat="43.98784" lon="5.40518">
        <ele>1009</ele>
        <time>2016-05-29T06:47:06Z</time>
      </trkpt>
      <trkpt lat="43.98776" lon="5.4052">
        <ele>1011</ele>
        <time>2016-05-29T06:47:18Z</time>
      </trkpt>
      <trkpt lat="43.98769" lon="5.40524">
        <ele>1014.3</ele>
        <time>2016-05-29T06:47:31Z</time>
      </trkpt>
      <trkpt lat="43.9876" lon="5.40525">
        <ele>1017</ele>
        <time>2016-05-29T06:47:44Z</time>
      </trkpt>
      <trkpt lat="43.98753" lon="5.40526">
        <ele>1019</ele>
        <time>2016-05-29T06:47:53Z</time>
      </trkpt>
      <trkpt lat="43.98747" lon="5.40525">
        <ele>1022</ele>
        <time>2016-05-29T06:48:02Z</time>
      </trkpt>
      <trkpt lat="43.98739" lon="5.40522">
        <ele>1023</ele>
        <time>2016-05-29T06:48:13Z</time>
      </trkpt>
      <trkpt lat="43.9873" lon="5.4052">
        <ele>1025</ele>
        <time>2016-05-29T06:48:26Z</time>
      </trkpt>
      <trkpt lat="43.98722" lon="5.40518">
        <ele>1027</ele>
        <time>2016-05-29T06:48:37Z</time>
      </trkpt>
      <trkpt lat="43.98716" lon="5.40516">
        <ele>1029</ele>
        <time>2016-05-29T06:48:46Z</time>
      </trkpt>
      <trkpt lat="43.98709" lon="5.40511">
        <ele>1030</ele>
        <time>2016-05-29T06:48:53Z</time>
      </trkpt>
      <trkpt lat="43.98703" lon="5.40509">
        <ele>1030</ele>
        <time>2016-05-29T06:48:57Z</time>
      </trkpt>
      <trkpt lat="43.98694" lon="5.4051">
        <ele>1033</ele>
        <time>2016-05-29T06:49:03Z</time>
      </trkpt>
      <trkpt lat="43.98687" lon="5.40513">
        <ele>1034</ele>
        <time>2016-05-29T06:49:08Z</time>
      </trkpt>
      <trkpt lat="43.98682" lon="5.40517">
        <ele>1036</ele>
        <time>2016-05-29T06:49:12Z</time>
      </trkpt>
      <trkpt lat="43.98677" lon="5.40521">
        <ele>1036</ele>
        <time>2016-05-29T06:49:15Z</time>
      </trkpt>
      <trkpt lat="43.98673" lon="5.40523">
        <ele>1036</ele>
        <time>2016-05-29T06:49:18Z</time>
      </trkpt>
      <trkpt lat="43.98668" lon="5.40527">
        <ele>1038</ele>
        <time>2016-05-29T06:49:23Z</time>
      </trkpt>
      <trkpt lat="43.98662" lon="5.40531">
        <ele>1038</ele>
        <time>2016-05-29T06:49:29Z</time>
      </trkpt>
      <trkpt lat="43.98658" lon="5.40535">
        <ele>1039</ele>
        <time>2016-05-29T06:49:34Z</time>
      </trkpt>
      <trkpt lat="43.98654" lon="5.40538">
        <ele>1039</ele>
        <time>2016-05-29T06:49:40Z</time>
      </trkpt>
      <trkpt lat="43.98649" lon="5.40539">
        <ele>1041</ele>
        <time>2016-05-29T06:49:48Z</time>
      </trkpt>
      <trkpt lat="43.98643" lon="5.4054">
        <ele>1042</ele>
        <time>2016-05-29T06:49:57Z</time>
      </trkpt>
      <trkpt lat="43.98639" lon="5.40542">
        <ele>1044</ele>
        <time>2016-05-29T06:50:02Z</time>
      </trkpt>
      <trkpt lat="43.98632" lon="5.40545">
        <ele>1044.6</ele>
        <time>2016-05-29T06:50:11Z</time>
      </trkpt>
      <trkpt lat="43.98629" lon="5.40549">
        <ele>1045</ele>
        <time>2016-05-29T06:50:18Z</time>
      </trkpt>
      <trkpt lat="43.98625" lon="5.40552">
        <ele>1047</ele>
        <time>2016-05-29T06:50:23Z</time>
      </trkpt>
      <trkpt lat="43.98621" lon="5.40552">
        <ele>1047</ele>
        <time>2016-05-29T06:50:28Z</time>
      </trkpt>
      <trkpt lat="43.98615" lon="5.40553">
        <ele>1049</ele>
        <time>2016-05-29T06:50:35Z</time>
      </trkpt>
      <trkpt lat="43.9861" lon="5.40553">
        <ele>1049</ele>
        <time>2016-05-29T06:50:40Z</time>
      </trkpt>
      <trkpt lat="43.98606" lon="5.40556">
        <ele>1051</ele>
        <time>2016-05-29T06:50:45Z</time>
      </trkpt>
      <trkpt lat="43.98602" lon="5.40559">
        <ele>1051</ele>
        <time>2016-05-29T06:50:49Z</time>
      </trkpt>
      <trkpt lat="43.98598" lon="5.40561">
        <ele>1052</ele>
        <time>2016-05-29T06:50:53Z</time>
      </trkpt>
      <trkpt lat="43.98593" lon="5.40564">
        <ele>1052</ele>
        <time>2016-05-29T06:51:00Z</time>
      </trkpt>
      <trkpt lat="43.98588" lon="5.40565">
        <ele>1054</ele>
        <time>2016-05-29T06:51:03Z</time>
      </trkpt>
      <trkpt lat="43.98583" lon="5.40569">
        <ele>1054</ele>
        <time>2016-05-29T06:51:06Z</time>
      </trkpt>
      <trkpt lat="43.98579" lon="5.40571">
        <ele>1054</ele>
        <time>2016-05-29T06:51:08Z</time>
      </trkpt>
      <trkpt lat="43.98576" lon="5.40575">
        <ele>1054</ele>
        <time>2016-05-29T06:51:10Z</time>
      </trkpt>
      <trkpt lat="43.98573" lon="5.40582">
        <ele>1054</ele>
        <time>2016-05-29T06:51:13Z</time>
      </trkpt>
      <trkpt lat="43.98571" lon="5.4059">
        <ele>1054</ele>
        <time>2016-05-29T06:51:16Z</time>
      </trkpt>
      <trkpt lat="43.98571" lon="5.40599">
        <ele>1054</ele>
        <time>2016-05-29T06:51:19Z</time>
      </trkpt>
      <trkpt lat="43.98569" lon="5.40611">
        <ele>1054</ele>
        <time>2016-05-29T06:51:23Z</time>
      </trkpt>
      <trkpt lat="43.98567" lon="5.40621">
        <ele>1054</ele>
        <time>2016-05-29T06:51:26Z</time>
      </trkpt>
      <trkpt lat="43.98565" lon="5.4063">
        <ele>1054</ele>
        <time>2016-05-29T06:51:29Z</time>
      </trkpt>
      <trkpt lat="43.98563" lon="5.4064">
        <ele>1054</ele>
        <time>2016-05-29T06:51:32Z</time>
      </trkpt>
      <trkpt lat="43.98561" lon="5.40649">
        <ele>1054</ele>
        <time>2016-05-29T06:51:35Z</time>
      </trkpt>
      <trkpt lat="43.98559" lon="5.40662">
        <ele>1054</ele>
        <time>2016-05-29T06:51:39Z</time>
      </trkpt>
      <trkpt lat="43.98555" lon="5.40674">
        <ele>1055</ele>
        <time>2016-05-29T06:51:43Z</time>
      </trkpt>
      <trkpt lat="43.98554" lon="5.4068">
        <ele>1055</ele>
        <time>2016-05-29T06:51:45Z</time>
      </trkpt>
      <trkpt lat="43.98552" lon="5.40693">
        <ele>1055</ele>
        <time>2016-05-29T06:51:49Z</time>
      </trkpt>
      <trkpt lat="43.98552" lon="5.40702">
        <ele>1055</ele>
        <time>2016-05-29T06:51:52Z</time>
      </trkpt>
      <trkpt lat="43.98552" lon="5.40712">
        <ele>1055</ele>
        <time>2016-05-29T06:51:55Z</time>
      </trkpt>
      <trkpt lat="43.98551" lon="5.40719">
        <ele>1055</ele>
        <time>2016-05-29T06:51:57Z</time>
      </trkpt>
      <trkpt lat="43.9855" lon="5.40726">
        <ele>1055</ele>
        <time>2016-05-29T06:51:59Z</time>
      </trkpt>
      <trkpt lat="43.9855" lon="5.40731">
        <ele>1054.4</ele>
        <time>2016-05-29T06:52:01Z</time>
      </trkpt>
      <trkpt lat="43.9855" lon="5.40737">
        <ele>1054</ele>
        <time>2016-05-29T06:52:03Z</time>
      </trkpt>
      <trkpt lat="43.98551" lon="5.40742">
        <ele>1054</ele>
        <time>2016-05-29T06:52:05Z</time>
      </trkpt>
      <trkpt lat="43.98551" lon="5.40747">
        <ele>1054</ele>
        <time>2016-05-29T06:52:07Z</time>
      </trkpt>
      <trkpt lat="43.9855" lon="5.40754">
        <ele>1055</ele>
        <time>2016-05-29T06:52:12Z</time>
      </trkpt>
      <trkpt lat="43.98549" lon="5.4076">
        <ele>1055</ele>
        <time>2016-05-29T06:52:16Z</time>
      </trkpt>
      <trkpt lat="43.98547" lon="5.40765">
        <ele>1055</ele>
        <time>2016-05-29T06:52:20Z</time>
      </trkpt>
      <trkpt lat="43.98546" lon="5.40769">
        <ele>1055</ele>
        <time>2016-05-29T07:01:30Z</time>
      </trkpt>
      <trkpt lat="43.98545" lon="5.40774">
        <ele>1054</ele>
        <time>2016-05-29T07:02:13Z</time>
      </trkpt>
      <trkpt lat="43.98542" lon="5.40785">
        <ele>1054</ele>
        <time>2016-05-29T07:02:42Z</time>
      </trkpt>
      <trkpt lat="43.98534" lon="5.408">
        <ele>1054</ele>
        <time>2016-05-29T07:02:44Z</time>
      </trkpt>
      <trkpt lat="43.98524" lon="5.40812">
        <ele>1054</ele>
        <time>2016-05-29T07:02:46Z</time>
      </trkpt>
      <trkpt lat="43.98521" lon="5.40819">
        <ele>1054</ele>
        <time>2016-05-29T07:02:47Z</time>
      </trkpt>
      <trkpt lat="43.98516" lon="5.40834">
        <ele>1054</ele>
        <time>2016-05-29T07:02:49Z</time>
      </trkpt>
      <trkpt lat="43.98501" lon="5.40838">
        <ele>1051</ele>
        <time>2016-05-29T07:02:52Z</time>
      </trkpt>
      <trkpt lat="43.9849" lon="5.40834">
        <ele>1051</ele>
        <time>2016-05-29T07:02:54Z</time>
      </trkpt>
      <trkpt lat="43.9848" lon="5.40833">
        <ele>1047</ele>
        <time>2016-05-29T07:02:59Z</time>
      </trkpt>
      <trkpt lat="43.98473" lon="5.40824">
        <ele>1044</ele>
        <time>2016-05-29T07:03:02Z</time>
      </trkpt>
      <trkpt lat="43.98464" lon="5.40817">
        <ele>1042.3</ele>
        <time>2016-05-29T07:03:04Z</time>
      </trkpt>
      <trkpt lat="43.98449" lon="5.40808">
        <ele>1039.7</ele>
        <time>2016-05-29T07:03:06Z</time>
      </trkpt>
      <trkpt lat="43.98435" lon="5.40803">
        <ele>1035</ele>
        <time>2016-05-29T07:03:08Z</time>
      </trkpt>
      <trkpt lat="43.98424" lon="5.40799">
        <ele>1031.3</ele>
        <time>2016-05-29T07:03:10Z</time>
      </trkpt>
      <trkpt lat="43.98409" lon="5.40791">
        <ele>1028.7</ele>
        <time>2016-05-29T07:03:12Z</time>
      </trkpt>
      <trkpt lat="43.98399" lon="5.40787">
        <ele>1027.4</ele>
        <time>2016-05-29T07:03:13Z</time>
      </trkpt>
      <trkpt lat="43.98389" lon="5.40784">
        <ele>1025.7</ele>
        <time>2016-05-29T07:03:14Z</time>
      </trkpt>
      <trkpt lat="43.98379" lon="5.40779">
        <ele>1024.4</ele>
        <time>2016-05-29T07:03:15Z</time>
      </trkpt>
      <trkpt lat="43.98369" lon="5.40773">
        <ele>1022.7</ele>
        <time>2016-05-29T07:03:16Z</time>
      </trkpt>
      <trkpt lat="43.9836" lon="5.40769">
        <ele>1020.7</ele>
        <time>2016-05-29T07:03:17Z</time>
      </trkpt>
      <trkpt lat="43.9835" lon="5.40764">
        <ele>1018.7</ele>
        <time>2016-05-29T07:03:18Z</time>
      </trkpt>
      <trkpt lat="43.98343" lon="5.40759">
        <ele>1016.7</ele>
        <time>2016-05-29T07:03:19Z</time>
      </trkpt>
      <trkpt lat="43.98333" lon="5.4075">
        <ele>1014.4</ele>
        <time>2016-05-29T07:03:21Z</time>
      </trkpt>
      <trkpt lat="43.98321" lon="5.40751">
        <ele>1011.3</ele>
        <time>2016-05-29T07:03:24Z</time>
      </trkpt>
      <trkpt lat="43.9831" lon="5.40747">
        <ele>1010.3</ele>
        <time>2016-05-29T07:03:26Z</time>
      </trkpt>
      <trkpt lat="43.98297" lon="5.40741">
        <ele>1008</ele>
        <time>2016-05-29T07:03:28Z</time>
      </trkpt>
      <trkpt lat="43.98284" lon="5.40736">
        <ele>1003.7</ele>
        <time>2016-05-29T07:03:30Z</time>
      </trkpt>
      <trkpt lat="43.98272" lon="5.40728">
        <ele>1001.3</ele>
        <time>2016-05-29T07:03:32Z</time>
      </trkpt>
      <trkpt lat="43.9826" lon="5.40724">
        <ele>998.3</ele>
        <time>2016-05-29T07:03:34Z</time>
      </trkpt>
      <trkpt lat="43.98245" lon="5.40715">
        <ele>995.3</ele>
        <time>2016-05-29T07:03:36Z</time>
      </trkpt>
      <trkpt lat="43.9823" lon="5.40709">
        <ele>992.3</ele>
        <time>2016-05-29T07:03:38Z</time>
      </trkpt>
      <trkpt lat="43.98212" lon="5.40702">
        <ele>988.7</ele>
        <time>2016-05-29T07:03:40Z</time>
      </trkpt>
      <trkpt lat="43.98204" lon="5.40696">
        <ele>986.7</ele>
        <time>2016-05-29T07:03:41Z</time>
      </trkpt>
      <trkpt lat="43.98189" lon="5.40687">
        <ele>982.7</ele>
        <time>2016-05-29T07:03:43Z</time>
      </trkpt>
      <trkpt lat="43.98177" lon="5.40682">
        <ele>980.4</ele>
        <time>2016-05-29T07:03:45Z</time>
      </trkpt>
      <trkpt lat="43.98167" lon="5.4068">
        <ele>977.7</ele>
        <time>2016-05-29T07:03:47Z</time>
      </trkpt>
      <trkpt lat="43.98156" lon="5.4068">
        <ele>975.4</ele>
        <time>2016-05-29T07:03:49Z</time>
      </trkpt>
      <trkpt lat="43.98146" lon="5.40677">
        <ele>972</ele>
        <time>2016-05-29T07:03:52Z</time>
      </trkpt>
      <trkpt lat="43.98137" lon="5.40671">
        <ele>971.3</ele>
        <time>2016-05-29T07:03:54Z</time>
      </trkpt>
      <trkpt lat="43.98127" lon="5.40664">
        <ele>968.7</ele>
        <time>2016-05-29T07:03:56Z</time>
      </trkpt>
      <trkpt lat="43.98117" lon="5.40656">
        <ele>966.4</ele>
        <time>2016-05-29T07:03:59Z</time>
      </trkpt>
      <trkpt lat="43.98106" lon="5.40651">
        <ele>963.4</ele>
        <time>2016-05-29T07:04:01Z</time>
      </trkpt>
      <trkpt lat="43.98095" lon="5.40645">
        <ele>961.7</ele>
        <time>2016-05-29T07:04:03Z</time>
      </trkpt>
      <trkpt lat="43.98079" lon="5.40636">
        <ele>959.4</ele>
        <time>2016-05-29T07:04:05Z</time>
      </trkpt>
      <trkpt lat="43.98062" lon="5.40629">
        <ele>955.7</ele>
        <time>2016-05-29T07:04:07Z</time>
      </trkpt>
      <trkpt lat="43.98047" lon="5.40622">
        <ele>953.4</ele>
        <time>2016-05-29T07:04:09Z</time>
      </trkpt>
      <trkpt lat="43.98036" lon="5.40616">
        <ele>952</ele>
        <time>2016-05-29T07:04:11Z</time>
      </trkpt>
      <trkpt lat="43.98025" lon="5.40624">
        <ele>950</ele>
        <time>2016-05-29T07:04:14Z</time>
      </trkpt>
      <trkpt lat="43.98019" lon="5.40636">
        <ele>949.3</ele>
        <time>2016-05-29T07:04:16Z</time>
      </trkpt>
      <trkpt lat="43.98015" lon="5.40652">
        <ele>948</ele>
        <time>2016-05-29T07:04:18Z</time>
      </trkpt>
      <trkpt lat="43.9801" lon="5.4067">
        <ele>947.3</ele>
        <time>2016-05-29T07:04:20Z</time>
      </trkpt>
      <trkpt lat="43.98007" lon="5.40689">
        <ele>947</ele>
        <time>2016-05-29T07:04:22Z</time>
      </trkpt>
      <trkpt lat="43.98002" lon="5.4071">
        <ele>947</ele>
        <time>2016-05-29T07:04:24Z</time>
      </trkpt>
      <trkpt lat="43.97999" lon="5.40729">
        <ele>947</ele>
        <time>2016-05-29T07:04:26Z</time>
      </trkpt>
      <trkpt lat="43.97995" lon="5.40748">
        <ele>947</ele>
        <time>2016-05-29T07:04:28Z</time>
      </trkpt>
      <trkpt lat="43.97996" lon="5.40768">
        <ele>947.6</ele>
        <time>2016-05-29T07:04:31Z</time>
      </trkpt>
      <trkpt lat="43.98" lon="5.40783">
        <ele>948</ele>
        <time>2016-05-29T07:04:33Z</time>
      </trkpt>
      <trkpt lat="43.98002" lon="5.40798">
        <ele>948</ele>
        <time>2016-05-29T07:04:35Z</time>
      </trkpt>
      <trkpt lat="43.98002" lon="5.40812">
        <ele>948</ele>
        <time>2016-05-29T07:04:37Z</time>
      </trkpt>
      <trkpt lat="43.98002" lon="5.40826">
        <ele>948</ele>
        <time>2016-05-29T07:04:39Z</time>
      </trkpt>
      <trkpt lat="43.98002" lon="5.40842">
        <ele>946.7</ele>
        <time>2016-05-29T07:04:41Z</time>
      </trkpt>
      <trkpt lat="43.98001" lon="5.40859">
        <ele>946</ele>
        <time>2016-05-29T07:04:43Z</time>
      </trkpt>
      <trkpt lat="43.97993" lon="5.40874">
        <ele>946</ele>
        <time>2016-05-29T07:04:45Z</time>
      </trkpt>
      <trkpt lat="43.97982" lon="5.40883">
        <ele>946</ele>
        <time>2016-05-29T07:04:47Z</time>
      </trkpt>
      <trkpt lat="43.97966" lon="5.40883">
        <ele>946</ele>
        <time>2016-05-29T07:04:49Z</time>
      </trkpt>
      <trkpt lat="43.97955" lon="5.40889">
        <ele>942.8</ele>
        <time>2016-05-29T07:04:51Z</time>
      </trkpt>
      <trkpt lat="43.97946" lon="5.40899">
        <ele>938</ele>
        <time>2016-05-29T07:04:53Z</time>
      </trkpt>
      <trkpt lat="43.97945" lon="5.40918">
        <ele>935</ele>
        <time>2016-05-29T07:04:57Z</time>
      </trkpt>
      <trkpt lat="43.97944" lon="5.40935">
        <ele>934.4</ele>
        <time>2016-05-29T07:04:59Z</time>
      </trkpt>
      <trkpt lat="43.97938" lon="5.40948">
        <ele>930.7</ele>
        <time>2016-05-29T07:05:01Z</time>
      </trkpt>
      <trkpt lat="43.97934" lon="5.40962">
        <ele>929</ele>
        <time>2016-05-29T07:05:04Z</time>
      </trkpt>
      <trkpt lat="43.97925" lon="5.40968">
        <ele>926</ele>
        <time>2016-05-29T07:05:08Z</time>
      </trkpt>
      <trkpt lat="43.97912" lon="5.40975">
        <ele>926</ele>
        <time>2016-05-29T07:05:11Z</time>
      </trkpt>
      <trkpt lat="43.97903" lon="5.40988">
        <ele>926</ele>
        <time>2016-05-29T07:05:13Z</time>
      </trkpt>
      <trkpt lat="43.97893" lon="5.41001">
        <ele>926</ele>
        <time>2016-05-29T07:05:15Z</time>
      </trkpt>
      <trkpt lat="43.97883" lon="5.41015">
        <ele>920</ele>
        <time>2016-05-29T07:05:17Z</time>
      </trkpt>
      <trkpt lat="43.97873" lon="5.41023">
        <ele>920</ele>
        <time>2016-05-29T07:05:19Z</time>
      </trkpt>
      <trkpt lat="43.97869" lon="5.41036">
        <ele>915.5</ele>
        <time>2016-05-29T07:05:21Z</time>
      </trkpt>
      <trkpt lat="43.9787" lon="5.41053">
        <ele>909.4</ele>
        <time>2016-05-29T07:05:23Z</time>
      </trkpt>
      <trkpt lat="43.97868" lon="5.41068">
        <ele>906.7</ele>
        <time>2016-05-29T07:05:25Z</time>
      </trkpt>
      <trkpt lat="43.97861" lon="5.4108">
        <ele>904.4</ele>
        <time>2016-05-29T07:05:27Z</time>
      </trkpt>
      <trkpt lat="43.97852" lon="5.41086">
        <ele>903</ele>
        <time>2016-05-29T07:05:29Z</time>
      </trkpt>
      <trkpt lat="43.97845" lon="5.41098">
        <ele>899.4</ele>
        <time>2016-05-29T07:05:31Z</time>
      </trkpt>
      <trkpt lat="43.97841" lon="5.41114">
        <ele>895.1</ele>
        <time>2016-05-29T07:05:33Z</time>
      </trkpt>
      <trkpt lat="43.97834" lon="5.41126">
        <ele>890.7</ele>
        <time>2016-05-29T07:05:35Z</time>
      </trkpt>
      <trkpt lat="43.97821" lon="5.41131">
        <ele>886</ele>
        <time>2016-05-29T07:05:38Z</time>
      </trkpt>
      <trkpt lat="43.97812" lon="5.41138">
        <ele>883.7</ele>
        <time>2016-05-29T07:05:40Z</time>
      </trkpt>
      <trkpt lat="43.97809" lon="5.41155">
        <ele>881</ele>
        <time>2016-05-29T07:05:42Z</time>
      </trkpt>
      <trkpt lat="43.97804" lon="5.41169">
        <ele>876.7</ele>
        <time>2016-05-29T07:05:44Z</time>
      </trkpt>
      <trkpt lat="43.97793" lon="5.41177">
        <ele>875</ele>
        <time>2016-05-29T07:05:47Z</time>
      </trkpt>
      <trkpt lat="43.97798" lon="5.41191">
        <ele>872</ele>
        <time>2016-05-29T07:05:50Z</time>
      </trkpt>
      <trkpt lat="43.97792" lon="5.41204">
        <ele>870</ele>
        <time>2016-05-29T07:05:54Z</time>
      </trkpt>
      <trkpt lat="43.97797" lon="5.41223">
        <ele>865.7</ele>
        <time>2016-05-29T07:05:57Z</time>
      </trkpt>
      <trkpt lat="43.9779" lon="5.41234">
        <ele>862.3</ele>
        <time>2016-05-29T07:06:00Z</time>
      </trkpt>
      <trkpt lat="43.97779" lon="5.41235">
        <ele>861</ele>
        <time>2016-05-29T07:06:02Z</time>
      </trkpt>
      <trkpt lat="43.97767" lon="5.41238">
        <ele>860.3</ele>
        <time>2016-05-29T07:06:04Z</time>
      </trkpt>
      <trkpt lat="43.97753" lon="5.41242">
        <ele>859</ele>
        <time>2016-05-29T07:06:07Z</time>
      </trkpt>
      <trkpt lat="43.97742" lon="5.41248">
        <ele>858.3</ele>
        <time>2016-05-29T07:06:10Z</time>
      </trkpt>
      <trkpt lat="43.97731" lon="5.41254">
        <ele>857</ele>
        <time>2016-05-29T07:06:12Z</time>
      </trkpt>
      <trkpt lat="43.9772" lon="5.4126">
        <ele>857</ele>
        <time>2016-05-29T07:06:14Z</time>
      </trkpt>
      <trkpt lat="43.9771" lon="5.41263">
        <ele>855.7</ele>
        <time>2016-05-29T07:06:16Z</time>
      </trkpt>
      <trkpt lat="43.9772" lon="5.41269">
        <ele>853</ele>
        <time>2016-05-29T07:06:24Z</time>
      </trkpt>
      <trkpt lat="43.9773" lon="5.41273">
        <ele>851.7</ele>
        <time>2016-05-29T07:06:26Z</time>
      </trkpt>
      <trkpt lat="43.97742" lon="5.41281">
        <ele>851</ele>
        <time>2016-05-29T07:06:28Z</time>
      </trkpt>
      <trkpt lat="43.97752" lon="5.41285">
        <ele>851</ele>
        <time>2016-05-29T07:06:30Z</time>
      </trkpt>
      <trkpt lat="43.97759" lon="5.41293">
        <ele>845.7</ele>
        <time>2016-05-29T07:06:32Z</time>
      </trkpt>
      <trkpt lat="43.97764" lon="5.41305">
        <ele>841.7</ele>
        <time>2016-05-29T07:06:34Z</time>
      </trkpt>
      <trkpt lat="43.9777" lon="5.41311">
        <ele>840</ele>
        <time>2016-05-29T07:06:36Z</time>
      </trkpt>
      <trkpt lat="43.97783" lon="5.41321">
        <ele>835.4</ele>
        <time>2016-05-29T07:06:39Z</time>
      </trkpt>
      <trkpt lat="43.9779" lon="5.41336">
        <ele>830.7</ele>
        <time>2016-05-29T07:06:42Z</time>
      </trkpt>
      <trkpt lat="43.97798" lon="5.41348">
        <ele>825.3</ele>
        <time>2016-05-29T07:06:46Z</time>
      </trkpt>
      <trkpt lat="43.97811" lon="5.41353">
        <ele>822.4</ele>
        <time>2016-05-29T07:06:49Z</time>
      </trkpt>
      <trkpt lat="43.97825" lon="5.41352">
        <ele>823</ele>
        <time>2016-05-29T07:06:52Z</time>
      </trkpt>
      <trkpt lat="43.97837" lon="5.41355">
        <ele>820.7</ele>
        <time>2016-05-29T07:06:54Z</time>
      </trkpt>
      <trkpt lat="43.9785" lon="5.41357">
        <ele>818.3</ele>
        <time>2016-05-29T07:06:56Z</time>
      </trkpt>
      <trkpt lat="43.97861" lon="5.41362">
        <ele>816.7</ele>
        <time>2016-05-29T07:06:58Z</time>
      </trkpt>
      <trkpt lat="43.97873" lon="5.41366">
        <ele>812.7</ele>
        <time>2016-05-29T07:07:00Z</time>
      </trkpt>
      <trkpt lat="43.97888" lon="5.41365">
        <ele>809</ele>
        <time>2016-05-29T07:07:02Z</time>
      </trkpt>
      <trkpt lat="43.97906" lon="5.41361">
        <ele>809</ele>
        <time>2016-05-29T07:07:04Z</time>
      </trkpt>
      <trkpt lat="43.97915" lon="5.41352">
        <ele>809</ele>
        <time>2016-05-29T07:07:07Z</time>
      </trkpt>
      <trkpt lat="43.97922" lon="5.41346">
        <ele>809</ele>
        <time>2016-05-29T07:08:52Z</time>
      </trkpt>
      <trkpt lat="43.97929" lon="5.41342">
        <ele>809</ele>
        <time>2016-05-29T07:08:57Z</time>
      </trkpt>
      <trkpt lat="43.97934" lon="5.41337">
        <ele>809</ele>
        <time>2016-05-29T07:09:01Z</time>
      </trkpt>
      <trkpt lat="43.9794" lon="5.41333">
        <ele>809</ele>
        <time>2016-05-29T07:09:05Z</time>
      </trkpt>
      <trkpt lat="43.97946" lon="5.4133">
        <ele>809</ele>
        <time>2016-05-29T07:09:08Z</time>
      </trkpt>
      <trkpt lat="43.97951" lon="5.41325">
        <ele>809.6</ele>
        <time>2016-05-29T07:09:11Z</time>
      </trkpt>
      <trkpt lat="43.97959" lon="5.4132">
        <ele>810</ele>
        <time>2016-05-29T07:09:15Z</time>
      </trkpt>
      <trkpt lat="43.97966" lon="5.41315">
        <ele>810</ele>
        <time>2016-05-29T07:09:19Z</time>
      </trkpt>
      <trkpt lat="43.97974" lon="5.4131">
        <ele>812</ele>
        <time>2016-05-29T07:09:23Z</time>
      </trkpt>
      <trkpt lat="43.9798" lon="5.41304">
        <ele>812</ele>
        <time>2016-05-29T07:09:27Z</time>
      </trkpt>
      <trkpt lat="43.97987" lon="5.41298">
        <ele>813.9</ele>
        <time>2016-05-29T07:09:31Z</time>
      </trkpt>
      <trkpt lat="43.97993" lon="5.41292">
        <ele>815</ele>
        <time>2016-05-29T07:09:35Z</time>
      </trkpt>
      <trkpt lat="43.98" lon="5.41285">
        <ele>816</ele>
        <time>2016-05-29T07:09:40Z</time>
      </trkpt>
      <trkpt lat="43.98006" lon="5.41278">
        <ele>817</ele>
        <time>2016-05-29T07:09:45Z</time>
      </trkpt>
      <trkpt lat="43.98013" lon="5.41273">
        <ele>817</ele>
        <time>2016-05-29T07:09:50Z</time>
      </trkpt>
      <trkpt lat="43.9802" lon="5.4127">
        <ele>818</ele>
        <time>2016-05-29T07:09:55Z</time>
      </trkpt>
      <trkpt lat="43.98027" lon="5.41269">
        <ele>818</ele>
        <time>2016-05-29T07:09:59Z</time>
      </trkpt>
      <trkpt lat="43.98033" lon="5.41268">
        <ele>821</ele>
        <time>2016-05-29T07:10:03Z</time>
      </trkpt>
      <trkpt lat="43.9804" lon="5.41268">
        <ele>822</ele>
        <time>2016-05-29T07:10:07Z</time>
      </trkpt>
      <trkpt lat="43.98047" lon="5.41267">
        <ele>822</ele>
        <time>2016-05-29T07:10:11Z</time>
      </trkpt>
      <trkpt lat="43.98056" lon="5.41266">
        <ele>822</ele>
        <time>2016-05-29T07:10:16Z</time>
      </trkpt>
      <trkpt lat="43.98063" lon="5.41266">
        <ele>822</ele>
        <time>2016-05-29T07:10:20Z</time>
      </trkpt>
      <trkpt lat="43.98072" lon="5.41264">
        <ele>824</ele>
        <time>2016-05-29T07:10:25Z</time>
      </trkpt>
      <trkpt lat="43.98078" lon="5.41263">
        <ele>824</ele>
        <time>2016-05-29T07:10:29Z</time>
      </trkpt>
      <trkpt lat="43.98085" lon="5.41262">
        <ele>826</ele>
        <time>2016-05-29T07:10:33Z</time>
      </trkpt>
      <trkpt lat="43.98093" lon="5.4126">
        <ele>826</ele>
        <time>2016-05-29T07:10:38Z</time>
      </trkpt>
      <trkpt lat="43.981" lon="5.4126">
        <ele>827</ele>
        <time>2016-05-29T07:10:42Z</time>
      </trkpt>
      <trkpt lat="43.98109" lon="5.4126">
        <ele>827</ele>
        <time>2016-05-29T07:10:48Z</time>
      </trkpt>
      <trkpt lat="43.98119" lon="5.41261">
        <ele>829</ele>
        <time>2016-05-29T07:10:54Z</time>
      </trkpt>
      <trkpt lat="43.98128" lon="5.41263">
        <ele>829</ele>
        <time>2016-05-29T07:10:59Z</time>
      </trkpt>
      <trkpt lat="43.98139" lon="5.41266">
        <ele>831</ele>
        <time>2016-05-29T07:11:05Z</time>
      </trkpt>
      <trkpt lat="43.98149" lon="5.4127">
        <ele>832.3</ele>
        <time>2016-05-29T07:11:11Z</time>
      </trkpt>
      <trkpt lat="43.98158" lon="5.41275">
        <ele>833</ele>
        <time>2016-05-29T07:11:17Z</time>
      </trkpt>
      <trkpt lat="43.98168" lon="5.41281">
        <ele>834</ele>
        <time>2016-05-29T07:11:23Z</time>
      </trkpt>
      <trkpt lat="43.98178" lon="5.41287">
        <ele>834</ele>
        <time>2016-05-29T07:11:28Z</time>
      </trkpt>
      <trkpt lat="43.98188" lon="5.41294">
        <ele>835</ele>
        <time>2016-05-29T07:11:33Z</time>
      </trkpt>
      <trkpt lat="43.98198" lon="5.413">
        <ele>835</ele>
        <time>2016-05-29T07:11:39Z</time>
      </trkpt>
      <trkpt lat="43.98208" lon="5.41307">
        <ele>836</ele>
        <time>2016-05-29T07:11:45Z</time>
      </trkpt>
      <trkpt lat="43.98215" lon="5.41311">
        <ele>836</ele>
        <time>2016-05-29T07:11:50Z</time>
      </trkpt>
      <trkpt lat="43.98225" lon="5.41315">
        <ele>838</ele>
        <time>2016-05-29T07:11:56Z</time>
      </trkpt>
      <trkpt lat="43.98234" lon="5.41319">
        <ele>841</ele>
        <time>2016-05-29T07:12:02Z</time>
      </trkpt>
      <trkpt lat="43.98244" lon="5.41324">
        <ele>842</ele>
        <time>2016-05-29T07:12:09Z</time>
      </trkpt>
      <trkpt lat="43.98254" lon="5.41329">
        <ele>844.3</ele>
        <time>2016-05-29T07:12:16Z</time>
      </trkpt>
      <trkpt lat="43.98265" lon="5.41335">
        <ele>845</ele>
        <time>2016-05-29T07:12:23Z</time>
      </trkpt>
      <trkpt lat="43.98275" lon="5.4134">
        <ele>845</ele>
        <time>2016-05-29T07:12:30Z</time>
      </trkpt>
      <trkpt lat="43.98285" lon="5.41343">
        <ele>847</ele>
        <time>2016-05-29T07:12:37Z</time>
      </trkpt>
      <trkpt lat="43.98294" lon="5.41343">
        <ele>850</ele>
        <time>2016-05-29T07:12:43Z</time>
      </trkpt>
      <trkpt lat="43.98305" lon="5.41343">
        <ele>851</ele>
        <time>2016-05-29T07:12:50Z</time>
      </trkpt>
      <trkpt lat="43.98316" lon="5.41342">
        <ele>853</ele>
        <time>2016-05-29T07:12:57Z</time>
      </trkpt>
      <trkpt lat="43.98326" lon="5.4134">
        <ele>853</ele>
        <time>2016-05-29T07:13:03Z</time>
      </trkpt>
      <trkpt lat="43.98337" lon="5.41338">
        <ele>853</ele>
        <time>2016-05-29T07:13:10Z</time>
      </trkpt>
      <trkpt lat="43.98347" lon="5.41336">
        <ele>855</ele>
        <time>2016-05-29T07:13:16Z</time>
      </trkpt>
      <trkpt lat="43.98357" lon="5.41335">
        <ele>857</ele>
        <time>2016-05-29T07:13:22Z</time>
      </trkpt>
      <trkpt lat="43.98367" lon="5.41335">
        <ele>857</ele>
        <time>2016-05-29T07:13:28Z</time>
      </trkpt>
      <trkpt lat="43.98378" lon="5.41336">
        <ele>859</ele>
        <time>2016-05-29T07:13:34Z</time>
      </trkpt>
      <trkpt lat="43.98388" lon="5.41335">
        <ele>859</ele>
        <time>2016-05-29T07:13:39Z</time>
      </trkpt>
      <trkpt lat="43.98398" lon="5.41333">
        <ele>860</ele>
        <time>2016-05-29T07:13:45Z</time>
      </trkpt>
      <trkpt lat="43.98408" lon="5.41331">
        <ele>861.3</ele>
        <time>2016-05-29T07:13:51Z</time>
      </trkpt>
      <trkpt lat="43.98419" lon="5.41331">
        <ele>862</ele>
        <time>2016-05-29T07:13:57Z</time>
      </trkpt>
      <trkpt lat="43.9843" lon="5.41332">
        <ele>863</ele>
        <time>2016-05-29T07:14:03Z</time>
      </trkpt>
      <trkpt lat="43.98441" lon="5.41333">
        <ele>863</ele>
        <time>2016-05-29T07:14:09Z</time>
      </trkpt>
      <trkpt lat="43.98453" lon="5.41334">
        <ele>865</ele>
        <time>2016-05-29T07:14:15Z</time>
      </trkpt>
      <trkpt lat="43.98463" lon="5.41335">
        <ele>866.3</ele>
        <time>2016-05-29T07:14:21Z</time>
      </trkpt>
      <trkpt lat="43.98475" lon="5.41335">
        <ele>867</ele>
        <time>2016-05-29T07:14:28Z</time>
      </trkpt>
      <trkpt lat="43.98484" lon="5.41332">
        <ele>869</ele>
        <time>2016-05-29T07:14:34Z</time>
      </trkpt>
      <trkpt lat="43.98493" lon="5.41329">
        <ele>870</ele>
        <time>2016-05-29T07:14:40Z</time>
      </trkpt>
      <trkpt lat="43.98502" lon="5.41324">
        <ele>872.7</ele>
        <time>2016-05-29T07:14:46Z</time>
      </trkpt>
      <trkpt lat="43.98512" lon="5.41321">
        <ele>874</ele>
        <time>2016-05-29T07:14:52Z</time>
      </trkpt>
      <trkpt lat="43.98523" lon="5.41319">
        <ele>874</ele>
        <time>2016-05-29T07:14:58Z</time>
      </trkpt>
      <trkpt lat="43.98532" lon="5.41319">
        <ele>875</ele>
        <time>2016-05-29T07:15:03Z</time>
      </trkpt>
      <trkpt lat="43.98543" lon="5.41321">
        <ele>875</ele>
        <time>2016-05-29T07:15:10Z</time>
      </trkpt>
      <trkpt lat="43.98554" lon="5.41322">
        <ele>877</ele>
        <time>2016-05-29T07:15:17Z</time>
      </trkpt>
      <trkpt lat="43.98564" lon="5.41323">
        <ele>879</ele>
        <time>2016-05-29T07:15:22Z</time>
      </trkpt>
      <trkpt lat="43.98575" lon="5.41324">
        <ele>881</ele>
        <time>2016-05-29T07:15:27Z</time>
      </trkpt>
      <trkpt lat="43.98586" lon="5.41326">
        <ele>881</ele>
        <time>2016-05-29T07:15:32Z</time>
      </trkpt>
      <trkpt lat="43.98598" lon="5.41329">
        <ele>881</ele>
        <time>2016-05-29T07:15:37Z</time>
      </trkpt>
      <trkpt lat="43.98608" lon="5.41332">
        <ele>882.3</ele>
        <time>2016-05-29T07:15:41Z</time>
      </trkpt>
      <trkpt lat="43.98617" lon="5.41335">
        <ele>883</ele>
        <time>2016-05-29T07:15:45Z</time>
      </trkpt>
      <trkpt lat="43.98629" lon="5.4134">
        <ele>883</ele>
        <time>2016-05-29T07:15:50Z</time>
      </trkpt>
      <trkpt lat="43.98637" lon="5.41342">
        <ele>885</ele>
        <time>2016-05-29T07:15:54Z</time>
      </trkpt>
      <trkpt lat="43.98648" lon="5.41345">
        <ele>885</ele>
        <time>2016-05-29T07:15:59Z</time>
      </trkpt>
      <trkpt lat="43.98658" lon="5.41348">
        <ele>886</ele>
        <time>2016-05-29T07:16:04Z</time>
      </trkpt>
      <trkpt lat="43.98668" lon="5.41351">
        <ele>886</ele>
        <time>2016-05-29T07:16:09Z</time>
      </trkpt>
      <trkpt lat="43.98679" lon="5.41351">
        <ele>887</ele>
        <time>2016-05-29T07:16:15Z</time>
      </trkpt>
      <trkpt lat="43.98689" lon="5.41349">
        <ele>887</ele>
        <time>2016-05-29T07:16:20Z</time>
      </trkpt>
      <trkpt lat="43.987" lon="5.41348">
        <ele>888</ele>
        <time>2016-05-29T07:16:27Z</time>
      </trkpt>
      <trkpt lat="43.98711" lon="5.4135">
        <ele>891</ele>
        <time>2016-05-29T07:16:34Z</time>
      </trkpt>
      <trkpt lat="43.98721" lon="5.41353">
        <ele>893</ele>
        <time>2016-05-29T07:16:39Z</time>
      </trkpt>
      <trkpt lat="43.98732" lon="5.41356">
        <ele>895</ele>
        <time>2016-05-29T07:16:44Z</time>
      </trkpt>
      <trkpt lat="43.98742" lon="5.41358">
        <ele>895</ele>
        <time>2016-05-29T07:16:48Z</time>
      </trkpt>
      <trkpt lat="43.98753" lon="5.4136">
        <ele>896</ele>
        <time>2016-05-29T07:16:52Z</time>
      </trkpt>
      <trkpt lat="43.98765" lon="5.41363">
        <ele>896</ele>
        <time>2016-05-29T07:16:56Z</time>
      </trkpt>
      <trkpt lat="43.98775" lon="5.41368">
        <ele>896</ele>
        <time>2016-05-29T07:17:01Z</time>
      </trkpt>
      <trkpt lat="43.98785" lon="5.41373">
        <ele>896</ele>
        <time>2016-05-29T07:17:06Z</time>
      </trkpt>
      <trkpt lat="43.98794" lon="5.41377">
        <ele>896</ele>
        <time>2016-05-29T07:17:10Z</time>
      </trkpt>
      <trkpt lat="43.98805" lon="5.41378">
        <ele>898</ele>
        <time>2016-05-29T07:17:16Z</time>
      </trkpt>
      <trkpt lat="43.98815" lon="5.41379">
        <ele>900</ele>
        <time>2016-05-29T07:17:22Z</time>
      </trkpt>
      <trkpt lat="43.98826" lon="5.41384">
        <ele>900</ele>
        <time>2016-05-29T07:17:29Z</time>
      </trkpt>
      <trkpt lat="43.98819" lon="5.41394">
        <ele>902</ele>
        <time>2016-05-29T07:17:38Z</time>
      </trkpt>
      <trkpt lat="43.98807" lon="5.41397">
        <ele>905</ele>
        <time>2016-05-29T07:17:45Z</time>
      </trkpt>
      <trkpt lat="43.98797" lon="5.41404">
        <ele>905.6</ele>
        <time>2016-05-29T07:17:51Z</time>
      </trkpt>
      <trkpt lat="43.98787" lon="5.4141">
        <ele>906</ele>
        <time>2016-05-29T07:17:57Z</time>
      </trkpt>
      <trkpt lat="43.98777" lon="5.41416">
        <ele>909</ele>
        <time>2016-05-29T07:18:03Z</time>
      </trkpt>
      <trkpt lat="43.98768" lon="5.41421">
        <ele>910</ele>
        <time>2016-05-29T07:18:09Z</time>
      </trkpt>
      <trkpt lat="43.98757" lon="5.41425">
        <ele>911</ele>
        <time>2016-05-29T07:18:15Z</time>
      </trkpt>
      <trkpt lat="43.98747" lon="5.4143">
        <ele>913</ele>
        <time>2016-05-29T07:18:22Z</time>
      </trkpt>
      <trkpt lat="43.98736" lon="5.41435">
        <ele>913</ele>
        <time>2016-05-29T07:18:28Z</time>
      </trkpt>
      <trkpt lat="43.98727" lon="5.41436">
        <ele>914</ele>
        <time>2016-05-29T07:18:32Z</time>
      </trkpt>
      <trkpt lat="43.98719" lon="5.41438">
        <ele>914</ele>
        <time>2016-05-29T07:18:36Z</time>
      </trkpt>
      <trkpt lat="43.9871" lon="5.41442">
        <ele>914.6</ele>
        <time>2016-05-29T07:18:41Z</time>
      </trkpt>
      <trkpt lat="43.987" lon="5.41449">
        <ele>915</ele>
        <time>2016-05-29T07:18:47Z</time>
      </trkpt>
      <trkpt lat="43.9869" lon="5.41453">
        <ele>917</ele>
        <time>2016-05-29T07:18:52Z</time>
      </trkpt>
      <trkpt lat="43.98683" lon="5.41456">
        <ele>917</ele>
        <time>2016-05-29T07:18:56Z</time>
      </trkpt>
      <trkpt lat="43.98675" lon="5.4146">
        <ele>917</ele>
        <time>2016-05-29T07:19:00Z</time>
      </trkpt>
      <trkpt lat="43.98667" lon="5.41463">
        <ele>918</ele>
        <time>2016-05-29T07:19:04Z</time>
      </trkpt>
      <trkpt lat="43.98657" lon="5.41468">
        <ele>918</ele>
        <time>2016-05-29T07:19:10Z</time>
      </trkpt>
      <trkpt lat="43.98648" lon="5.41473">
        <ele>920</ele>
        <time>2016-05-29T07:19:14Z</time>
      </trkpt>
      <trkpt lat="43.98638" lon="5.41476">
        <ele>920</ele>
        <time>2016-05-29T07:19:19Z</time>
      </trkpt>
      <trkpt lat="43.98631" lon="5.4148">
        <ele>923</ele>
        <time>2016-05-29T07:19:23Z</time>
      </trkpt>
      <trkpt lat="43.98622" lon="5.41482">
        <ele>924</ele>
        <time>2016-05-29T07:19:28Z</time>
      </trkpt>
      <trkpt lat="43.98614" lon="5.41484">
        <ele>925</ele>
        <time>2016-05-29T07:19:33Z</time>
      </trkpt>
      <trkpt lat="43.98605" lon="5.41485">
        <ele>927</ele>
        <time>2016-05-29T07:19:38Z</time>
      </trkpt>
      <trkpt lat="43.98596" lon="5.41487">
        <ele>927</ele>
        <time>2016-05-29T07:19:43Z</time>
      </trkpt>
      <trkpt lat="43.98586" lon="5.41491">
        <ele>927</ele>
        <time>2016-05-29T07:19:49Z</time>
      </trkpt>
      <trkpt lat="43.98578" lon="5.41493">
        <ele>929</ele>
        <time>2016-05-29T07:19:52Z</time>
      </trkpt>
      <trkpt lat="43.98571" lon="5.41494">
        <ele>929</ele>
        <time>2016-05-29T07:19:55Z</time>
      </trkpt>
      <trkpt lat="43.98562" lon="5.41497">
        <ele>929</ele>
        <time>2016-05-29T07:20:00Z</time>
      </trkpt>
      <trkpt lat="43.98553" lon="5.41499">
        <ele>931</ele>
        <time>2016-05-29T07:20:04Z</time>
      </trkpt>
      <trkpt lat="43.98546" lon="5.41502">
        <ele>931</ele>
        <time>2016-05-29T07:20:08Z</time>
      </trkpt>
      <trkpt lat="43.98539" lon="5.41505">
        <ele>932</ele>
        <time>2016-05-29T07:20:12Z</time>
      </trkpt>
      <trkpt lat="43.98528" lon="5.41509">
        <ele>932</ele>
        <time>2016-05-29T07:20:18Z</time>
      </trkpt>
      <trkpt lat="43.98519" lon="5.41512">
        <ele>934</ele>
        <time>2016-05-29T07:20:22Z</time>
      </trkpt>
      <trkpt lat="43.98511" lon="5.41515">
        <ele>934</ele>
        <time>2016-05-29T07:20:26Z</time>
      </trkpt>
      <trkpt lat="43.98504" lon="5.41519">
        <ele>934</ele>
        <time>2016-05-29T07:20:30Z</time>
      </trkpt>
      <trkpt lat="43.98497" lon="5.41523">
        <ele>935</ele>
        <time>2016-05-29T07:20:33Z</time>
      </trkpt>
      <trkpt lat="43.9849" lon="5.41527">
        <ele>935</ele>
        <time>2016-05-29T07:20:36Z</time>
      </trkpt>
      <trkpt lat="43.98481" lon="5.41532">
        <ele>935</ele>
        <time>2016-05-29T07:20:39Z</time>
      </trkpt>
      <trkpt lat="43.9847" lon="5.41539">
        <ele>936</ele>
        <time>2016-05-29T07:20:44Z</time>
      </trkpt>
      <trkpt lat="43.98458" lon="5.41544">
        <ele>936</ele>
        <time>2016-05-29T07:20:48Z</time>
      </trkpt>
      <trkpt lat="43.98451" lon="5.4155">
        <ele>936.6</ele>
        <time>2016-05-29T07:20:51Z</time>
      </trkpt>
      <trkpt lat="43.98444" lon="5.41554">
        <ele>937</ele>
        <time>2016-05-29T07:20:54Z</time>
      </trkpt>
      <trkpt lat="43.98434" lon="5.41557">
        <ele>937</ele>
        <time>2016-05-29T07:20:58Z</time>
      </trkpt>
      <trkpt lat="43.98427" lon="5.4156">
        <ele>938.3</ele>
        <time>2016-05-29T07:21:01Z</time>
      </trkpt>
      <trkpt lat="43.98419" lon="5.41563">
        <ele>939</ele>
        <time>2016-05-29T07:21:04Z</time>
      </trkpt>
      <trkpt lat="43.9841" lon="5.41566">
        <ele>939</ele>
        <time>2016-05-29T07:21:07Z</time>
      </trkpt>
      <trkpt lat="43.984" lon="5.4157">
        <ele>939</ele>
        <time>2016-05-29T07:21:11Z</time>
      </trkpt>
      <trkpt lat="43.98391" lon="5.41573">
        <ele>939</ele>
        <time>2016-05-29T07:21:15Z</time>
      </trkpt>
      <trkpt lat="43.98382" lon="5.41577">
        <ele>939</ele>
        <time>2016-05-29T07:21:18Z</time>
      </trkpt>
      <trkpt lat="43.98371" lon="5.41581">
        <ele>940</ele>
        <time>2016-05-29T07:21:22Z</time>
      </trkpt>
      <trkpt lat="43.98361" lon="5.41584">
        <ele>940</ele>
        <time>2016-05-29T07:21:25Z</time>
      </trkpt>
      <trkpt lat="43.98353" lon="5.41586">
        <ele>940</ele>
        <time>2016-05-29T07:21:28Z</time>
      </trkpt>
      <trkpt lat="43.98343" lon="5.4159">
        <ele>940.6</ele>
        <time>2016-05-29T07:21:31Z</time>
      </trkpt>
      <trkpt lat="43.98331" lon="5.41594">
        <ele>941</ele>
        <time>2016-05-29T07:21:35Z</time>
      </trkpt>
      <trkpt lat="43.98319" lon="5.41599">
        <ele>941</ele>
        <time>2016-05-29T07:21:39Z</time>
      </trkpt>
      <trkpt lat="43.98308" lon="5.41605">
        <ele>941</ele>
        <time>2016-05-29T07:21:42Z</time>
      </trkpt>
      <trkpt lat="43.98296" lon="5.4161">
        <ele>941</ele>
        <time>2016-05-29T07:21:45Z</time>
      </trkpt>
      <trkpt lat="43.98286" lon="5.41615">
        <ele>941</ele>
        <time>2016-05-29T07:21:47Z</time>
      </trkpt>
      <trkpt lat="43.98276" lon="5.41621">
        <ele>941</ele>
        <time>2016-05-29T07:21:49Z</time>
      </trkpt>
      <trkpt lat="43.98266" lon="5.4163">
        <ele>940.4</ele>
        <time>2016-05-29T07:21:51Z</time>
      </trkpt>
      <trkpt lat="43.98257" lon="5.41638">
        <ele>940</ele>
        <time>2016-05-29T07:21:53Z</time>
      </trkpt>
      <trkpt lat="43.98249" lon="5.41649">
        <ele>940</ele>
        <time>2016-05-29T07:21:55Z</time>
      </trkpt>
      <trkpt lat="43.9824" lon="5.4166">
        <ele>940</ele>
        <time>2016-05-29T07:21:57Z</time>
      </trkpt>
      <trkpt lat="43.98232" lon="5.41667">
        <ele>940</ele>
        <time>2016-05-29T07:21:59Z</time>
      </trkpt>
      <trkpt lat="43.98225" lon="5.41677">
        <ele>937.4</ele>
        <time>2016-05-29T07:22:01Z</time>
      </trkpt>
      <trkpt lat="43.98219" lon="5.41687">
        <ele>936</ele>
        <time>2016-05-29T07:22:03Z</time>
      </trkpt>
      <trkpt lat="43.9821" lon="5.41703">
        <ele>935.3</ele>
        <time>2016-05-29T07:22:06Z</time>
      </trkpt>
      <trkpt lat="43.98204" lon="5.41716">
        <ele>935</ele>
        <time>2016-05-29T07:22:08Z</time>
      </trkpt>
      <trkpt lat="43.98196" lon="5.41727">
        <ele>935</ele>
        <time>2016-05-29T07:22:10Z</time>
      </trkpt>
      <trkpt lat="43.98189" lon="5.41739">
        <ele>933</ele>
        <time>2016-05-29T07:22:12Z</time>
      </trkpt>
      <trkpt lat="43.98181" lon="5.41752">
        <ele>933</ele>
        <time>2016-05-29T07:22:14Z</time>
      </trkpt>
      <trkpt lat="43.98173" lon="5.41764">
        <ele>932.3</ele>
        <time>2016-05-29T07:22:16Z</time>
      </trkpt>
      <trkpt lat="43.98166" lon="5.41776">
        <ele>933</ele>
        <time>2016-05-29T07:22:18Z</time>
      </trkpt>
      <trkpt lat="43.9816" lon="5.41788">
        <ele>933</ele>
        <time>2016-05-29T07:22:20Z</time>
      </trkpt>
      <trkpt lat="43.98156" lon="5.41799">
        <ele>932</ele>
        <time>2016-05-29T07:22:22Z</time>
      </trkpt>
      <trkpt lat="43.98149" lon="5.41814">
        <ele>932</ele>
        <time>2016-05-29T07:22:25Z</time>
      </trkpt>
      <trkpt lat="43.98139" lon="5.41823">
        <ele>932</ele>
        <time>2016-05-29T07:22:29Z</time>
      </trkpt>
      <trkpt lat="43.98134" lon="5.41824">
        <ele>932</ele>
        <time>2016-05-29T07:24:18Z</time>
      </trkpt>
      <trkpt lat="43.98124" lon="5.41814">
        <ele>928</ele>
        <time>2016-05-29T07:32:44Z</time>
      </trkpt>
      <trkpt lat="43.98114" lon="5.41805">
        <ele>928</ele>
        <time>2016-05-29T07:32:46Z</time>
      </trkpt>
      <trkpt lat="43.98103" lon="5.41806">
        <ele>928</ele>
        <time>2016-05-29T07:32:49Z</time>
      </trkpt>
      <trkpt lat="43.9809" lon="5.41811">
        <ele>924</ele>
        <time>2016-05-29T07:32:53Z</time>
      </trkpt>
      <trkpt lat="43.98078" lon="5.4181">
        <ele>922</ele>
        <time>2016-05-29T07:32:56Z</time>
      </trkpt>
      <trkpt lat="43.98072" lon="5.41795">
        <ele>921</ele>
        <time>2016-05-29T07:33:00Z</time>
      </trkpt>
      <trkpt lat="43.9806" lon="5.41787">
        <ele>909.4</ele>
        <time>2016-05-29T07:33:03Z</time>
      </trkpt>
      <trkpt lat="43.98052" lon="5.41776">
        <ele>906.3</ele>
        <time>2016-05-29T07:33:06Z</time>
      </trkpt>
      <trkpt lat="43.98041" lon="5.41772">
        <ele>905</ele>
        <time>2016-05-29T07:33:09Z</time>
      </trkpt>
      <trkpt lat="43.98028" lon="5.41766">
        <ele>902.1</ele>
        <time>2016-05-29T07:33:11Z</time>
      </trkpt>
      <trkpt lat="43.98018" lon="5.41755">
        <ele>896.7</ele>
        <time>2016-05-29T07:33:13Z</time>
      </trkpt>
      <trkpt lat="43.98007" lon="5.41751">
        <ele>894.4</ele>
        <time>2016-05-29T07:33:15Z</time>
      </trkpt>
      <trkpt lat="43.97997" lon="5.41745">
        <ele>891.4</ele>
        <time>2016-05-29T07:33:17Z</time>
      </trkpt>
      <trkpt lat="43.97985" lon="5.41739">
        <ele>889.4</ele>
        <time>2016-05-29T07:33:19Z</time>
      </trkpt>
      <trkpt lat="43.97973" lon="5.41732">
        <ele>888.4</ele>
        <time>2016-05-29T07:33:21Z</time>
      </trkpt>
      <trkpt lat="43.97967" lon="5.41724">
        <ele>884.7</ele>
        <time>2016-05-29T07:33:23Z</time>
      </trkpt>
      <trkpt lat="43.97968" lon="5.41711">
        <ele>879.3</ele>
        <time>2016-05-29T07:33:26Z</time>
      </trkpt>
      <trkpt lat="43.97978" lon="5.41705">
        <ele>877.3</ele>
        <time>2016-05-29T07:33:28Z</time>
      </trkpt>
      <trkpt lat="43.97988" lon="5.41702">
        <ele>877</ele>
        <time>2016-05-29T07:33:30Z</time>
      </trkpt>
      <trkpt lat="43.97998" lon="5.41701">
        <ele>876.3</ele>
        <time>2016-05-29T07:33:32Z</time>
      </trkpt>
      <trkpt lat="43.98008" lon="5.41696">
        <ele>876.3</ele>
        <time>2016-05-29T07:33:34Z</time>
      </trkpt>
      <trkpt lat="43.98019" lon="5.41686">
        <ele>873</ele>
        <time>2016-05-29T07:33:37Z</time>
      </trkpt>
      <trkpt lat="43.98029" lon="5.41671">
        <ele>871.3</ele>
        <time>2016-05-29T07:33:40Z</time>
      </trkpt>
      <trkpt lat="43.98039" lon="5.41656">
        <ele>867.4</ele>
        <time>2016-05-29T07:33:43Z</time>
      </trkpt>
      <trkpt lat="43.98046" lon="5.41642">
        <ele>864.7</ele>
        <time>2016-05-29T07:33:46Z</time>
      </trkpt>
      <trkpt lat="43.98036" lon="5.41633">
        <ele>858.3</ele>
        <time>2016-05-29T07:33:50Z</time>
      </trkpt>
      <trkpt lat="43.98023" lon="5.41626">
        <ele>856.4</ele>
        <time>2016-05-29T07:33:53Z</time>
      </trkpt>
      <trkpt lat="43.98014" lon="5.41619">
        <ele>852.7</ele>
        <time>2016-05-29T07:33:55Z</time>
      </trkpt>
      <trkpt lat="43.98006" lon="5.41607">
        <ele>848.3</ele>
        <time>2016-05-29T07:33:58Z</time>
      </trkpt>
      <trkpt lat="43.98012" lon="5.41595">
        <ele>844.7</ele>
        <time>2016-05-29T07:34:01Z</time>
      </trkpt>
      <trkpt lat="43.98" lon="5.41586">
        <ele>841</ele>
        <time>2016-05-29T07:34:04Z</time>
      </trkpt>
      <trkpt lat="43.97994" lon="5.41569">
        <ele>834.1</ele>
        <time>2016-05-29T07:34:07Z</time>
      </trkpt>
      <trkpt lat="43.97993" lon="5.41552">
        <ele>828.3</ele>
        <time>2016-05-29T07:34:10Z</time>
      </trkpt>
      <trkpt lat="43.97987" lon="5.4154">
        <ele>826.4</ele>
        <time>2016-05-29T07:34:13Z</time>
      </trkpt>
      <trkpt lat="43.97977" lon="5.41535">
        <ele>822.7</ele>
        <time>2016-05-29T07:34:16Z</time>
      </trkpt>
      <trkpt lat="43.97973" lon="5.41519">
        <ele>813.7</ele>
        <time>2016-05-29T07:34:23Z</time>
      </trkpt>
      <trkpt lat="43.97972" lon="5.41501">
        <ele>810.7</ele>
        <time>2016-05-29T07:34:25Z</time>
      </trkpt>
      <trkpt lat="43.97968" lon="5.41486">
        <ele>809.4</ele>
        <time>2016-05-29T07:34:27Z</time>
      </trkpt>
      <trkpt lat="43.97961" lon="5.41474">
        <ele>806.4</ele>
        <time>2016-05-29T07:34:29Z</time>
      </trkpt>
      <trkpt lat="43.97954" lon="5.41458">
        <ele>801.7</ele>
        <time>2016-05-29T07:34:31Z</time>
      </trkpt>
      <trkpt lat="43.97948" lon="5.41443">
        <ele>799.4</ele>
        <time>2016-05-29T07:34:33Z</time>
      </trkpt>
      <trkpt lat="43.97946" lon="5.41425">
        <ele>796.7</ele>
        <time>2016-05-29T07:34:35Z</time>
      </trkpt>
      <trkpt lat="43.97947" lon="5.41402">
        <ele>793.7</ele>
        <time>2016-05-29T07:34:37Z</time>
      </trkpt>
      <trkpt lat="43.97948" lon="5.41386">
        <ele>790.7</ele>
        <time>2016-05-29T07:34:39Z</time>
      </trkpt>
      <trkpt lat="43.97943" lon="5.41398">
        <ele>784</ele>
        <time>2016-05-29T07:34:46Z</time>
      </trkpt>
      <trkpt lat="43.97937" lon="5.41411">
        <ele>781.7</ele>
        <time>2016-05-29T07:34:49Z</time>
      </trkpt>
      <trkpt lat="43.97928" lon="5.41422">
        <ele>779</ele>
        <time>2016-05-29T07:34:52Z</time>
      </trkpt>
      <trkpt lat="43.97918" lon="5.41436">
        <ele>779</ele>
        <time>2016-05-29T07:34:55Z</time>
      </trkpt>
      <trkpt lat="43.9791" lon="5.41449">
        <ele>777.3</ele>
        <time>2016-05-29T07:34:58Z</time>
      </trkpt>
      <trkpt lat="43.97901" lon="5.41454">
        <ele>775.3</ele>
        <time>2016-05-29T07:35:00Z</time>
      </trkpt>
      <trkpt lat="43.9789" lon="5.41461">
        <ele>773.4</ele>
        <time>2016-05-29T07:35:03Z</time>
      </trkpt>
      <trkpt lat="43.97877" lon="5.41472">
        <ele>770.4</ele>
        <time>2016-05-29T07:35:06Z</time>
      </trkpt>
      <trkpt lat="43.97868" lon="5.4148">
        <ele>770</ele>
        <time>2016-05-29T07:35:08Z</time>
      </trkpt>
      <trkpt lat="43.97857" lon="5.41491">
        <ele>767.7</ele>
        <time>2016-05-29T07:35:10Z</time>
      </trkpt>
      <trkpt lat="43.97844" lon="5.41497">
        <ele>765.3</ele>
        <time>2016-05-29T07:35:12Z</time>
      </trkpt>
      <trkpt lat="43.97835" lon="5.41504">
        <ele>763.7</ele>
        <time>2016-05-29T07:35:14Z</time>
      </trkpt>
      <trkpt lat="43.97823" lon="5.41516">
        <ele>761.4</ele>
        <time>2016-05-29T07:35:17Z</time>
      </trkpt>
      <trkpt lat="43.97817" lon="5.4153">
        <ele>760</ele>
        <time>2016-05-29T07:35:21Z</time>
      </trkpt>
      <trkpt lat="43.97806" lon="5.41535">
        <ele>756.3</ele>
        <time>2016-05-29T07:35:26Z</time>
      </trkpt>
      <trkpt lat="43.97793" lon="5.41542">
        <ele>756</ele>
        <time>2016-05-29T07:35:29Z</time>
      </trkpt>
      <trkpt lat="43.97779" lon="5.41554">
        <ele>754</ele>
        <time>2016-05-29T07:35:32Z</time>
      </trkpt>
      <trkpt lat="43.97767" lon="5.41558">
        <ele>753.3</ele>
        <time>2016-05-29T07:35:34Z</time>
      </trkpt>
      <trkpt lat="43.97755" lon="5.41559">
        <ele>752</ele>
        <time>2016-05-29T07:35:36Z</time>
      </trkpt>
      <trkpt lat="43.97743" lon="5.41557">
        <ele>748.4</ele>
        <time>2016-05-29T07:35:39Z</time>
      </trkpt>
      <trkpt lat="43.97731" lon="5.41564">
        <ele>747.3</ele>
        <time>2016-05-29T07:35:42Z</time>
      </trkpt>
      <trkpt lat="43.97722" lon="5.41574">
        <ele>746.3</ele>
        <time>2016-05-29T07:35:44Z</time>
      </trkpt>
      <trkpt lat="43.97714" lon="5.41585">
        <ele>744.3</ele>
        <time>2016-05-29T07:35:46Z</time>
      </trkpt>
      <trkpt lat="43.977" lon="5.41593">
        <ele>744</ele>
        <time>2016-05-29T07:35:49Z</time>
      </trkpt>
      <trkpt lat="43.9769" lon="5.41595">
        <ele>742.4</ele>
        <time>2016-05-29T07:35:51Z</time>
      </trkpt>
      <trkpt lat="43.97679" lon="5.41595">
        <ele>740.4</ele>
        <time>2016-05-29T07:35:53Z</time>
      </trkpt>
      <trkpt lat="43.97668" lon="5.41596">
        <ele>738.4</ele>
        <time>2016-05-29T07:35:55Z</time>
      </trkpt>
      <trkpt lat="43.97657" lon="5.41598">
        <ele>738</ele>
        <time>2016-05-29T07:35:57Z</time>
      </trkpt>
      <trkpt lat="43.97646" lon="5.41599">
        <ele>737</ele>
        <time>2016-05-29T07:35:59Z</time>
      </trkpt>
      <trkpt lat="43.97632" lon="5.41594">
        <ele>734.1</ele>
        <time>2016-05-29T07:36:01Z</time>
      </trkpt>
      <trkpt lat="43.97619" lon="5.41587">
        <ele>732.4</ele>
        <time>2016-05-29T07:36:03Z</time>
      </trkpt>
      <trkpt lat="43.97608" lon="5.41587">
        <ele>732</ele>
        <time>2016-05-29T07:36:05Z</time>
      </trkpt>
      <trkpt lat="43.97594" lon="5.4159">
        <ele>730.4</ele>
        <time>2016-05-29T07:36:07Z</time>
      </trkpt>
      <trkpt lat="43.97583" lon="5.41591">
        <ele>729</ele>
        <time>2016-05-29T07:36:09Z</time>
      </trkpt>
      <trkpt lat="43.97573" lon="5.41589">
        <ele>727.7</ele>
        <time>2016-05-29T07:36:11Z</time>
      </trkpt>
      <trkpt lat="43.97562" lon="5.4158">
        <ele>726.3</ele>
        <time>2016-05-29T07:36:14Z</time>
      </trkpt>
      <trkpt lat="43.97548" lon="5.41582">
        <ele>723.4</ele>
        <time>2016-05-29T07:36:17Z</time>
      </trkpt>
      <trkpt lat="43.97537" lon="5.41578">
        <ele>721</ele>
        <time>2016-05-29T07:36:20Z</time>
      </trkpt>
      <trkpt lat="43.97527" lon="5.41574">
        <ele>720</ele>
        <time>2016-05-29T07:36:22Z</time>
      </trkpt>
      <trkpt lat="43.97514" lon="5.41571">
        <ele>718.3</ele>
        <time>2016-05-29T07:36:24Z</time>
      </trkpt>
      <trkpt lat="43.97504" lon="5.41568">
        <ele>717.3</ele>
        <time>2016-05-29T07:36:26Z</time>
      </trkpt>
      <trkpt lat="43.97493" lon="5.41566">
        <ele>715.3</ele>
        <time>2016-05-29T07:36:28Z</time>
      </trkpt>
      <trkpt lat="43.97479" lon="5.41563">
        <ele>714.3</ele>
        <time>2016-05-29T07:36:30Z</time>
      </trkpt>
      <trkpt lat="43.97468" lon="5.41561">
        <ele>713.3</ele>
        <time>2016-05-29T07:36:32Z</time>
      </trkpt>
      <trkpt lat="43.97455" lon="5.41561">
        <ele>711</ele>
        <time>2016-05-29T07:36:35Z</time>
      </trkpt>
      <trkpt lat="43.97445" lon="5.41556">
        <ele>711</ele>
        <time>2016-05-29T07:36:38Z</time>
      </trkpt>
      <trkpt lat="43.97431" lon="5.41548">
        <ele>709.4</ele>
        <time>2016-05-29T07:36:41Z</time>
      </trkpt>
      <trkpt lat="43.9742" lon="5.41551">
        <ele>707.4</ele>
        <time>2016-05-29T07:36:43Z</time>
      </trkpt>
      <trkpt lat="43.97408" lon="5.41554">
        <ele>706</ele>
        <time>2016-05-29T07:36:45Z</time>
      </trkpt>
      <trkpt lat="43.97395" lon="5.41552">
        <ele>704.4</ele>
        <time>2016-05-29T07:36:47Z</time>
      </trkpt>
      <trkpt lat="43.97382" lon="5.41547">
        <ele>703</ele>
        <time>2016-05-29T07:36:49Z</time>
      </trkpt>
      <trkpt lat="43.97369" lon="5.41539">
        <ele>702</ele>
        <time>2016-05-29T07:36:51Z</time>
      </trkpt>
      <trkpt lat="43.97358" lon="5.4153">
        <ele>702</ele>
        <time>2016-05-29T07:36:53Z</time>
      </trkpt>
      <trkpt lat="43.97345" lon="5.41523">
        <ele>698.7</ele>
        <time>2016-05-29T07:36:55Z</time>
      </trkpt>
      <trkpt lat="43.97333" lon="5.4152">
        <ele>696.4</ele>
        <time>2016-05-29T07:36:57Z</time>
      </trkpt>
      <trkpt lat="43.97323" lon="5.41516">
        <ele>693.4</ele>
        <time>2016-05-29T07:36:59Z</time>
      </trkpt>
      <trkpt lat="43.97311" lon="5.41514">
        <ele>692.3</ele>
        <time>2016-05-29T07:37:02Z</time>
      </trkpt>
      <trkpt lat="43.97297" lon="5.41511">
        <ele>691</ele>
        <time>2016-05-29T07:37:05Z</time>
      </trkpt>
      <trkpt lat="43.97287" lon="5.41514">
        <ele>688</ele>
        <time>2016-05-29T07:37:08Z</time>
      </trkpt>
      <trkpt lat="43.97273" lon="5.41511">
        <ele>688</ele>
        <time>2016-05-29T07:37:11Z</time>
      </trkpt>
      <trkpt lat="43.97261" lon="5.41503">
        <ele>688</ele>
        <time>2016-05-29T07:37:13Z</time>
      </trkpt>
      <trkpt lat="43.97251" lon="5.41497">
        <ele>688</ele>
        <time>2016-05-29T07:37:15Z</time>
      </trkpt>
      <trkpt lat="43.9724" lon="5.41491">
        <ele>685</ele>
        <time>2016-05-29T07:37:17Z</time>
      </trkpt>
      <trkpt lat="43.97232" lon="5.41482">
        <ele>685</ele>
        <time>2016-05-29T07:37:19Z</time>
      </trkpt>
      <trkpt lat="43.97223" lon="5.41467">
        <ele>678.7</ele>
        <time>2016-05-29T07:37:22Z</time>
      </trkpt>
      <trkpt lat="43.9721" lon="5.41459">
        <ele>675.4</ele>
        <time>2016-05-29T07:37:25Z</time>
      </trkpt>
      <trkpt lat="43.97199" lon="5.41452">
        <ele>673.7</ele>
        <time>2016-05-29T07:37:27Z</time>
      </trkpt>
      <trkpt lat="43.97188" lon="5.41445">
        <ele>671.4</ele>
        <time>2016-05-29T07:37:29Z</time>
      </trkpt>
      <trkpt lat="43.9718" lon="5.41443">
        <ele>669.4</ele>
        <time>2016-05-29T07:37:31Z</time>
      </trkpt>
      <trkpt lat="43.97168" lon="5.41443">
        <ele>667.4</ele>
        <time>2016-05-29T07:37:33Z</time>
      </trkpt>
      <trkpt lat="43.97154" lon="5.4144">
        <ele>666.4</ele>
        <time>2016-05-29T07:37:35Z</time>
      </trkpt>
      <trkpt lat="43.97145" lon="5.41438">
        <ele>665.3</ele>
        <time>2016-05-29T07:37:36Z</time>
      </trkpt>
      <trkpt lat="43.97135" lon="5.41437">
        <ele>663.1</ele>
        <time>2016-05-29T07:37:37Z</time>
      </trkpt>
      <trkpt lat="43.97125" lon="5.41437">
        <ele>660.7</ele>
        <time>2016-05-29T07:37:38Z</time>
      </trkpt>
      <trkpt lat="43.97111" lon="5.41436">
        <ele>657</ele>
        <time>2016-05-29T07:37:40Z</time>
      </trkpt>
      <trkpt lat="43.97099" lon="5.41434">
        <ele>654.7</ele>
        <time>2016-05-29T07:37:42Z</time>
      </trkpt>
      <trkpt lat="43.97088" lon="5.41433">
        <ele>652.4</ele>
        <time>2016-05-29T07:37:45Z</time>
      </trkpt>
      <trkpt lat="43.97078" lon="5.41433">
        <ele>652.4</ele>
        <time>2016-05-29T07:37:47Z</time>
      </trkpt>
      <trkpt lat="43.97067" lon="5.41424">
        <ele>652</ele>
        <time>2016-05-29T07:37:49Z</time>
      </trkpt>
      <trkpt lat="43.97053" lon="5.41417">
        <ele>650.7</ele>
        <time>2016-05-29T07:37:51Z</time>
      </trkpt>
      <trkpt lat="43.97034" lon="5.41415">
        <ele>647.4</ele>
        <time>2016-05-29T07:37:53Z</time>
      </trkpt>
      <trkpt lat="43.97018" lon="5.41417">
        <ele>643.4</ele>
        <time>2016-05-29T07:37:55Z</time>
      </trkpt>
      <trkpt lat="43.97007" lon="5.41424">
        <ele>642</ele>
        <time>2016-05-29T07:37:57Z</time>
      </trkpt>
      <trkpt lat="43.96991" lon="5.41428">
        <ele>640.4</ele>
        <time>2016-05-29T07:37:59Z</time>
      </trkpt>
      <trkpt lat="43.96973" lon="5.41436">
        <ele>639.4</ele>
        <time>2016-05-29T07:38:01Z</time>
      </trkpt>
      <trkpt lat="43.96958" lon="5.41438">
        <ele>639</ele>
        <time>2016-05-29T07:38:03Z</time>
      </trkpt>
      <trkpt lat="43.96943" lon="5.41427">
        <ele>638.4</ele>
        <time>2016-05-29T07:38:05Z</time>
      </trkpt>
      <trkpt lat="43.96929" lon="5.4141">
        <ele>634.7</ele>
        <time>2016-05-29T07:38:07Z</time>
      </trkpt>
      <trkpt lat="43.96921" lon="5.414">
        <ele>632.7</ele>
        <time>2016-05-29T07:38:08Z</time>
      </trkpt>
      <trkpt lat="43.96914" lon="5.41389">
        <ele>631.4</ele>
        <time>2016-05-29T07:38:09Z</time>
      </trkpt>
      <trkpt lat="43.96906" lon="5.41378">
        <ele>629.7</ele>
        <time>2016-05-29T07:38:10Z</time>
      </trkpt>
      <trkpt lat="43.96897" lon="5.4137">
        <ele>628.4</ele>
        <time>2016-05-29T07:38:11Z</time>
      </trkpt>
      <trkpt lat="43.96887" lon="5.41363">
        <ele>627.3</ele>
        <time>2016-05-29T07:38:12Z</time>
      </trkpt>
      <trkpt lat="43.96871" lon="5.41353">
        <ele>627.7</ele>
        <time>2016-05-29T07:38:14Z</time>
      </trkpt>
      <trkpt lat="43.96855" lon="5.41347">
        <ele>626.3</ele>
        <time>2016-05-29T07:38:16Z</time>
      </trkpt>
      <trkpt lat="43.96838" lon="5.41346">
        <ele>624.7</ele>
        <time>2016-05-29T07:38:18Z</time>
      </trkpt>
      <trkpt lat="43.96826" lon="5.41346">
        <ele>623.4</ele>
        <time>2016-05-29T07:38:19Z</time>
      </trkpt>
      <trkpt lat="43.96814" lon="5.41344">
        <ele>621.7</ele>
        <time>2016-05-29T07:38:20Z</time>
      </trkpt>
      <trkpt lat="43.96801" lon="5.41342">
        <ele>619.1</ele>
        <time>2016-05-29T07:38:21Z</time>
      </trkpt>
      <trkpt lat="43.96789" lon="5.4134">
        <ele>615.4</ele>
        <time>2016-05-29T07:38:22Z</time>
      </trkpt>
      <trkpt lat="43.96778" lon="5.41337">
        <ele>612.1</ele>
        <time>2016-05-29T07:38:23Z</time>
      </trkpt>
      <trkpt lat="43.96767" lon="5.41333">
        <ele>609</ele>
        <time>2016-05-29T07:38:24Z</time>
      </trkpt>
      <trkpt lat="43.96757" lon="5.41331">
        <ele>604.8</ele>
        <time>2016-05-29T07:38:25Z</time>
      </trkpt>
      <trkpt lat="43.96747" lon="5.4133">
        <ele>601.7</ele>
        <time>2016-05-29T07:38:26Z</time>
      </trkpt>
      <trkpt lat="43.96731" lon="5.4133">
        <ele>597.7</ele>
        <time>2016-05-29T07:38:28Z</time>
      </trkpt>
      <trkpt lat="43.96717" lon="5.41325">
        <ele>594.3</ele>
        <time>2016-05-29T07:38:30Z</time>
      </trkpt>
      <trkpt lat="43.96707" lon="5.41321">
        <ele>591</ele>
        <time>2016-05-29T07:38:33Z</time>
      </trkpt>
      <trkpt lat="43.96692" lon="5.41311">
        <ele>589</ele>
        <time>2016-05-29T07:38:36Z</time>
      </trkpt>
      <trkpt lat="43.96682" lon="5.41302">
        <ele>589</ele>
        <time>2016-05-29T07:38:38Z</time>
      </trkpt>
      <trkpt lat="43.96674" lon="5.41292">
        <ele>588</ele>
        <time>2016-05-29T07:38:40Z</time>
      </trkpt>
      <trkpt lat="43.96665" lon="5.41284">
        <ele>588</ele>
        <time>2016-05-29T07:38:42Z</time>
      </trkpt>
      <trkpt lat="43.96658" lon="5.41273">
        <ele>588</ele>
        <time>2016-05-29T07:38:44Z</time>
      </trkpt>
      <trkpt lat="43.96649" lon="5.41263">
        <ele>585</ele>
        <time>2016-05-29T07:38:47Z</time>
      </trkpt>
      <trkpt lat="43.96641" lon="5.41255">
        <ele>585</ele>
        <time>2016-05-29T07:38:49Z</time>
      </trkpt>
      <trkpt lat="43.96641" lon="5.41241">
        <ele>582</ele>
        <time>2016-05-29T07:39:03Z</time>
      </trkpt>
      <trkpt lat="43.96636" lon="5.41229">
        <ele>582</ele>
        <time>2016-05-29T07:39:09Z</time>
      </trkpt>
      <trkpt lat="43.96629" lon="5.41217">
        <ele>583</ele>
        <time>2016-05-29T07:39:14Z</time>
      </trkpt>
      <trkpt lat="43.96619" lon="5.41209">
        <ele>583</ele>
        <time>2016-05-29T07:39:19Z</time>
      </trkpt>
      <trkpt lat="43.96607" lon="5.41202">
        <ele>583</ele>
        <time>2016-05-29T07:39:23Z</time>
      </trkpt>
      <trkpt lat="43.96596" lon="5.41196">
        <ele>583</ele>
        <time>2016-05-29T07:39:28Z</time>
      </trkpt>
      <trkpt lat="43.96587" lon="5.41189">
        <ele>584</ele>
        <time>2016-05-29T07:39:33Z</time>
      </trkpt>
      <trkpt lat="43.96577" lon="5.41182">
        <ele>584</ele>
        <time>2016-05-29T07:39:40Z</time>
      </trkpt>
      <trkpt lat="43.96567" lon="5.41177">
        <ele>584</ele>
        <time>2016-05-29T07:39:46Z</time>
      </trkpt>
      <trkpt lat="43.96557" lon="5.41178">
        <ele>584</ele>
        <time>2016-05-29T07:39:50Z</time>
      </trkpt>
      <trkpt lat="43.96545" lon="5.4118">
        <ele>582</ele>
        <time>2016-05-29T07:39:53Z</time>
      </trkpt>
      <trkpt lat="43.96532" lon="5.41182">
        <ele>582</ele>
        <time>2016-05-29T07:39:56Z</time>
      </trkpt>
      <trkpt lat="43.96525" lon="5.41183">
        <ele>582</ele>
        <time>2016-05-29T07:39:58Z</time>
      </trkpt>
      <trkpt lat="43.96514" lon="5.41182">
        <ele>578</ele>
        <time>2016-05-29T07:40:02Z</time>
      </trkpt>
      <trkpt lat="43.96508" lon="5.41172">
        <ele>578</ele>
        <time>2016-05-29T07:40:09Z</time>
      </trkpt>
      <trkpt lat="43.96499" lon="5.41162">
        <ele>580</ele>
        <time>2016-05-29T07:40:15Z</time>
      </trkpt>
      <trkpt lat="43.9649" lon="5.41155">
        <ele>580.6</ele>
        <time>2016-05-29T07:40:21Z</time>
      </trkpt>
      <trkpt lat="43.96488" lon="5.41153">
        <ele>581</ele>
        <time>2016-05-29T07:40:23Z</time>
      </trkpt>
      <trkpt lat="43.96485" lon="5.41151">
        <ele>581</ele>
        <time>2016-05-29T07:40:25Z</time>
      </trkpt>
      <trkpt lat="43.96482" lon="5.41148">
        <ele>581</ele>
        <time>2016-05-29T07:40:27Z</time>
      </trkpt>
      <trkpt lat="43.9648" lon="5.41146">
        <ele>581</ele>
        <time>2016-05-29T07:40:29Z</time>
      </trkpt>
      <trkpt lat="43.96477" lon="5.41143">
        <ele>582.3</ele>
        <time>2016-05-29T07:40:31Z</time>
      </trkpt>
      <trkpt lat="43.96474" lon="5.41142">
        <ele>583</ele>
        <time>2016-05-29T07:40:33Z</time>
      </trkpt>
      <trkpt lat="43.96471" lon="5.41139">
        <ele>583</ele>
        <time>2016-05-29T07:40:35Z</time>
      </trkpt>
      <trkpt lat="43.96468" lon="5.41137">
        <ele>583</ele>
        <time>2016-05-29T07:40:37Z</time>
      </trkpt>
      <trkpt lat="43.96465" lon="5.41134">
        <ele>583</ele>
        <time>2016-05-29T07:40:39Z</time>
      </trkpt>
      <trkpt lat="43.96457" lon="5.41131">
        <ele>584</ele>
        <time>2016-05-29T07:40:43Z</time>
      </trkpt>
      <trkpt lat="43.96455" lon="5.41129">
        <ele>584</ele>
        <time>2016-05-29T07:40:44Z</time>
      </trkpt>
      <trkpt lat="43.96454" lon="5.41128">
        <ele>584</ele>
        <time>2016-05-29T07:40:45Z</time>
      </trkpt>
      <trkpt lat="43.96452" lon="5.41127">
        <ele>584</ele>
        <time>2016-05-29T07:40:46Z</time>
      </trkpt>
      <trkpt lat="43.9645" lon="5.41126">
        <ele>584</ele>
        <time>2016-05-29T07:40:47Z</time>
      </trkpt>
      <trkpt lat="43.96448" lon="5.41125">
        <ele>584</ele>
        <time>2016-05-29T07:40:48Z</time>
      </trkpt>
      <trkpt lat="43.96446" lon="5.41124">
        <ele>584</ele>
        <time>2016-05-29T07:40:49Z</time>
      </trkpt>
      <trkpt lat="43.96437" lon="5.4112">
        <ele>585</ele>
        <time>2016-05-29T07:40:53Z</time>
      </trkpt>
      <trkpt lat="43.9643" lon="5.41115">
        <ele>585</ele>
        <time>2016-05-29T07:40:57Z</time>
      </trkpt>
      <trkpt lat="43.96423" lon="5.41109">
        <ele>586</ele>
        <time>2016-05-29T07:41:03Z</time>
      </trkpt>
      <trkpt lat="43.96417" lon="5.41101">
        <ele>587</ele>
        <time>2016-05-29T07:41:13Z</time>
      </trkpt>
      <trkpt lat="43.9641" lon="5.41093">
        <ele>589</ele>
        <time>2016-05-29T07:41:24Z</time>
      </trkpt>
      <trkpt lat="43.96403" lon="5.4109">
        <ele>590</ele>
        <time>2016-05-29T07:41:33Z</time>
      </trkpt>
      <trkpt lat="43.96394" lon="5.41083">
        <ele>592</ele>
        <time>2016-05-29T07:41:43Z</time>
      </trkpt>
      <trkpt lat="43.96388" lon="5.4108">
        <ele>592</ele>
        <time>2016-05-29T07:41:50Z</time>
      </trkpt>
      <trkpt lat="43.96383" lon="5.41079">
        <ele>593</ele>
        <time>2016-05-29T07:41:54Z</time>
      </trkpt>
      <trkpt lat="43.96378" lon="5.41077">
        <ele>593</ele>
        <time>2016-05-29T07:41:58Z</time>
      </trkpt>
      <trkpt lat="43.96373" lon="5.41077">
        <ele>593.6</ele>
        <time>2016-05-29T07:42:01Z</time>
      </trkpt>
      <trkpt lat="43.96366" lon="5.41076">
        <ele>594</ele>
        <time>2016-05-29T07:42:04Z</time>
      </trkpt>
      <trkpt lat="43.96358" lon="5.41077">
        <ele>594</ele>
        <time>2016-05-29T07:42:08Z</time>
      </trkpt>
      <trkpt lat="43.96352" lon="5.41078">
        <ele>594</ele>
        <time>2016-05-29T07:42:12Z</time>
      </trkpt>
      <trkpt lat="43.96348" lon="5.41071">
        <ele>594</ele>
        <time>2016-05-29T07:42:17Z</time>
      </trkpt>
      <trkpt lat="43.96343" lon="5.41066">
        <ele>594</ele>
        <time>2016-05-29T07:42:24Z</time>
      </trkpt>
      <trkpt lat="43.96336" lon="5.41062">
        <ele>596</ele>
        <time>2016-05-29T07:42:34Z</time>
      </trkpt>
      <trkpt lat="43.9633" lon="5.4105">
        <ele>598</ele>
        <time>2016-05-29T07:42:48Z</time>
      </trkpt>
      <trkpt lat="43.96326" lon="5.41039">
        <ele>599</ele>
        <time>2016-05-29T07:43:00Z</time>
      </trkpt>
      <trkpt lat="43.96323" lon="5.41026">
        <ele>600</ele>
        <time>2016-05-29T07:43:30Z</time>
      </trkpt>
      <trkpt lat="43.96317" lon="5.41014">
        <ele>600</ele>
        <time>2016-05-29T07:43:39Z</time>
      </trkpt>
      <trkpt lat="43.96314" lon="5.41002">
        <ele>602</ele>
        <time>2016-05-29T07:43:47Z</time>
      </trkpt>
      <trkpt lat="43.96311" lon="5.40989">
        <ele>603</ele>
        <time>2016-05-29T07:43:57Z</time>
      </trkpt>
      <trkpt lat="43.96304" lon="5.40978">
        <ele>604</ele>
        <time>2016-05-29T07:44:06Z</time>
      </trkpt>
      <trkpt lat="43.96298" lon="5.40965">
        <ele>604</ele>
        <time>2016-05-29T07:44:15Z</time>
      </trkpt>
      <trkpt lat="43.96292" lon="5.40957">
        <ele>604</ele>
        <time>2016-05-29T07:44:19Z</time>
      </trkpt>
      <trkpt lat="43.96284" lon="5.40948">
        <ele>605</ele>
        <time>2016-05-29T07:44:23Z</time>
      </trkpt>
      <trkpt lat="43.96276" lon="5.40938">
        <ele>605</ele>
        <time>2016-05-29T07:44:27Z</time>
      </trkpt>
      <trkpt lat="43.96268" lon="5.40927">
        <ele>605</ele>
        <time>2016-05-29T07:44:32Z</time>
      </trkpt>
      <trkpt lat="43.9626" lon="5.40918">
        <ele>605</ele>
        <time>2016-05-29T07:44:36Z</time>
      </trkpt>
      <trkpt lat="43.96251" lon="5.40911">
        <ele>605</ele>
        <time>2016-05-29T07:44:39Z</time>
      </trkpt>
      <trkpt lat="43.96243" lon="5.40901">
        <ele>605</ele>
        <time>2016-05-29T07:44:42Z</time>
      </trkpt>
      <trkpt lat="43.96232" lon="5.40892">
        <ele>605</ele>
        <time>2016-05-29T07:44:45Z</time>
      </trkpt>
      <trkpt lat="43.96224" lon="5.40885">
        <ele>605</ele>
        <time>2016-05-29T07:44:47Z</time>
      </trkpt>
      <trkpt lat="43.96215" lon="5.40878">
        <ele>605</ele>
        <time>2016-05-29T07:44:49Z</time>
      </trkpt>
      <trkpt lat="43.96206" lon="5.40871">
        <ele>603.1</ele>
        <time>2016-05-29T07:44:51Z</time>
      </trkpt>
      <trkpt lat="43.96197" lon="5.40861">
        <ele>602</ele>
        <time>2016-05-29T07:44:53Z</time>
      </trkpt>
      <trkpt lat="43.96189" lon="5.40853">
        <ele>602</ele>
        <time>2016-05-29T07:44:55Z</time>
      </trkpt>
      <trkpt lat="43.96184" lon="5.40843">
        <ele>600</ele>
        <time>2016-05-29T07:44:57Z</time>
      </trkpt>
      <trkpt lat="43.96177" lon="5.40835">
        <ele>600</ele>
        <time>2016-05-29T07:44:59Z</time>
      </trkpt>
      <trkpt lat="43.96168" lon="5.40827">
        <ele>598.1</ele>
        <time>2016-05-29T07:45:01Z</time>
      </trkpt>
      <trkpt lat="43.9616" lon="5.40816">
        <ele>597</ele>
        <time>2016-05-29T07:45:03Z</time>
      </trkpt>
      <trkpt lat="43.96152" lon="5.40807">
        <ele>597</ele>
        <time>2016-05-29T07:45:05Z</time>
      </trkpt>
      <trkpt lat="43.96145" lon="5.40797">
        <ele>597</ele>
        <time>2016-05-29T07:45:07Z</time>
      </trkpt>
      <trkpt lat="43.96134" lon="5.40783">
        <ele>597</ele>
        <time>2016-05-29T07:45:10Z</time>
      </trkpt>
      <trkpt lat="43.96124" lon="5.40773">
        <ele>596</ele>
        <time>2016-05-29T07:45:12Z</time>
      </trkpt>
      <trkpt lat="43.96115" lon="5.40765">
        <ele>596</ele>
        <time>2016-05-29T07:45:14Z</time>
      </trkpt>
      <trkpt lat="43.96105" lon="5.40757">
        <ele>596</ele>
        <time>2016-05-29T07:45:16Z</time>
      </trkpt>
      <trkpt lat="43.96101" lon="5.40753">
        <ele>596</ele>
        <time>2016-05-29T07:45:17Z</time>
      </trkpt>
      <trkpt lat="43.96093" lon="5.40745">
        <ele>596</ele>
        <time>2016-05-29T07:45:19Z</time>
      </trkpt>
      <trkpt lat="43.96083" lon="5.40735">
        <ele>595</ele>
        <time>2016-05-29T07:45:22Z</time>
      </trkpt>
      <trkpt lat="43.96078" lon="5.40724">
        <ele>595</ele>
        <time>2016-05-29T07:45:26Z</time>
      </trkpt>
      <trkpt lat="43.96082" lon="5.40719">
        <ele>596</ele>
        <time>2016-05-29T07:45:32Z</time>
      </trkpt>
      <trkpt lat="43.96088" lon="5.40718">
        <ele>596</ele>
        <time>2016-05-29T07:46:49Z</time>
      </trkpt>
      <trkpt lat="43.96095" lon="5.40719">
        <ele>597</ele>
        <time>2016-05-29T07:46:56Z</time>
      </trkpt>
      <trkpt lat="43.96101" lon="5.40718">
        <ele>597</ele>
        <time>2016-05-29T07:47:00Z</time>
      </trkpt>
      <trkpt lat="43.96108" lon="5.40718">
        <ele>598</ele>
        <time>2016-05-29T07:47:05Z</time>
      </trkpt>
      <trkpt lat="43.96115" lon="5.40718">
        <ele>598</ele>
        <time>2016-05-29T07:47:10Z</time>
      </trkpt>
      <trkpt lat="43.96121" lon="5.40718">
        <ele>599</ele>
        <time>2016-05-29T07:47:14Z</time>
      </trkpt>
      <trkpt lat="43.96126" lon="5.40719">
        <ele>599</ele>
        <time>2016-05-29T07:47:18Z</time>
      </trkpt>
      <trkpt lat="43.96134" lon="5.4072">
        <ele>601</ele>
        <time>2016-05-29T07:47:23Z</time>
      </trkpt>
      <trkpt lat="43.9614" lon="5.40721">
        <ele>601</ele>
        <time>2016-05-29T07:47:27Z</time>
      </trkpt>
      <trkpt lat="43.96148" lon="5.40723">
        <ele>603</ele>
        <time>2016-05-29T07:47:32Z</time>
      </trkpt>
      <trkpt lat="43.96156" lon="5.40725">
        <ele>603</ele>
        <time>2016-05-29T07:47:37Z</time>
      </trkpt>
      <trkpt lat="43.96163" lon="5.40727">
        <ele>605</ele>
        <time>2016-05-29T07:47:42Z</time>
      </trkpt>
      <trkpt lat="43.96169" lon="5.40729">
        <ele>605</ele>
        <time>2016-05-29T07:47:46Z</time>
      </trkpt>
      <trkpt lat="43.96174" lon="5.40731">
        <ele>605</ele>
        <time>2016-05-29T07:47:50Z</time>
      </trkpt>
      <trkpt lat="43.9618" lon="5.40733">
        <ele>607</ele>
        <time>2016-05-29T07:47:55Z</time>
      </trkpt>
      <trkpt lat="43.96185" lon="5.40734">
        <ele>607</ele>
        <time>2016-05-29T07:47:59Z</time>
      </trkpt>
      <trkpt lat="43.96192" lon="5.40735">
        <ele>609</ele>
        <time>2016-05-29T07:48:04Z</time>
      </trkpt>
      <trkpt lat="43.96198" lon="5.40737">
        <ele>610</ele>
        <time>2016-05-29T07:48:09Z</time>
      </trkpt>
      <trkpt lat="43.96205" lon="5.40738">
        <ele>612</ele>
        <time>2016-05-29T07:48:14Z</time>
      </trkpt>
      <trkpt lat="43.96211" lon="5.40739">
        <ele>612</ele>
        <time>2016-05-29T07:48:18Z</time>
      </trkpt>
      <trkpt lat="43.96216" lon="5.40739">
        <ele>613</ele>
        <time>2016-05-29T07:48:22Z</time>
      </trkpt>
      <trkpt lat="43.96222" lon="5.40739">
        <ele>613</ele>
        <time>2016-05-29T07:48:26Z</time>
      </trkpt>
      <trkpt lat="43.96228" lon="5.40739">
        <ele>614.9</ele>
        <time>2016-05-29T07:48:31Z</time>
      </trkpt>
      <trkpt lat="43.96233" lon="5.40739">
        <ele>616</ele>
        <time>2016-05-29T07:48:35Z</time>
      </trkpt>
      <trkpt lat="43.96237" lon="5.4074">
        <ele>617</ele>
        <time>2016-05-29T07:48:39Z</time>
      </trkpt>
      <trkpt lat="43.96242" lon="5.4074">
        <ele>617</ele>
        <time>2016-05-29T07:48:43Z</time>
      </trkpt>
      <trkpt lat="43.96248" lon="5.4074">
        <ele>617</ele>
        <time>2016-05-29T07:48:48Z</time>
      </trkpt>
      <trkpt lat="43.96252" lon="5.4074">
        <ele>619</ele>
        <time>2016-05-29T07:48:52Z</time>
      </trkpt>
      <trkpt lat="43.96256" lon="5.40739">
        <ele>619</ele>
        <time>2016-05-29T07:48:55Z</time>
      </trkpt>
      <trkpt lat="43.96261" lon="5.40739">
        <ele>619</ele>
        <time>2016-05-29T07:48:59Z</time>
      </trkpt>
      <trkpt lat="43.96269" lon="5.40739">
        <ele>623</ele>
        <time>2016-05-29T07:49:05Z</time>
      </trkpt>
      <trkpt lat="43.96274" lon="5.40741">
        <ele>624</ele>
        <time>2016-05-29T07:49:09Z</time>
      </trkpt>
      <trkpt lat="43.96277" lon="5.40743">
        <ele>625</ele>
        <time>2016-05-29T07:49:12Z</time>
      </trkpt>
      <trkpt lat="43.96281" lon="5.40748">
        <ele>625</ele>
        <time>2016-05-29T07:49:16Z</time>
      </trkpt>
      <trkpt lat="43.96284" lon="5.40753">
        <ele>625</ele>
        <time>2016-05-29T07:49:20Z</time>
      </trkpt>
      <trkpt lat="43.96287" lon="5.40758">
        <ele>626</ele>
        <time>2016-05-29T07:49:24Z</time>
      </trkpt>
      <trkpt lat="43.9629" lon="5.40766">
        <ele>626</ele>
        <time>2016-05-29T07:49:29Z</time>
      </trkpt>
      <trkpt lat="43.96292" lon="5.40775">
        <ele>628</ele>
        <time>2016-05-29T07:49:35Z</time>
      </trkpt>
      <trkpt lat="43.96295" lon="5.40781">
        <ele>628</ele>
        <time>2016-05-29T07:49:39Z</time>
      </trkpt>
      <trkpt lat="43.96299" lon="5.40786">
        <ele>629</ele>
        <time>2016-05-29T07:49:43Z</time>
      </trkpt>
      <trkpt lat="43.96303" lon="5.4079">
        <ele>629</ele>
        <time>2016-05-29T07:49:47Z</time>
      </trkpt>
      <trkpt lat="43.9631" lon="5.40796">
        <ele>632</ele>
        <time>2016-05-29T07:49:53Z</time>
      </trkpt>
      <trkpt lat="43.96317" lon="5.40802">
        <ele>634</ele>
        <time>2016-05-29T07:49:59Z</time>
      </trkpt>
      <trkpt lat="43.96321" lon="5.40805">
        <ele>634</ele>
        <time>2016-05-29T07:50:03Z</time>
      </trkpt>
      <trkpt lat="43.96328" lon="5.4081">
        <ele>635</ele>
        <time>2016-05-29T07:50:09Z</time>
      </trkpt>
      <trkpt lat="43.96334" lon="5.40813">
        <ele>636</ele>
        <time>2016-05-29T07:50:14Z</time>
      </trkpt>
      <trkpt lat="43.96339" lon="5.40817">
        <ele>636</ele>
        <time>2016-05-29T07:50:19Z</time>
      </trkpt>
      <trkpt lat="43.96345" lon="5.4082">
        <ele>638</ele>
        <time>2016-05-29T07:50:24Z</time>
      </trkpt>
      <trkpt lat="43.96351" lon="5.40824">
        <ele>638</ele>
        <time>2016-05-29T07:50:29Z</time>
      </trkpt>
      <trkpt lat="43.96357" lon="5.40828">
        <ele>640</ele>
        <time>2016-05-29T07:50:34Z</time>
      </trkpt>
      <trkpt lat="43.96362" lon="5.40831">
        <ele>640</ele>
        <time>2016-05-29T07:50:38Z</time>
      </trkpt>
      <trkpt lat="43.96366" lon="5.40834">
        <ele>642</ele>
        <time>2016-05-29T07:50:42Z</time>
      </trkpt>
      <trkpt lat="43.96372" lon="5.40837">
        <ele>642</ele>
        <time>2016-05-29T07:50:47Z</time>
      </trkpt>
      <trkpt lat="43.96378" lon="5.4084">
        <ele>643</ele>
        <time>2016-05-29T07:50:52Z</time>
      </trkpt>
      <trkpt lat="43.96384" lon="5.40843">
        <ele>643</ele>
        <time>2016-05-29T07:50:57Z</time>
      </trkpt>
      <trkpt lat="43.96388" lon="5.40845">
        <ele>644.3</ele>
        <time>2016-05-29T07:51:01Z</time>
      </trkpt>
      <trkpt lat="43.96393" lon="5.40848">
        <ele>645</ele>
        <time>2016-05-29T07:51:05Z</time>
      </trkpt>
      <trkpt lat="43.96398" lon="5.4085">
        <ele>645</ele>
        <time>2016-05-29T07:51:09Z</time>
      </trkpt>
      <trkpt lat="43.96404" lon="5.40853">
        <ele>647</ele>
        <time>2016-05-29T07:51:14Z</time>
      </trkpt>
      <trkpt lat="43.96409" lon="5.40855">
        <ele>647</ele>
        <time>2016-05-29T07:51:18Z</time>
      </trkpt>
      <trkpt lat="43.96414" lon="5.40857">
        <ele>649</ele>
        <time>2016-05-29T07:51:22Z</time>
      </trkpt>
      <trkpt lat="43.96418" lon="5.40859">
        <ele>649</ele>
        <time>2016-05-29T07:51:25Z</time>
      </trkpt>
      <trkpt lat="43.96421" lon="5.4086">
        <ele>649</ele>
        <time>2016-05-29T07:51:28Z</time>
      </trkpt>
      <trkpt lat="43.96426" lon="5.40862">
        <ele>651</ele>
        <time>2016-05-29T07:51:32Z</time>
      </trkpt>
      <trkpt lat="43.96431" lon="5.40863">
        <ele>651</ele>
        <time>2016-05-29T07:51:36Z</time>
      </trkpt>
      <trkpt lat="43.96436" lon="5.40865">
        <ele>651</ele>
        <time>2016-05-29T07:51:40Z</time>
      </trkpt>
      <trkpt lat="43.9644" lon="5.40868">
        <ele>653</ele>
        <time>2016-05-29T07:51:45Z</time>
      </trkpt>
      <trkpt lat="43.96445" lon="5.40869">
        <ele>654</ele>
        <time>2016-05-29T07:51:49Z</time>
      </trkpt>
      <trkpt lat="43.9645" lon="5.40871">
        <ele>656</ele>
        <time>2016-05-29T07:51:53Z</time>
      </trkpt>
      <trkpt lat="43.96455" lon="5.40872">
        <ele>656</ele>
        <time>2016-05-29T07:51:57Z</time>
      </trkpt>
      <trkpt lat="43.9646" lon="5.40874">
        <ele>657.3</ele>
        <time>2016-05-29T07:52:01Z</time>
      </trkpt>
      <trkpt lat="43.96463" lon="5.40876">
        <ele>658</ele>
        <time>2016-05-29T07:52:04Z</time>
      </trkpt>
      <trkpt lat="43.96468" lon="5.40879">
        <ele>658</ele>
        <time>2016-05-29T07:52:08Z</time>
      </trkpt>
      <trkpt lat="43.96473" lon="5.40881">
        <ele>660</ele>
        <time>2016-05-29T07:52:12Z</time>
      </trkpt>
      <trkpt lat="43.96477" lon="5.40884">
        <ele>660</ele>
        <time>2016-05-29T07:52:16Z</time>
      </trkpt>
      <trkpt lat="43.96481" lon="5.40886">
        <ele>660</ele>
        <time>2016-05-29T07:52:19Z</time>
      </trkpt>
      <trkpt lat="43.96485" lon="5.40888">
        <ele>662</ele>
        <time>2016-05-29T07:52:22Z</time>
      </trkpt>
      <trkpt lat="43.96489" lon="5.4089">
        <ele>662</ele>
        <time>2016-05-29T07:52:26Z</time>
      </trkpt>
      <trkpt lat="43.96495" lon="5.40894">
        <ele>662.6</ele>
        <time>2016-05-29T07:52:31Z</time>
      </trkpt>
      <trkpt lat="43.965" lon="5.40897">
        <ele>663</ele>
        <time>2016-05-29T07:52:35Z</time>
      </trkpt>
      <trkpt lat="43.96504" lon="5.40899">
        <ele>663</ele>
        <time>2016-05-29T07:52:39Z</time>
      </trkpt>
      <trkpt lat="43.96508" lon="5.40902">
        <ele>665</ele>
        <time>2016-05-29T07:52:42Z</time>
      </trkpt>
      <trkpt lat="43.96511" lon="5.40905">
        <ele>665</ele>
        <time>2016-05-29T07:52:45Z</time>
      </trkpt>
      <trkpt lat="43.96515" lon="5.40908">
        <ele>665</ele>
        <time>2016-05-29T07:52:49Z</time>
      </trkpt>
      <trkpt lat="43.96519" lon="5.4091">
        <ele>667</ele>
        <time>2016-05-29T07:52:52Z</time>
      </trkpt>
      <trkpt lat="43.96523" lon="5.40913">
        <ele>667</ele>
        <time>2016-05-29T07:52:55Z</time>
      </trkpt>
      <trkpt lat="43.96527" lon="5.40915">
        <ele>667</ele>
        <time>2016-05-29T07:52:58Z</time>
      </trkpt>
      <trkpt lat="43.9653" lon="5.40917">
        <ele>668.3</ele>
        <time>2016-05-29T07:53:01Z</time>
      </trkpt>
      <trkpt lat="43.96535" lon="5.4092">
        <ele>669</ele>
        <time>2016-05-29T07:53:05Z</time>
      </trkpt>
      <trkpt lat="43.96539" lon="5.40923">
        <ele>669</ele>
        <time>2016-05-29T07:53:09Z</time>
      </trkpt>
      <trkpt lat="43.96543" lon="5.40925">
        <ele>671</ele>
        <time>2016-05-29T07:53:12Z</time>
      </trkpt>
      <trkpt lat="43.96547" lon="5.40928">
        <ele>671</ele>
        <time>2016-05-29T07:53:15Z</time>
      </trkpt>
      <trkpt lat="43.96552" lon="5.40931">
        <ele>671</ele>
        <time>2016-05-29T07:53:19Z</time>
      </trkpt>
      <trkpt lat="43.96556" lon="5.40934">
        <ele>672</ele>
        <time>2016-05-29T07:53:23Z</time>
      </trkpt>
      <trkpt lat="43.9656" lon="5.40937">
        <ele>672</ele>
        <time>2016-05-29T07:53:26Z</time>
      </trkpt>
      <trkpt lat="43.96565" lon="5.4094">
        <ele>672</ele>
        <time>2016-05-29T07:53:30Z</time>
      </trkpt>
      <trkpt lat="43.9657" lon="5.40943">
        <ele>674</ele>
        <time>2016-05-29T07:53:34Z</time>
      </trkpt>
      <trkpt lat="43.96574" lon="5.40946">
        <ele>674</ele>
        <time>2016-05-29T07:53:38Z</time>
      </trkpt>
      <trkpt lat="43.96579" lon="5.4095">
        <ele>676</ele>
        <time>2016-05-29T07:53:42Z</time>
      </trkpt>
      <trkpt lat="43.96583" lon="5.40953">
        <ele>676</ele>
        <time>2016-05-29T07:53:46Z</time>
      </trkpt>
      <trkpt lat="43.96588" lon="5.40956">
        <ele>676</ele>
        <time>2016-05-29T07:53:50Z</time>
      </trkpt>
      <trkpt lat="43.96593" lon="5.40959">
        <ele>678</ele>
        <time>2016-05-29T07:53:54Z</time>
      </trkpt>
      <trkpt lat="43.96598" lon="5.40963">
        <ele>678</ele>
        <time>2016-05-29T07:53:59Z</time>
      </trkpt>
      <trkpt lat="43.96603" lon="5.40966">
        <ele>681</ele>
        <time>2016-05-29T07:54:03Z</time>
      </trkpt>
      <trkpt lat="43.96607" lon="5.40969">
        <ele>682</ele>
        <time>2016-05-29T07:54:07Z</time>
      </trkpt>
      <trkpt lat="43.96612" lon="5.40972">
        <ele>683.3</ele>
        <time>2016-05-29T07:54:11Z</time>
      </trkpt>
      <trkpt lat="43.96618" lon="5.40976">
        <ele>684</ele>
        <time>2016-05-29T07:54:16Z</time>
      </trkpt>
      <trkpt lat="43.96623" lon="5.40979">
        <ele>685.3</ele>
        <time>2016-05-29T07:54:21Z</time>
      </trkpt>
      <trkpt lat="43.96629" lon="5.40982">
        <ele>686</ele>
        <time>2016-05-29T07:54:26Z</time>
      </trkpt>
      <trkpt lat="43.96633" lon="5.40986">
        <ele>686</ele>
        <time>2016-05-29T07:54:30Z</time>
      </trkpt>
      <trkpt lat="43.9664" lon="5.40991">
        <ele>688</ele>
        <time>2016-05-29T07:54:36Z</time>
      </trkpt>
      <trkpt lat="43.96647" lon="5.40995">
        <ele>689</ele>
        <time>2016-05-29T07:54:42Z</time>
      </trkpt>
      <trkpt lat="43.96653" lon="5.40998">
        <ele>689</ele>
        <time>2016-05-29T07:54:48Z</time>
      </trkpt>
      <trkpt lat="43.96656" lon="5.40992">
        <ele>691</ele>
        <time>2016-05-29T07:54:52Z</time>
      </trkpt>
      <trkpt lat="43.96654" lon="5.40985">
        <ele>691</ele>
        <time>2016-05-29T07:54:56Z</time>
      </trkpt>
      <trkpt lat="43.96653" lon="5.4098">
        <ele>691</ele>
        <time>2016-05-29T07:54:59Z</time>
      </trkpt>
      <trkpt lat="43.96651" lon="5.40973">
        <ele>693</ele>
        <time>2016-05-29T07:55:03Z</time>
      </trkpt>
      <trkpt lat="43.9665" lon="5.40966">
        <ele>693</ele>
        <time>2016-05-29T07:55:07Z</time>
      </trkpt>
      <trkpt lat="43.96648" lon="5.40959">
        <ele>693</ele>
        <time>2016-05-29T07:56:30Z</time>
      </trkpt>
      <trkpt lat="43.96646" lon="5.40952">
        <ele>694</ele>
        <time>2016-05-29T07:56:34Z</time>
      </trkpt>
      <trkpt lat="43.96644" lon="5.40944">
        <ele>694</ele>
        <time>2016-05-29T07:56:39Z</time>
      </trkpt>
      <trkpt lat="43.96646" lon="5.40935">
        <ele>695</ele>
        <time>2016-05-29T07:56:44Z</time>
      </trkpt>
      <trkpt lat="43.96652" lon="5.40934">
        <ele>695</ele>
        <time>2016-05-29T07:56:49Z</time>
      </trkpt>
      <trkpt lat="43.96657" lon="5.40941">
        <ele>697</ele>
        <time>2016-05-29T07:56:55Z</time>
      </trkpt>
      <trkpt lat="43.96662" lon="5.40945">
        <ele>697</ele>
        <time>2016-05-29T07:57:00Z</time>
      </trkpt>
      <trkpt lat="43.96668" lon="5.4095">
        <ele>700.7</ele>
        <time>2016-05-29T07:57:06Z</time>
      </trkpt>
      <trkpt lat="43.96674" lon="5.40955">
        <ele>701</ele>
        <time>2016-05-29T07:57:12Z</time>
      </trkpt>
      <trkpt lat="43.9668" lon="5.40958">
        <ele>701</ele>
        <time>2016-05-29T07:57:17Z</time>
      </trkpt>
      <trkpt lat="43.96685" lon="5.40962">
        <ele>703</ele>
        <time>2016-05-29T07:57:22Z</time>
      </trkpt>
      <trkpt lat="43.96691" lon="5.40965">
        <ele>703</ele>
        <time>2016-05-29T07:57:27Z</time>
      </trkpt>
      <trkpt lat="43.96697" lon="5.40968">
        <ele>705</ele>
        <time>2016-05-29T07:57:32Z</time>
      </trkpt>
      <trkpt lat="43.96702" lon="5.40971">
        <ele>705</ele>
        <time>2016-05-29T07:57:37Z</time>
      </trkpt>
      <trkpt lat="43.96708" lon="5.40973">
        <ele>706</ele>
        <time>2016-05-29T07:57:42Z</time>
      </trkpt>
      <trkpt lat="43.96714" lon="5.40975">
        <ele>706</ele>
        <time>2016-05-29T07:57:47Z</time>
      </trkpt>
      <trkpt lat="43.96721" lon="5.40978">
        <ele>708</ele>
        <time>2016-05-29T07:57:53Z</time>
      </trkpt>
      <trkpt lat="43.96727" lon="5.4098">
        <ele>708</ele>
        <time>2016-05-29T07:57:59Z</time>
      </trkpt>
      <trkpt lat="43.96732" lon="5.40981">
        <ele>710</ele>
        <time>2016-05-29T07:58:03Z</time>
      </trkpt>
      <trkpt lat="43.96736" lon="5.40983">
        <ele>710</ele>
        <time>2016-05-29T07:58:07Z</time>
      </trkpt>
      <trkpt lat="43.96741" lon="5.40984">
        <ele>710.6</ele>
        <time>2016-05-29T07:58:11Z</time>
      </trkpt>
      <trkpt lat="43.96747" lon="5.40986">
        <ele>711</ele>
        <time>2016-05-29T07:58:17Z</time>
      </trkpt>
      <trkpt lat="43.96752" lon="5.40988">
        <ele>711.6</ele>
        <time>2016-05-29T07:58:21Z</time>
      </trkpt>
      <trkpt lat="43.96756" lon="5.4099">
        <ele>712</ele>
        <time>2016-05-29T07:58:25Z</time>
      </trkpt>
      <trkpt lat="43.96762" lon="5.40992">
        <ele>712</ele>
        <time>2016-05-29T07:58:30Z</time>
      </trkpt>
      <trkpt lat="43.96768" lon="5.40995">
        <ele>714</ele>
        <time>2016-05-29T07:58:36Z</time>
      </trkpt>
      <trkpt lat="43.96775" lon="5.40996">
        <ele>716</ele>
        <time>2016-05-29T07:58:42Z</time>
      </trkpt>
      <trkpt lat="43.96781" lon="5.40997">
        <ele>716</ele>
        <time>2016-05-29T07:58:47Z</time>
      </trkpt>
      <trkpt lat="43.96788" lon="5.40998">
        <ele>718</ele>
        <time>2016-05-29T07:58:53Z</time>
      </trkpt>
      <trkpt lat="43.96793" lon="5.40999">
        <ele>718</ele>
        <time>2016-05-29T07:58:57Z</time>
      </trkpt>
      <trkpt lat="43.96797" lon="5.41">
        <ele>719.9</ele>
        <time>2016-05-29T07:59:01Z</time>
      </trkpt>
      <trkpt lat="43.96804" lon="5.41002">
        <ele>721.7</ele>
        <time>2016-05-29T07:59:06Z</time>
      </trkpt>
      <trkpt lat="43.96809" lon="5.41005">
        <ele>722</ele>
        <time>2016-05-29T07:59:10Z</time>
      </trkpt>
      <trkpt lat="43.96814" lon="5.41007">
        <ele>723</ele>
        <time>2016-05-29T07:59:14Z</time>
      </trkpt>
      <trkpt lat="43.9682" lon="5.41011">
        <ele>723</ele>
        <time>2016-05-29T07:59:19Z</time>
      </trkpt>
      <trkpt lat="43.96825" lon="5.41015">
        <ele>724</ele>
        <time>2016-05-29T07:59:24Z</time>
      </trkpt>
      <trkpt lat="43.96832" lon="5.4102">
        <ele>724</ele>
        <time>2016-05-29T07:59:30Z</time>
      </trkpt>
      <trkpt lat="43.96838" lon="5.41024">
        <ele>726</ele>
        <time>2016-05-29T07:59:36Z</time>
      </trkpt>
      <trkpt lat="43.96844" lon="5.41028">
        <ele>727.3</ele>
        <time>2016-05-29T07:59:41Z</time>
      </trkpt>
      <trkpt lat="43.9685" lon="5.41032">
        <ele>728</ele>
        <time>2016-05-29T07:59:46Z</time>
      </trkpt>
      <trkpt lat="43.96855" lon="5.41036">
        <ele>728</ele>
        <time>2016-05-29T07:59:50Z</time>
      </trkpt>
      <trkpt lat="43.9686" lon="5.4104">
        <ele>729</ele>
        <time>2016-05-29T07:59:54Z</time>
      </trkpt>
      <trkpt lat="43.96866" lon="5.41045">
        <ele>729</ele>
        <time>2016-05-29T07:59:59Z</time>
      </trkpt>
      <trkpt lat="43.96871" lon="5.41049">
        <ele>731</ele>
        <time>2016-05-29T08:00:03Z</time>
      </trkpt>
      <trkpt lat="43.96878" lon="5.41053">
        <ele>731</ele>
        <time>2016-05-29T08:00:08Z</time>
      </trkpt>
      <trkpt lat="43.96884" lon="5.41058">
        <ele>732</ele>
        <time>2016-05-29T08:00:13Z</time>
      </trkpt>
      <trkpt lat="43.96891" lon="5.41062">
        <ele>732</ele>
        <time>2016-05-29T08:00:18Z</time>
      </trkpt>
      <trkpt lat="43.96897" lon="5.41066">
        <ele>733</ele>
        <time>2016-05-29T08:00:23Z</time>
      </trkpt>
      <trkpt lat="43.96903" lon="5.41069">
        <ele>733</ele>
        <time>2016-05-29T08:00:27Z</time>
      </trkpt>
      <trkpt lat="43.9691" lon="5.41072">
        <ele>734</ele>
        <time>2016-05-29T08:00:32Z</time>
      </trkpt>
      <trkpt lat="43.96917" lon="5.41076">
        <ele>734</ele>
        <time>2016-05-29T08:00:37Z</time>
      </trkpt>
      <trkpt lat="43.96923" lon="5.41079">
        <ele>734.6</ele>
        <time>2016-05-29T08:00:41Z</time>
      </trkpt>
      <trkpt lat="43.96929" lon="5.41082">
        <ele>735</ele>
        <time>2016-05-29T08:00:46Z</time>
      </trkpt>
      <trkpt lat="43.96935" lon="5.41084">
        <ele>735</ele>
        <time>2016-05-29T08:00:50Z</time>
      </trkpt>
      <trkpt lat="43.96941" lon="5.41087">
        <ele>736</ele>
        <time>2016-05-29T08:00:55Z</time>
      </trkpt>
      <trkpt lat="43.96946" lon="5.41089">
        <ele>736</ele>
        <time>2016-05-29T08:00:58Z</time>
      </trkpt>
      <trkpt lat="43.9695" lon="5.41091">
        <ele>737.3</ele>
        <time>2016-05-29T08:01:01Z</time>
      </trkpt>
      <trkpt lat="43.96954" lon="5.41094">
        <ele>738</ele>
        <time>2016-05-29T08:01:05Z</time>
      </trkpt>
      <trkpt lat="43.96958" lon="5.41095">
        <ele>738</ele>
        <time>2016-05-29T08:01:08Z</time>
      </trkpt>
      <trkpt lat="43.96963" lon="5.41097">
        <ele>740</ele>
        <time>2016-05-29T08:01:12Z</time>
      </trkpt>
      <trkpt lat="43.96968" lon="5.41099">
        <ele>740</ele>
        <time>2016-05-29T08:01:16Z</time>
      </trkpt>
      <trkpt lat="43.96973" lon="5.41102">
        <ele>740</ele>
        <time>2016-05-29T08:01:20Z</time>
      </trkpt>
      <trkpt lat="43.9698" lon="5.41104">
        <ele>742</ele>
        <time>2016-05-29T08:01:25Z</time>
      </trkpt>
      <trkpt lat="43.96986" lon="5.41108">
        <ele>742</ele>
        <time>2016-05-29T08:01:30Z</time>
      </trkpt>
      <trkpt lat="43.96992" lon="5.41111">
        <ele>744</ele>
        <time>2016-05-29T08:01:35Z</time>
      </trkpt>
      <trkpt lat="43.96999" lon="5.41116">
        <ele>745.3</ele>
        <time>2016-05-29T08:01:41Z</time>
      </trkpt>
      <trkpt lat="43.97006" lon="5.41119">
        <ele>746</ele>
        <time>2016-05-29T08:01:46Z</time>
      </trkpt>
      <trkpt lat="43.97012" lon="5.41122">
        <ele>747.3</ele>
        <time>2016-05-29T08:01:51Z</time>
      </trkpt>
      <trkpt lat="43.97019" lon="5.41126">
        <ele>748</ele>
        <time>2016-05-29T08:01:56Z</time>
      </trkpt>
      <trkpt lat="43.97026" lon="5.41129">
        <ele>748.6</ele>
        <time>2016-05-29T08:02:01Z</time>
      </trkpt>
      <trkpt lat="43.97032" lon="5.41132">
        <ele>749</ele>
        <time>2016-05-29T08:02:05Z</time>
      </trkpt>
      <trkpt lat="43.97041" lon="5.41137">
        <ele>750.3</ele>
        <time>2016-05-29T08:02:11Z</time>
      </trkpt>
      <trkpt lat="43.97048" lon="5.41141">
        <ele>751</ele>
        <time>2016-05-29T08:02:16Z</time>
      </trkpt>
      <trkpt lat="43.97055" lon="5.41145">
        <ele>752.3</ele>
        <time>2016-05-29T08:02:21Z</time>
      </trkpt>
      <trkpt lat="43.97062" lon="5.4115">
        <ele>753</ele>
        <time>2016-05-29T08:02:26Z</time>
      </trkpt>
      <trkpt lat="43.97069" lon="5.41154">
        <ele>753</ele>
        <time>2016-05-29T08:02:30Z</time>
      </trkpt>
      <trkpt lat="43.97075" lon="5.41158">
        <ele>755</ele>
        <time>2016-05-29T08:02:34Z</time>
      </trkpt>
      <trkpt lat="43.97081" lon="5.41162">
        <ele>755</ele>
        <time>2016-05-29T08:02:38Z</time>
      </trkpt>
      <trkpt lat="43.97087" lon="5.41165">
        <ele>755.6</ele>
        <time>2016-05-29T08:02:41Z</time>
      </trkpt>
      <trkpt lat="43.97094" lon="5.41169">
        <ele>756</ele>
        <time>2016-05-29T08:02:45Z</time>
      </trkpt>
      <trkpt lat="43.97101" lon="5.41172">
        <ele>756</ele>
        <time>2016-05-29T08:02:49Z</time>
      </trkpt>
      <trkpt lat="43.97108" lon="5.41175">
        <ele>757</ele>
        <time>2016-05-29T08:02:53Z</time>
      </trkpt>
      <trkpt lat="43.97116" lon="5.41179">
        <ele>757</ele>
        <time>2016-05-29T08:02:57Z</time>
      </trkpt>
      <trkpt lat="43.97123" lon="5.41182">
        <ele>757</ele>
        <time>2016-05-29T08:03:00Z</time>
      </trkpt>
      <trkpt lat="43.97129" lon="5.41184">
        <ele>758</ele>
        <time>2016-05-29T08:03:03Z</time>
      </trkpt>
      <trkpt lat="43.97136" lon="5.41188">
        <ele>758</ele>
        <time>2016-05-29T08:03:06Z</time>
      </trkpt>
      <trkpt lat="43.97142" lon="5.41191">
        <ele>758</ele>
        <time>2016-05-29T08:03:09Z</time>
      </trkpt>
      <trkpt lat="43.97149" lon="5.41194">
        <ele>759</ele>
        <time>2016-05-29T08:03:12Z</time>
      </trkpt>
      <trkpt lat="43.97154" lon="5.41197">
        <ele>759</ele>
        <time>2016-05-29T08:03:14Z</time>
      </trkpt>
      <trkpt lat="43.97158" lon="5.412">
        <ele>759</ele>
        <time>2016-05-29T08:03:16Z</time>
      </trkpt>
      <trkpt lat="43.97162" lon="5.41201">
        <ele>759</ele>
        <time>2016-05-29T08:03:18Z</time>
      </trkpt>
      <trkpt lat="43.97168" lon="5.41204">
        <ele>759.6</ele>
        <time>2016-05-29T08:03:21Z</time>
      </trkpt>
      <trkpt lat="43.97176" lon="5.41206">
        <ele>760</ele>
        <time>2016-05-29T08:03:25Z</time>
      </trkpt>
      <trkpt lat="43.97181" lon="5.41207">
        <ele>760</ele>
        <time>2016-05-29T08:03:28Z</time>
      </trkpt>
      <trkpt lat="43.97186" lon="5.41209">
        <ele>761.3</ele>
        <time>2016-05-29T08:03:31Z</time>
      </trkpt>
      <trkpt lat="43.97192" lon="5.4121">
        <ele>762</ele>
        <time>2016-05-29T08:03:35Z</time>
      </trkpt>
      <trkpt lat="43.97197" lon="5.4121">
        <ele>762</ele>
        <time>2016-05-29T08:03:38Z</time>
      </trkpt>
      <trkpt lat="43.97202" lon="5.41211">
        <ele>763.3</ele>
        <time>2016-05-29T08:03:41Z</time>
      </trkpt>
      <trkpt lat="43.97208" lon="5.41212">
        <ele>764</ele>
        <time>2016-05-29T08:03:44Z</time>
      </trkpt>
      <trkpt lat="43.97213" lon="5.41214">
        <ele>764</ele>
        <time>2016-05-29T08:03:47Z</time>
      </trkpt>
      <trkpt lat="43.97219" lon="5.41215">
        <ele>764</ele>
        <time>2016-05-29T08:03:50Z</time>
      </trkpt>
      <trkpt lat="43.97225" lon="5.41217">
        <ele>767</ele>
        <time>2016-05-29T08:03:53Z</time>
      </trkpt>
      <trkpt lat="43.9723" lon="5.4122">
        <ele>767.7</ele>
        <time>2016-05-29T08:03:56Z</time>
      </trkpt>
      <trkpt lat="43.97236" lon="5.41223">
        <ele>768</ele>
        <time>2016-05-29T08:03:59Z</time>
      </trkpt>
      <trkpt lat="43.97243" lon="5.41228">
        <ele>768</ele>
        <time>2016-05-29T08:04:02Z</time>
      </trkpt>
      <trkpt lat="43.97249" lon="5.41231">
        <ele>768</ele>
        <time>2016-05-29T08:04:05Z</time>
      </trkpt>
      <trkpt lat="43.97256" lon="5.41236">
        <ele>768</ele>
        <time>2016-05-29T08:04:08Z</time>
      </trkpt>
      <trkpt lat="43.97261" lon="5.4124">
        <ele>768</ele>
        <time>2016-05-29T08:04:10Z</time>
      </trkpt>
      <trkpt lat="43.97269" lon="5.41247">
        <ele>769</ele>
        <time>2016-05-29T08:04:13Z</time>
      </trkpt>
      <trkpt lat="43.97275" lon="5.41251">
        <ele>769</ele>
        <time>2016-05-29T08:04:15Z</time>
      </trkpt>
      <trkpt lat="43.9728" lon="5.41255">
        <ele>769</ele>
        <time>2016-05-29T08:04:17Z</time>
      </trkpt>
      <trkpt lat="43.97284" lon="5.41258">
        <ele>769</ele>
        <time>2016-05-29T08:04:19Z</time>
      </trkpt>
      <trkpt lat="43.9729" lon="5.41262">
        <ele>769</ele>
        <time>2016-05-29T08:04:21Z</time>
      </trkpt>
      <trkpt lat="43.97295" lon="5.41265">
        <ele>769</ele>
        <time>2016-05-29T08:04:23Z</time>
      </trkpt>
      <trkpt lat="43.973" lon="5.41268">
        <ele>769</ele>
        <time>2016-05-29T08:04:25Z</time>
      </trkpt>
      <trkpt lat="43.97306" lon="5.41271">
        <ele>769</ele>
        <time>2016-05-29T08:04:27Z</time>
      </trkpt>
      <trkpt lat="43.97311" lon="5.41275">
        <ele>769</ele>
        <time>2016-05-29T08:04:29Z</time>
      </trkpt>
      <trkpt lat="43.97315" lon="5.41278">
        <ele>769.6</ele>
        <time>2016-05-29T08:04:31Z</time>
      </trkpt>
      <trkpt lat="43.97321" lon="5.41282">
        <ele>770</ele>
        <time>2016-05-29T08:04:33Z</time>
      </trkpt>
      <trkpt lat="43.97326" lon="5.41286">
        <ele>770</ele>
        <time>2016-05-29T08:04:35Z</time>
      </trkpt>
      <trkpt lat="43.97332" lon="5.4129">
        <ele>770</ele>
        <time>2016-05-29T08:04:37Z</time>
      </trkpt>
      <trkpt lat="43.97337" lon="5.41294">
        <ele>770</ele>
        <time>2016-05-29T08:04:39Z</time>
      </trkpt>
      <trkpt lat="43.97342" lon="5.41298">
        <ele>770</ele>
        <time>2016-05-29T08:04:41Z</time>
      </trkpt>
      <trkpt lat="43.97348" lon="5.41302">
        <ele>771</ele>
        <time>2016-05-29T08:04:43Z</time>
      </trkpt>
      <trkpt lat="43.97353" lon="5.41305">
        <ele>771</ele>
        <time>2016-05-29T08:04:45Z</time>
      </trkpt>
      <trkpt lat="43.97359" lon="5.41308">
        <ele>771</ele>
        <time>2016-05-29T08:04:47Z</time>
      </trkpt>
      <trkpt lat="43.97364" lon="5.41312">
        <ele>771</ele>
        <time>2016-05-29T08:04:49Z</time>
      </trkpt>
      <trkpt lat="43.9737" lon="5.41315">
        <ele>771</ele>
        <time>2016-05-29T08:04:51Z</time>
      </trkpt>
      <trkpt lat="43.97375" lon="5.41319">
        <ele>772</ele>
        <time>2016-05-29T08:04:53Z</time>
      </trkpt>
      <trkpt lat="43.97381" lon="5.41322">
        <ele>772</ele>
        <time>2016-05-29T08:04:55Z</time>
      </trkpt>
      <trkpt lat="43.97386" lon="5.41326">
        <ele>772</ele>
        <time>2016-05-29T08:04:57Z</time>
      </trkpt>
      <trkpt lat="43.97391" lon="5.4133">
        <ele>772</ele>
        <time>2016-05-29T08:04:59Z</time>
      </trkpt>
      <trkpt lat="43.97399" lon="5.41336">
        <ele>772</ele>
        <time>2016-05-29T08:05:02Z</time>
      </trkpt>
      <trkpt lat="43.97406" lon="5.41341">
        <ele>772</ele>
        <time>2016-05-29T08:05:05Z</time>
      </trkpt>
      <trkpt lat="43.9741" lon="5.41344">
        <ele>772.6</ele>
        <time>2016-05-29T08:05:07Z</time>
      </trkpt>
      <trkpt lat="43.97415" lon="5.41348">
        <ele>773</ele>
        <time>2016-05-29T08:05:09Z</time>
      </trkpt>
      <trkpt lat="43.97419" lon="5.41351">
        <ele>773.6</ele>
        <time>2016-05-29T08:05:11Z</time>
      </trkpt>
      <trkpt lat="43.97425" lon="5.41355">
        <ele>774</ele>
        <time>2016-05-29T08:05:14Z</time>
      </trkpt>
      <trkpt lat="43.97431" lon="5.41359">
        <ele>774</ele>
        <time>2016-05-29T08:05:17Z</time>
      </trkpt>
      <trkpt lat="43.97438" lon="5.41363">
        <ele>774</ele>
        <time>2016-05-29T08:05:20Z</time>
      </trkpt>
      <trkpt lat="43.97443" lon="5.41366">
        <ele>775</ele>
        <time>2016-05-29T08:05:22Z</time>
      </trkpt>
      <trkpt lat="43.97448" lon="5.41368">
        <ele>775</ele>
        <time>2016-05-29T08:05:24Z</time>
      </trkpt>
      <trkpt lat="43.97453" lon="5.4137">
        <ele>775</ele>
        <time>2016-05-29T08:05:26Z</time>
      </trkpt>
      <trkpt lat="43.97457" lon="5.41373">
        <ele>775</ele>
        <time>2016-05-29T08:05:28Z</time>
      </trkpt>
      <trkpt lat="43.97461" lon="5.41375">
        <ele>775</ele>
        <time>2016-05-29T08:05:30Z</time>
      </trkpt>
      <trkpt lat="43.97466" lon="5.41378">
        <ele>776</ele>
        <time>2016-05-29T08:05:32Z</time>
      </trkpt>
      <trkpt lat="43.9747" lon="5.4138">
        <ele>776</ele>
        <time>2016-05-29T08:05:34Z</time>
      </trkpt>
      <trkpt lat="43.97475" lon="5.41382">
        <ele>776</ele>
        <time>2016-05-29T08:05:36Z</time>
      </trkpt>
      <trkpt lat="43.97484" lon="5.41386">
        <ele>776</ele>
        <time>2016-05-29T08:05:40Z</time>
      </trkpt>
      <trkpt lat="43.97492" lon="5.41389">
        <ele>778</ele>
        <time>2016-05-29T08:05:44Z</time>
      </trkpt>
      <trkpt lat="43.97501" lon="5.41391">
        <ele>778</ele>
        <time>2016-05-29T08:05:48Z</time>
      </trkpt>
      <trkpt lat="43.97509" lon="5.41395">
        <ele>779</ele>
        <time>2016-05-29T08:05:52Z</time>
      </trkpt>
      <trkpt lat="43.97516" lon="5.41399">
        <ele>779</ele>
        <time>2016-05-29T08:05:56Z</time>
      </trkpt>
      <trkpt lat="43.97525" lon="5.41403">
        <ele>780.3</ele>
        <time>2016-05-29T08:06:01Z</time>
      </trkpt>
      <trkpt lat="43.97535" lon="5.41407">
        <ele>781</ele>
        <time>2016-05-29T08:06:06Z</time>
      </trkpt>
      <trkpt lat="43.97543" lon="5.4141">
        <ele>781.6</ele>
        <time>2016-05-29T08:06:11Z</time>
      </trkpt>
      <trkpt lat="43.97551" lon="5.41413">
        <ele>782</ele>
        <time>2016-05-29T08:06:16Z</time>
      </trkpt>
      <trkpt lat="43.97559" lon="5.41416">
        <ele>783.3</ele>
        <time>2016-05-29T08:06:21Z</time>
      </trkpt>
      <trkpt lat="43.97566" lon="5.41418">
        <ele>784</ele>
        <time>2016-05-29T08:06:25Z</time>
      </trkpt>
      <trkpt lat="43.97573" lon="5.4142">
        <ele>784</ele>
        <time>2016-05-29T08:06:29Z</time>
      </trkpt>
      <trkpt lat="43.97581" lon="5.41423">
        <ele>786</ele>
        <time>2016-05-29T08:06:33Z</time>
      </trkpt>
      <trkpt lat="43.9759" lon="5.41427">
        <ele>786</ele>
        <time>2016-05-29T08:06:38Z</time>
      </trkpt>
      <trkpt lat="43.97595" lon="5.4143">
        <ele>786.6</ele>
        <time>2016-05-29T08:06:41Z</time>
      </trkpt>
      <trkpt lat="43.97602" lon="5.41433">
        <ele>787</ele>
        <time>2016-05-29T08:06:44Z</time>
      </trkpt>
      <trkpt lat="43.97609" lon="5.41437">
        <ele>787</ele>
        <time>2016-05-29T08:06:47Z</time>
      </trkpt>
      <trkpt lat="43.97616" lon="5.4144">
        <ele>787</ele>
        <time>2016-05-29T08:06:50Z</time>
      </trkpt>
      <trkpt lat="43.97622" lon="5.41443">
        <ele>788</ele>
        <time>2016-05-29T08:06:52Z</time>
      </trkpt>
      <trkpt lat="43.97627" lon="5.41445">
        <ele>788</ele>
        <time>2016-05-29T08:06:54Z</time>
      </trkpt>
      <trkpt lat="43.97633" lon="5.41446">
        <ele>788</ele>
        <time>2016-05-29T08:06:56Z</time>
      </trkpt>
      <trkpt lat="43.97639" lon="5.41449">
        <ele>788</ele>
        <time>2016-05-29T08:06:58Z</time>
      </trkpt>
      <trkpt lat="43.97646" lon="5.41452">
        <ele>788</ele>
        <time>2016-05-29T08:07:00Z</time>
      </trkpt>
      <trkpt lat="43.97654" lon="5.41454">
        <ele>787</ele>
        <time>2016-05-29T08:07:02Z</time>
      </trkpt>
      <trkpt lat="43.97662" lon="5.41457">
        <ele>787</ele>
        <time>2016-05-29T08:07:04Z</time>
      </trkpt>
      <trkpt lat="43.9767" lon="5.41459">
        <ele>787</ele>
        <time>2016-05-29T08:07:06Z</time>
      </trkpt>
      <trkpt lat="43.97678" lon="5.41461">
        <ele>787</ele>
        <time>2016-05-29T08:07:08Z</time>
      </trkpt>
      <trkpt lat="43.97685" lon="5.41462">
        <ele>787</ele>
        <time>2016-05-29T08:07:10Z</time>
      </trkpt>
      <trkpt lat="43.97693" lon="5.41462">
        <ele>787</ele>
        <time>2016-05-29T08:07:12Z</time>
      </trkpt>
      <trkpt lat="43.977" lon="5.41462">
        <ele>787</ele>
        <time>2016-05-29T08:07:14Z</time>
      </trkpt>
      <trkpt lat="43.97706" lon="5.41463">
        <ele>787</ele>
        <time>2016-05-29T08:07:16Z</time>
      </trkpt>
      <trkpt lat="43.97713" lon="5.41462">
        <ele>787</ele>
        <time>2016-05-29T08:07:18Z</time>
      </trkpt>
      <trkpt lat="43.97721" lon="5.41461">
        <ele>787</ele>
        <time>2016-05-29T08:07:21Z</time>
      </trkpt>
      <trkpt lat="43.97729" lon="5.4146">
        <ele>787</ele>
        <time>2016-05-29T08:07:24Z</time>
      </trkpt>
      <trkpt lat="43.97736" lon="5.41458">
        <ele>787</ele>
        <time>2016-05-29T08:07:26Z</time>
      </trkpt>
      <trkpt lat="43.97743" lon="5.41458">
        <ele>787</ele>
        <time>2016-05-29T08:07:28Z</time>
      </trkpt>
      <trkpt lat="43.97749" lon="5.41456">
        <ele>787</ele>
        <time>2016-05-29T08:07:30Z</time>
      </trkpt>
      <trkpt lat="43.97756" lon="5.41455">
        <ele>789</ele>
        <time>2016-05-29T08:07:32Z</time>
      </trkpt>
      <trkpt lat="43.97762" lon="5.41454">
        <ele>789</ele>
        <time>2016-05-29T08:07:34Z</time>
      </trkpt>
      <trkpt lat="43.97771" lon="5.41451">
        <ele>789</ele>
        <time>2016-05-29T08:07:37Z</time>
      </trkpt>
      <trkpt lat="43.97777" lon="5.41449">
        <ele>789</ele>
        <time>2016-05-29T08:07:39Z</time>
      </trkpt>
      <trkpt lat="43.97783" lon="5.41447">
        <ele>789.6</ele>
        <time>2016-05-29T08:07:41Z</time>
      </trkpt>
      <trkpt lat="43.9779" lon="5.41445">
        <ele>790</ele>
        <time>2016-05-29T08:07:44Z</time>
      </trkpt>
      <trkpt lat="43.97799" lon="5.41441">
        <ele>790</ele>
        <time>2016-05-29T08:07:48Z</time>
      </trkpt>
      <trkpt lat="43.97808" lon="5.41435">
        <ele>791</ele>
        <time>2016-05-29T08:07:52Z</time>
      </trkpt>
      <trkpt lat="43.97815" lon="5.4143">
        <ele>791</ele>
        <time>2016-05-29T08:07:56Z</time>
      </trkpt>
      <trkpt lat="43.9782" lon="5.41424">
        <ele>793</ele>
        <time>2016-05-29T08:08:11Z</time>
      </trkpt>
      <trkpt lat="43.97825" lon="5.41418">
        <ele>794</ele>
        <time>2016-05-29T08:08:43Z</time>
      </trkpt>
      <trkpt lat="43.97831" lon="5.41409">
        <ele>795</ele>
        <time>2016-05-29T08:09:09Z</time>
      </trkpt>
      <trkpt lat="43.97839" lon="5.41405">
        <ele>795</ele>
        <time>2016-05-29T08:09:13Z</time>
      </trkpt>
      <trkpt lat="43.97847" lon="5.41398">
        <ele>796</ele>
        <time>2016-05-29T08:09:18Z</time>
      </trkpt>
      <trkpt lat="43.97857" lon="5.41391">
        <ele>797</ele>
        <time>2016-05-29T08:09:23Z</time>
      </trkpt>
      <trkpt lat="43.97865" lon="5.41386">
        <ele>797</ele>
        <time>2016-05-29T08:09:27Z</time>
      </trkpt>
      <trkpt lat="43.97871" lon="5.41382">
        <ele>798.3</ele>
        <time>2016-05-29T08:09:31Z</time>
      </trkpt>
      <trkpt lat="43.97876" lon="5.41379">
        <ele>799</ele>
        <time>2016-05-29T08:09:34Z</time>
      </trkpt>
      <trkpt lat="43.97881" lon="5.41376">
        <ele>799</ele>
        <time>2016-05-29T08:09:37Z</time>
      </trkpt>
      <trkpt lat="43.97886" lon="5.4137">
        <ele>800.3</ele>
        <time>2016-05-29T08:09:41Z</time>
      </trkpt>
      <trkpt lat="43.97894" lon="5.41366">
        <ele>801</ele>
        <time>2016-05-29T08:09:45Z</time>
      </trkpt>
      <trkpt lat="43.97899" lon="5.41363">
        <ele>801</ele>
        <time>2016-05-29T08:09:48Z</time>
      </trkpt>
      <trkpt lat="43.97906" lon="5.41358">
        <ele>803</ele>
        <time>2016-05-29T08:09:52Z</time>
      </trkpt>
      <trkpt lat="43.97913" lon="5.41352">
        <ele>803</ele>
        <time>2016-05-29T08:09:56Z</time>
      </trkpt>
      <trkpt lat="43.97918" lon="5.41349">
        <ele>803</ele>
        <time>2016-05-29T08:09:59Z</time>
      </trkpt>
      <trkpt lat="43.97925" lon="5.41343">
        <ele>804</ele>
        <time>2016-05-29T08:10:03Z</time>
      </trkpt>
      <trkpt lat="43.97932" lon="5.41338">
        <ele>804</ele>
        <time>2016-05-29T08:10:07Z</time>
      </trkpt>
      <trkpt lat="43.97937" lon="5.41334">
        <ele>804</ele>
        <time>2016-05-29T08:10:10Z</time>
      </trkpt>
      <trkpt lat="43.97943" lon="5.4133">
        <ele>806</ele>
        <time>2016-05-29T08:10:13Z</time>
      </trkpt>
      <trkpt lat="43.97949" lon="5.41327">
        <ele>806</ele>
        <time>2016-05-29T08:10:16Z</time>
      </trkpt>
      <trkpt lat="43.97954" lon="5.41323">
        <ele>806</ele>
        <time>2016-05-29T08:10:19Z</time>
      </trkpt>
      <trkpt lat="43.97958" lon="5.4132">
        <ele>806.6</ele>
        <time>2016-05-29T08:10:21Z</time>
      </trkpt>
      <trkpt lat="43.97963" lon="5.41317">
        <ele>807</ele>
        <time>2016-05-29T08:10:24Z</time>
      </trkpt>
      <trkpt lat="43.97968" lon="5.41313">
        <ele>807</ele>
        <time>2016-05-29T08:10:27Z</time>
      </trkpt>
      <trkpt lat="43.97973" lon="5.4131">
        <ele>807</ele>
        <time>2016-05-29T08:10:30Z</time>
      </trkpt>
      <trkpt lat="43.97978" lon="5.41307">
        <ele>808</ele>
        <time>2016-05-29T08:10:33Z</time>
      </trkpt>
      <trkpt lat="43.97984" lon="5.41302">
        <ele>808</ele>
        <time>2016-05-29T08:10:37Z</time>
      </trkpt>
      <trkpt lat="43.97989" lon="5.41297">
        <ele>808</ele>
        <time>2016-05-29T08:10:40Z</time>
      </trkpt>
      <trkpt lat="43.97995" lon="5.41292">
        <ele>810</ele>
        <time>2016-05-29T08:10:44Z</time>
      </trkpt>
      <trkpt lat="43.98002" lon="5.41284">
        <ele>810</ele>
        <time>2016-05-29T08:10:50Z</time>
      </trkpt>
      <trkpt lat="43.98009" lon="5.41278">
        <ele>813</ele>
        <time>2016-05-29T08:10:55Z</time>
      </trkpt>
      <trkpt lat="43.98015" lon="5.41274">
        <ele>814</ele>
        <time>2016-05-29T08:10:59Z</time>
      </trkpt>
      <trkpt lat="43.98025" lon="5.41271">
        <ele>815</ele>
        <time>2016-05-29T08:11:05Z</time>
      </trkpt>
      <trkpt lat="43.98033" lon="5.4127">
        <ele>815</ele>
        <time>2016-05-29T08:11:10Z</time>
      </trkpt>
      <trkpt lat="43.98041" lon="5.41269">
        <ele>817</ele>
        <time>2016-05-29T08:11:14Z</time>
      </trkpt>
      <trkpt lat="43.98051" lon="5.41268">
        <ele>817</ele>
        <time>2016-05-29T08:11:20Z</time>
      </trkpt>
      <trkpt lat="43.98059" lon="5.41268">
        <ele>818</ele>
        <time>2016-05-29T08:11:24Z</time>
      </trkpt>
      <trkpt lat="43.98068" lon="5.41266">
        <ele>818</ele>
        <time>2016-05-29T08:11:29Z</time>
      </trkpt>
      <trkpt lat="43.98071" lon="5.41265">
        <ele>819.3</ele>
        <time>2016-05-29T08:11:31Z</time>
      </trkpt>
      <trkpt lat="43.98075" lon="5.41265">
        <ele>820</ele>
        <time>2016-05-29T08:11:33Z</time>
      </trkpt>
      <trkpt lat="43.98079" lon="5.41264">
        <ele>820</ele>
        <time>2016-05-29T08:11:35Z</time>
      </trkpt>
      <trkpt lat="43.98082" lon="5.41263">
        <ele>820</ele>
        <time>2016-05-29T08:11:37Z</time>
      </trkpt>
      <trkpt lat="43.98091" lon="5.41262">
        <ele>822</ele>
        <time>2016-05-29T08:11:42Z</time>
      </trkpt>
      <trkpt lat="43.981" lon="5.41261">
        <ele>822</ele>
        <time>2016-05-29T08:11:47Z</time>
      </trkpt>
      <trkpt lat="43.98109" lon="5.4126">
        <ele>824</ele>
        <time>2016-05-29T08:11:53Z</time>
      </trkpt>
      <trkpt lat="43.9812" lon="5.41261">
        <ele>824</ele>
        <time>2016-05-29T08:11:59Z</time>
      </trkpt>
      <trkpt lat="43.98131" lon="5.41264">
        <ele>826</ele>
        <time>2016-05-29T08:12:05Z</time>
      </trkpt>
      <trkpt lat="43.9814" lon="5.41267">
        <ele>826</ele>
        <time>2016-05-29T08:12:10Z</time>
      </trkpt>
      <trkpt lat="43.98149" lon="5.4127">
        <ele>828</ele>
        <time>2016-05-29T08:12:15Z</time>
      </trkpt>
      <trkpt lat="43.98158" lon="5.41274">
        <ele>828</ele>
        <time>2016-05-29T08:12:20Z</time>
      </trkpt>
      <trkpt lat="43.98167" lon="5.41279">
        <ele>830</ele>
        <time>2016-05-29T08:12:25Z</time>
      </trkpt>
      <trkpt lat="43.98175" lon="5.41285">
        <ele>830</ele>
        <time>2016-05-29T08:12:30Z</time>
      </trkpt>
      <trkpt lat="43.98184" lon="5.41291">
        <ele>830</ele>
        <time>2016-05-29T08:12:35Z</time>
      </trkpt>
      <trkpt lat="43.98191" lon="5.41296">
        <ele>830</ele>
        <time>2016-05-29T08:12:39Z</time>
      </trkpt>
      <trkpt lat="43.98199" lon="5.41301">
        <ele>832</ele>
        <time>2016-05-29T08:12:44Z</time>
      </trkpt>
      <trkpt lat="43.98204" lon="5.41304">
        <ele>832</ele>
        <time>2016-05-29T08:12:47Z</time>
      </trkpt>
      <trkpt lat="43.9821" lon="5.41308">
        <ele>833.3</ele>
        <time>2016-05-29T08:12:51Z</time>
      </trkpt>
      <trkpt lat="43.98213" lon="5.4131">
        <ele>834</ele>
        <time>2016-05-29T08:12:53Z</time>
      </trkpt>
      <trkpt lat="43.98216" lon="5.41312">
        <ele>834</ele>
        <time>2016-05-29T08:12:55Z</time>
      </trkpt>
      <trkpt lat="43.98219" lon="5.41313">
        <ele>834</ele>
        <time>2016-05-29T08:12:57Z</time>
      </trkpt>
      <trkpt lat="43.98222" lon="5.41315">
        <ele>834</ele>
        <time>2016-05-29T08:12:59Z</time>
      </trkpt>
      <trkpt lat="43.98229" lon="5.41317">
        <ele>837</ele>
        <time>2016-05-29T08:13:03Z</time>
      </trkpt>
      <trkpt lat="43.98238" lon="5.41321">
        <ele>837</ele>
        <time>2016-05-29T08:13:09Z</time>
      </trkpt>
      <trkpt lat="43.98245" lon="5.41324">
        <ele>837</ele>
        <time>2016-05-29T08:13:14Z</time>
      </trkpt>
      <trkpt lat="43.98247" lon="5.41325">
        <ele>837</ele>
        <time>2016-05-29T08:13:16Z</time>
      </trkpt>
      <trkpt lat="43.9825" lon="5.41327">
        <ele>837</ele>
        <time>2016-05-29T08:13:18Z</time>
      </trkpt>
      <trkpt lat="43.98255" lon="5.41329">
        <ele>838.3</ele>
        <time>2016-05-29T08:13:21Z</time>
      </trkpt>
      <trkpt lat="43.98263" lon="5.41332">
        <ele>839</ele>
        <time>2016-05-29T08:13:27Z</time>
      </trkpt>
      <trkpt lat="43.98271" lon="5.41337">
        <ele>842</ele>
        <time>2016-05-29T08:13:33Z</time>
      </trkpt>
      <trkpt lat="43.9828" lon="5.4134">
        <ele>843</ele>
        <time>2016-05-29T08:13:39Z</time>
      </trkpt>
      <trkpt lat="43.98285" lon="5.41342">
        <ele>844</ele>
        <time>2016-05-29T08:13:43Z</time>
      </trkpt>
      <trkpt lat="43.98294" lon="5.41343">
        <ele>844</ele>
        <time>2016-05-29T08:13:49Z</time>
      </trkpt>
      <trkpt lat="43.98302" lon="5.41343">
        <ele>846</ele>
        <time>2016-05-29T08:13:55Z</time>
      </trkpt>
      <trkpt lat="43.98304" lon="5.41343">
        <ele>846</ele>
        <time>2016-05-29T08:13:57Z</time>
      </trkpt>
      <trkpt lat="43.98307" lon="5.41343">
        <ele>846</ele>
        <time>2016-05-29T08:13:59Z</time>
      </trkpt>
      <trkpt lat="43.98313" lon="5.41343">
        <ele>847</ele>
        <time>2016-05-29T08:14:03Z</time>
      </trkpt>
      <trkpt lat="43.98316" lon="5.41342">
        <ele>847</ele>
        <time>2016-05-29T08:14:05Z</time>
      </trkpt>
      <trkpt lat="43.98319" lon="5.41342">
        <ele>847</ele>
        <time>2016-05-29T08:14:07Z</time>
      </trkpt>
      <trkpt lat="43.98323" lon="5.41341">
        <ele>847</ele>
        <time>2016-05-29T08:14:09Z</time>
      </trkpt>
      <trkpt lat="43.98327" lon="5.41341">
        <ele>849</ele>
        <time>2016-05-29T08:14:12Z</time>
      </trkpt>
      <trkpt lat="43.98332" lon="5.41339">
        <ele>849</ele>
        <time>2016-05-29T08:14:15Z</time>
      </trkpt>
      <trkpt lat="43.98337" lon="5.4134">
        <ele>849</ele>
        <time>2016-05-29T08:14:18Z</time>
      </trkpt>
      <trkpt lat="43.98342" lon="5.41339">
        <ele>850.3</ele>
        <time>2016-05-29T08:14:21Z</time>
      </trkpt>
      <trkpt lat="43.98353" lon="5.41338">
        <ele>851</ele>
        <time>2016-05-29T08:14:27Z</time>
      </trkpt>
      <trkpt lat="43.98359" lon="5.41337">
        <ele>852.3</ele>
        <time>2016-05-29T08:14:31Z</time>
      </trkpt>
      <trkpt lat="43.98365" lon="5.41336">
        <ele>853</ele>
        <time>2016-05-29T08:14:34Z</time>
      </trkpt>
      <trkpt lat="43.98375" lon="5.41335">
        <ele>853</ele>
        <time>2016-05-29T08:14:40Z</time>
      </trkpt>
      <trkpt lat="43.98384" lon="5.41335">
        <ele>855</ele>
        <time>2016-05-29T08:14:45Z</time>
      </trkpt>
      <trkpt lat="43.98395" lon="5.41333">
        <ele>856.3</ele>
        <time>2016-05-29T08:14:51Z</time>
      </trkpt>
      <trkpt lat="43.98403" lon="5.41332">
        <ele>857</ele>
        <time>2016-05-29T08:14:55Z</time>
      </trkpt>
      <trkpt lat="43.98412" lon="5.41331">
        <ele>857</ele>
        <time>2016-05-29T08:15:00Z</time>
      </trkpt>
      <trkpt lat="43.98421" lon="5.41331">
        <ele>858</ele>
        <time>2016-05-29T08:15:05Z</time>
      </trkpt>
      <trkpt lat="43.9843" lon="5.41331">
        <ele>858</ele>
        <time>2016-05-29T08:15:10Z</time>
      </trkpt>
      <trkpt lat="43.98436" lon="5.41332">
        <ele>860</ele>
        <time>2016-05-29T08:15:13Z</time>
      </trkpt>
      <trkpt lat="43.98447" lon="5.41333">
        <ele>860</ele>
        <time>2016-05-29T08:15:19Z</time>
      </trkpt>
      <trkpt lat="43.98455" lon="5.41334">
        <ele>861</ele>
        <time>2016-05-29T08:15:23Z</time>
      </trkpt>
      <trkpt lat="43.98463" lon="5.41334">
        <ele>862</ele>
        <time>2016-05-29T08:15:27Z</time>
      </trkpt>
      <trkpt lat="43.9847" lon="5.41334">
        <ele>862.6</ele>
        <time>2016-05-29T08:15:31Z</time>
      </trkpt>
      <trkpt lat="43.98479" lon="5.41334">
        <ele>863</ele>
        <time>2016-05-29T08:15:36Z</time>
      </trkpt>
      <trkpt lat="43.98486" lon="5.41331">
        <ele>864.3</ele>
        <time>2016-05-29T08:15:41Z</time>
      </trkpt>
      <trkpt lat="43.98495" lon="5.41327">
        <ele>865</ele>
        <time>2016-05-29T08:15:47Z</time>
      </trkpt>
      <trkpt lat="43.98502" lon="5.41323">
        <ele>868</ele>
        <time>2016-05-29T08:15:59Z</time>
      </trkpt>
      <trkpt lat="43.98508" lon="5.41322">
        <ele>869</ele>
        <time>2016-05-29T08:16:03Z</time>
      </trkpt>
      <trkpt lat="43.98516" lon="5.4132">
        <ele>869</ele>
        <time>2016-05-29T08:16:08Z</time>
      </trkpt>
      <trkpt lat="43.98525" lon="5.41318">
        <ele>870</ele>
        <time>2016-05-29T08:16:13Z</time>
      </trkpt>
      <trkpt lat="43.98532" lon="5.41319">
        <ele>870</ele>
        <time>2016-05-29T08:16:18Z</time>
      </trkpt>
      <trkpt lat="43.9854" lon="5.41319">
        <ele>872</ele>
        <time>2016-05-29T08:16:22Z</time>
      </trkpt>
      <trkpt lat="43.9855" lon="5.41321">
        <ele>872</ele>
        <time>2016-05-29T08:16:27Z</time>
      </trkpt>
      <trkpt lat="43.98559" lon="5.41322">
        <ele>875</ele>
        <time>2016-05-29T08:16:33Z</time>
      </trkpt>
      <trkpt lat="43.98566" lon="5.41322">
        <ele>876</ele>
        <time>2016-05-29T08:16:37Z</time>
      </trkpt>
      <trkpt lat="43.98573" lon="5.41323">
        <ele>876</ele>
        <time>2016-05-29T08:16:41Z</time>
      </trkpt>
      <trkpt lat="43.98581" lon="5.41325">
        <ele>876</ele>
        <time>2016-05-29T08:16:45Z</time>
      </trkpt>
      <trkpt lat="43.98586" lon="5.41326">
        <ele>876</ele>
        <time>2016-05-29T08:16:48Z</time>
      </trkpt>
      <trkpt lat="43.98592" lon="5.41327">
        <ele>876.6</ele>
        <time>2016-05-29T08:16:51Z</time>
      </trkpt>
      <trkpt lat="43.98596" lon="5.41328">
        <ele>877</ele>
        <time>2016-05-29T08:16:53Z</time>
      </trkpt>
      <trkpt lat="43.98602" lon="5.4133">
        <ele>877</ele>
        <time>2016-05-29T08:16:56Z</time>
      </trkpt>
      <trkpt lat="43.98608" lon="5.41333">
        <ele>877</ele>
        <time>2016-05-29T08:16:59Z</time>
      </trkpt>
      <trkpt lat="43.98616" lon="5.41336">
        <ele>879</ele>
        <time>2016-05-29T08:17:03Z</time>
      </trkpt>
      <trkpt lat="43.98622" lon="5.41338">
        <ele>879</ele>
        <time>2016-05-29T08:17:06Z</time>
      </trkpt>
      <trkpt lat="43.9863" lon="5.41341">
        <ele>879</ele>
        <time>2016-05-29T08:17:10Z</time>
      </trkpt>
      <trkpt lat="43.98636" lon="5.41342">
        <ele>881</ele>
        <time>2016-05-29T08:17:13Z</time>
      </trkpt>
      <trkpt lat="43.98642" lon="5.41344">
        <ele>881</ele>
        <time>2016-05-29T08:17:16Z</time>
      </trkpt>
      <trkpt lat="43.98647" lon="5.41345">
        <ele>881</ele>
        <time>2016-05-29T08:17:18Z</time>
      </trkpt>
      <trkpt lat="43.98653" lon="5.41347">
        <ele>881.6</ele>
        <time>2016-05-29T08:17:21Z</time>
      </trkpt>
      <trkpt lat="43.9866" lon="5.41348">
        <ele>882</ele>
        <time>2016-05-29T08:17:24Z</time>
      </trkpt>
      <trkpt lat="43.98667" lon="5.4135">
        <ele>882</ele>
        <time>2016-05-29T08:17:27Z</time>
      </trkpt>
      <trkpt lat="43.98674" lon="5.41351">
        <ele>882</ele>
        <time>2016-05-29T08:17:30Z</time>
      </trkpt>
      <trkpt lat="43.9868" lon="5.41351">
        <ele>884</ele>
        <time>2016-05-29T08:17:33Z</time>
      </trkpt>
      <trkpt lat="43.98686" lon="5.4135">
        <ele>884</ele>
        <time>2016-05-29T08:17:36Z</time>
      </trkpt>
      <trkpt lat="43.98692" lon="5.41348">
        <ele>884</ele>
        <time>2016-05-29T08:17:39Z</time>
      </trkpt>
      <trkpt lat="43.98699" lon="5.41347">
        <ele>885</ele>
        <time>2016-05-29T08:17:43Z</time>
      </trkpt>
      <trkpt lat="43.98706" lon="5.41347">
        <ele>885</ele>
        <time>2016-05-29T08:17:47Z</time>
      </trkpt>
      <trkpt lat="43.98713" lon="5.41347">
        <ele>886.3</ele>
        <time>2016-05-29T08:17:51Z</time>
      </trkpt>
      <trkpt lat="43.98721" lon="5.41349">
        <ele>887</ele>
        <time>2016-05-29T08:17:56Z</time>
      </trkpt>
      <trkpt lat="43.98729" lon="5.41352">
        <ele>888.9</ele>
        <time>2016-05-29T08:18:01Z</time>
      </trkpt>
      <trkpt lat="43.98738" lon="5.41355">
        <ele>890</ele>
        <time>2016-05-29T08:18:06Z</time>
      </trkpt>
      <trkpt lat="43.98746" lon="5.41357">
        <ele>890</ele>
        <time>2016-05-29T08:18:10Z</time>
      </trkpt>
      <trkpt lat="43.98755" lon="5.41359">
        <ele>892</ele>
        <time>2016-05-29T08:18:14Z</time>
      </trkpt>
      <trkpt lat="43.98763" lon="5.41362">
        <ele>892</ele>
        <time>2016-05-29T08:18:18Z</time>
      </trkpt>
      <trkpt lat="43.98771" lon="5.41365">
        <ele>892</ele>
        <time>2016-05-29T08:18:22Z</time>
      </trkpt>
      <trkpt lat="43.98778" lon="5.41368">
        <ele>892</ele>
        <time>2016-05-29T08:18:25Z</time>
      </trkpt>
      <trkpt lat="43.98783" lon="5.41372">
        <ele>892</ele>
        <time>2016-05-29T08:18:28Z</time>
      </trkpt>
      <trkpt lat="43.98789" lon="5.41374">
        <ele>893.3</ele>
        <time>2016-05-29T08:18:31Z</time>
      </trkpt>
      <trkpt lat="43.98794" lon="5.41376">
        <ele>894</ele>
        <time>2016-05-29T08:18:33Z</time>
      </trkpt>
      <trkpt lat="43.98801" lon="5.41378">
        <ele>894</ele>
        <time>2016-05-29T08:18:37Z</time>
      </trkpt>
      <trkpt lat="43.98807" lon="5.41379">
        <ele>895</ele>
        <time>2016-05-29T08:18:42Z</time>
      </trkpt>
      <trkpt lat="43.98812" lon="5.4138">
        <ele>895</ele>
        <time>2016-05-29T08:18:45Z</time>
      </trkpt>
      <trkpt lat="43.98817" lon="5.41381">
        <ele>895</ele>
        <time>2016-05-29T08:18:49Z</time>
      </trkpt>
      <trkpt lat="43.98824" lon="5.41382">
        <ele>897</ele>
        <time>2016-05-29T08:18:54Z</time>
      </trkpt>
      <trkpt lat="43.98829" lon="5.41383">
        <ele>897</ele>
        <time>2016-05-29T08:18:57Z</time>
      </trkpt>
      <trkpt lat="43.98834" lon="5.41383">
        <ele>898.9</ele>
        <time>2016-05-29T08:19:01Z</time>
      </trkpt>
      <trkpt lat="43.98839" lon="5.41384">
        <ele>900</ele>
        <time>2016-05-29T08:19:04Z</time>
      </trkpt>
      <trkpt lat="43.98843" lon="5.41386">
        <ele>900</ele>
        <time>2016-05-29T08:19:07Z</time>
      </trkpt>
      <trkpt lat="43.98847" lon="5.41388">
        <ele>900</ele>
        <time>2016-05-29T08:19:10Z</time>
      </trkpt>
      <trkpt lat="43.98851" lon="5.41391">
        <ele>901</ele>
        <time>2016-05-29T08:19:13Z</time>
      </trkpt>
      <trkpt lat="43.98855" lon="5.41395">
        <ele>901</ele>
        <time>2016-05-29T08:19:16Z</time>
      </trkpt>
      <trkpt lat="43.98859" lon="5.41399">
        <ele>901</ele>
        <time>2016-05-29T08:19:19Z</time>
      </trkpt>
      <trkpt lat="43.98863" lon="5.41403">
        <ele>903</ele>
        <time>2016-05-29T08:19:22Z</time>
      </trkpt>
      <trkpt lat="43.98868" lon="5.41409">
        <ele>903</ele>
        <time>2016-05-29T08:19:26Z</time>
      </trkpt>
      <trkpt lat="43.98872" lon="5.41414">
        <ele>903</ele>
        <time>2016-05-29T08:19:29Z</time>
      </trkpt>
      <trkpt lat="43.98877" lon="5.4142">
        <ele>905</ele>
        <time>2016-05-29T08:19:33Z</time>
      </trkpt>
      <trkpt lat="43.98883" lon="5.41425">
        <ele>905</ele>
        <time>2016-05-29T08:19:37Z</time>
      </trkpt>
      <trkpt lat="43.98887" lon="5.41429">
        <ele>905</ele>
        <time>2016-05-29T08:19:40Z</time>
      </trkpt>
      <trkpt lat="43.98891" lon="5.41432">
        <ele>906</ele>
        <time>2016-05-29T08:19:42Z</time>
      </trkpt>
      <trkpt lat="43.98895" lon="5.41434">
        <ele>906</ele>
        <time>2016-05-29T08:19:44Z</time>
      </trkpt>
      <trkpt lat="43.98899" lon="5.41436">
        <ele>906</ele>
        <time>2016-05-29T08:19:46Z</time>
      </trkpt>
      <trkpt lat="43.98903" lon="5.41439">
        <ele>906</ele>
        <time>2016-05-29T08:19:48Z</time>
      </trkpt>
      <trkpt lat="43.98906" lon="5.4144">
        <ele>906</ele>
        <time>2016-05-29T08:19:50Z</time>
      </trkpt>
      <trkpt lat="43.98912" lon="5.41443">
        <ele>907</ele>
        <time>2016-05-29T08:19:53Z</time>
      </trkpt>
      <trkpt lat="43.98918" lon="5.41447">
        <ele>907</ele>
        <time>2016-05-29T08:19:56Z</time>
      </trkpt>
      <trkpt lat="43.98923" lon="5.4145">
        <ele>907</ele>
        <time>2016-05-29T08:19:59Z</time>
      </trkpt>
      <trkpt lat="43.98926" lon="5.41452">
        <ele>908.3</ele>
        <time>2016-05-29T08:20:01Z</time>
      </trkpt>
      <trkpt lat="43.98929" lon="5.41453">
        <ele>909</ele>
        <time>2016-05-29T08:20:03Z</time>
      </trkpt>
      <trkpt lat="43.98935" lon="5.41457">
        <ele>909</ele>
        <time>2016-05-29T08:20:07Z</time>
      </trkpt>
      <trkpt lat="43.98941" lon="5.41461">
        <ele>909.6</ele>
        <time>2016-05-29T08:20:11Z</time>
      </trkpt>
      <trkpt lat="43.98948" lon="5.41463">
        <ele>910</ele>
        <time>2016-05-29T08:20:15Z</time>
      </trkpt>
      <trkpt lat="43.98952" lon="5.41465">
        <ele>910</ele>
        <time>2016-05-29T08:20:18Z</time>
      </trkpt>
      <trkpt lat="43.98957" lon="5.41468">
        <ele>911.3</ele>
        <time>2016-05-29T08:20:21Z</time>
      </trkpt>
      <trkpt lat="43.9896" lon="5.41469">
        <ele>912</ele>
        <time>2016-05-29T08:20:23Z</time>
      </trkpt>
      <trkpt lat="43.98964" lon="5.41472">
        <ele>912</ele>
        <time>2016-05-29T08:20:26Z</time>
      </trkpt>
      <trkpt lat="43.98968" lon="5.41475">
        <ele>912</ele>
        <time>2016-05-29T08:20:29Z</time>
      </trkpt>
      <trkpt lat="43.98973" lon="5.41479">
        <ele>914</ele>
        <time>2016-05-29T08:20:32Z</time>
      </trkpt>
      <trkpt lat="43.98977" lon="5.41483">
        <ele>914</ele>
        <time>2016-05-29T08:20:35Z</time>
      </trkpt>
      <trkpt lat="43.98981" lon="5.41487">
        <ele>914</ele>
        <time>2016-05-29T08:20:38Z</time>
      </trkpt>
      <trkpt lat="43.98986" lon="5.41492">
        <ele>915.3</ele>
        <time>2016-05-29T08:20:41Z</time>
      </trkpt>
      <trkpt lat="43.9899" lon="5.41497">
        <ele>916</ele>
        <time>2016-05-29T08:20:44Z</time>
      </trkpt>
      <trkpt lat="43.98995" lon="5.41502">
        <ele>916</ele>
        <time>2016-05-29T08:20:47Z</time>
      </trkpt>
      <trkpt lat="43.99001" lon="5.41508">
        <ele>916.6</ele>
        <time>2016-05-29T08:20:51Z</time>
      </trkpt>
      <trkpt lat="43.99005" lon="5.41514">
        <ele>917</ele>
        <time>2016-05-29T08:20:54Z</time>
      </trkpt>
      <trkpt lat="43.9901" lon="5.4152">
        <ele>917</ele>
        <time>2016-05-29T08:20:57Z</time>
      </trkpt>
      <trkpt lat="43.99014" lon="5.41524">
        <ele>917</ele>
        <time>2016-05-29T08:20:59Z</time>
      </trkpt>
      <trkpt lat="43.99018" lon="5.41532">
        <ele>918</ele>
        <time>2016-05-29T08:21:02Z</time>
      </trkpt>
      <trkpt lat="43.9902" lon="5.41538">
        <ele>918</ele>
        <time>2016-05-29T08:21:05Z</time>
      </trkpt>
      <trkpt lat="43.99022" lon="5.41548">
        <ele>918</ele>
        <time>2016-05-29T08:21:09Z</time>
      </trkpt>
      <trkpt lat="43.99025" lon="5.41556">
        <ele>919</ele>
        <time>2016-05-29T08:21:13Z</time>
      </trkpt>
      <trkpt lat="43.99026" lon="5.41565">
        <ele>919</ele>
        <time>2016-05-29T08:21:17Z</time>
      </trkpt>
      <trkpt lat="43.99025" lon="5.41573">
        <ele>919</ele>
        <time>2016-05-29T08:21:20Z</time>
      </trkpt>
      <trkpt lat="43.99025" lon="5.4158">
        <ele>922</ele>
        <time>2016-05-29T08:21:23Z</time>
      </trkpt>
      <trkpt lat="43.99025" lon="5.41587">
        <ele>922</ele>
        <time>2016-05-29T08:21:26Z</time>
      </trkpt>
      <trkpt lat="43.99028" lon="5.41595">
        <ele>922</ele>
        <time>2016-05-29T08:21:29Z</time>
      </trkpt>
      <trkpt lat="43.99032" lon="5.41603">
        <ele>922</ele>
        <time>2016-05-29T08:21:32Z</time>
      </trkpt>
      <trkpt lat="43.99036" lon="5.41609">
        <ele>922</ele>
        <time>2016-05-29T08:21:35Z</time>
      </trkpt>
      <trkpt lat="43.99039" lon="5.41615">
        <ele>922</ele>
        <time>2016-05-29T08:21:38Z</time>
      </trkpt>
      <trkpt lat="43.99043" lon="5.41621">
        <ele>923.3</ele>
        <time>2016-05-29T08:21:41Z</time>
      </trkpt>
      <trkpt lat="43.99047" lon="5.41627">
        <ele>924</ele>
        <time>2016-05-29T08:21:44Z</time>
      </trkpt>
      <trkpt lat="43.99053" lon="5.41633">
        <ele>924</ele>
        <time>2016-05-29T08:21:47Z</time>
      </trkpt>
      <trkpt lat="43.99058" lon="5.41638">
        <ele>924</ele>
        <time>2016-05-29T08:21:50Z</time>
      </trkpt>
      <trkpt lat="43.99064" lon="5.41643">
        <ele>924</ele>
        <time>2016-05-29T08:21:53Z</time>
      </trkpt>
      <trkpt lat="43.9907" lon="5.41648">
        <ele>924</ele>
        <time>2016-05-29T08:21:56Z</time>
      </trkpt>
      <trkpt lat="43.99076" lon="5.41653">
        <ele>924</ele>
        <time>2016-05-29T08:22:00Z</time>
      </trkpt>
      <trkpt lat="43.99081" lon="5.41658">
        <ele>926</ele>
        <time>2016-05-29T08:22:03Z</time>
      </trkpt>
      <trkpt lat="43.99086" lon="5.41662">
        <ele>926</ele>
        <time>2016-05-29T08:22:06Z</time>
      </trkpt>
      <trkpt lat="43.99091" lon="5.41667">
        <ele>926</ele>
        <time>2016-05-29T08:22:09Z</time>
      </trkpt>
      <trkpt lat="43.99095" lon="5.41671">
        <ele>928</ele>
        <time>2016-05-29T08:22:12Z</time>
      </trkpt>
      <trkpt lat="43.99101" lon="5.41675">
        <ele>928</ele>
        <time>2016-05-29T08:22:15Z</time>
      </trkpt>
      <trkpt lat="43.99105" lon="5.41679">
        <ele>928</ele>
        <time>2016-05-29T08:22:18Z</time>
      </trkpt>
      <trkpt lat="43.9911" lon="5.41684">
        <ele>929.9</ele>
        <time>2016-05-29T08:22:21Z</time>
      </trkpt>
      <trkpt lat="43.99115" lon="5.41687">
        <ele>931</ele>
        <time>2016-05-29T08:22:24Z</time>
      </trkpt>
      <trkpt lat="43.99121" lon="5.41689">
        <ele>932</ele>
        <time>2016-05-29T08:22:27Z</time>
      </trkpt>
      <trkpt lat="43.99127" lon="5.4169">
        <ele>932</ele>
        <time>2016-05-29T08:22:30Z</time>
      </trkpt>
      <trkpt lat="43.99131" lon="5.4169">
        <ele>932</ele>
        <time>2016-05-29T08:22:32Z</time>
      </trkpt>
      <trkpt lat="43.99138" lon="5.41689">
        <ele>932</ele>
        <time>2016-05-29T08:22:34Z</time>
      </trkpt>
      <trkpt lat="43.99145" lon="5.41689">
        <ele>932</ele>
        <time>2016-05-29T08:22:36Z</time>
      </trkpt>
      <trkpt lat="43.99151" lon="5.41689">
        <ele>932</ele>
        <time>2016-05-29T08:22:38Z</time>
      </trkpt>
      <trkpt lat="43.99157" lon="5.41689">
        <ele>932</ele>
        <time>2016-05-29T08:22:40Z</time>
      </trkpt>
      <trkpt lat="43.99165" lon="5.4169">
        <ele>932</ele>
        <time>2016-05-29T08:22:43Z</time>
      </trkpt>
      <trkpt lat="43.99174" lon="5.41692">
        <ele>932</ele>
        <time>2016-05-29T08:22:46Z</time>
      </trkpt>
      <trkpt lat="43.99179" lon="5.41693">
        <ele>932</ele>
        <time>2016-05-29T08:22:48Z</time>
      </trkpt>
      <trkpt lat="43.99185" lon="5.41694">
        <ele>932</ele>
        <time>2016-05-29T08:22:50Z</time>
      </trkpt>
      <trkpt lat="43.99191" lon="5.41695">
        <ele>931</ele>
        <time>2016-05-29T08:22:52Z</time>
      </trkpt>
      <trkpt lat="43.99197" lon="5.41696">
        <ele>931</ele>
        <time>2016-05-29T08:22:54Z</time>
      </trkpt>
      <trkpt lat="43.99202" lon="5.41697">
        <ele>931</ele>
        <time>2016-05-29T08:22:56Z</time>
      </trkpt>
      <trkpt lat="43.99207" lon="5.41698">
        <ele>931</ele>
        <time>2016-05-29T08:22:58Z</time>
      </trkpt>
      <trkpt lat="43.99212" lon="5.41698">
        <ele>931</ele>
        <time>2016-05-29T08:23:00Z</time>
      </trkpt>
      <trkpt lat="43.9922" lon="5.41698">
        <ele>932</ele>
        <time>2016-05-29T08:23:03Z</time>
      </trkpt>
      <trkpt lat="43.99227" lon="5.41698">
        <ele>932</ele>
        <time>2016-05-29T08:23:06Z</time>
      </trkpt>
      <trkpt lat="43.99233" lon="5.41697">
        <ele>932</ele>
        <time>2016-05-29T08:23:09Z</time>
      </trkpt>
      <trkpt lat="43.99241" lon="5.41696">
        <ele>933</ele>
        <time>2016-05-29T08:23:12Z</time>
      </trkpt>
      <trkpt lat="43.99246" lon="5.41694">
        <ele>933</ele>
        <time>2016-05-29T08:23:14Z</time>
      </trkpt>
      <trkpt lat="43.99252" lon="5.41693">
        <ele>933</ele>
        <time>2016-05-29T08:23:16Z</time>
      </trkpt>
      <trkpt lat="43.99257" lon="5.41689">
        <ele>933</ele>
        <time>2016-05-29T08:23:18Z</time>
      </trkpt>
      <trkpt lat="43.99262" lon="5.41685">
        <ele>933</ele>
        <time>2016-05-29T08:23:20Z</time>
      </trkpt>
      <trkpt lat="43.99266" lon="5.41681">
        <ele>933</ele>
        <time>2016-05-29T08:23:22Z</time>
      </trkpt>
      <trkpt lat="43.9927" lon="5.41677">
        <ele>933</ele>
        <time>2016-05-29T08:23:24Z</time>
      </trkpt>
      <trkpt lat="43.99273" lon="5.41673">
        <ele>933</ele>
        <time>2016-05-29T08:23:26Z</time>
      </trkpt>
      <trkpt lat="43.99277" lon="5.41668">
        <ele>933</ele>
        <time>2016-05-29T08:23:28Z</time>
      </trkpt>
      <trkpt lat="43.9928" lon="5.41663">
        <ele>933</ele>
        <time>2016-05-29T08:23:30Z</time>
      </trkpt>
      <trkpt lat="43.99284" lon="5.41658">
        <ele>935</ele>
        <time>2016-05-29T08:23:32Z</time>
      </trkpt>
      <trkpt lat="43.99287" lon="5.41652">
        <ele>935</ele>
        <time>2016-05-29T08:23:34Z</time>
      </trkpt>
      <trkpt lat="43.99291" lon="5.41646">
        <ele>935</ele>
        <time>2016-05-29T08:23:36Z</time>
      </trkpt>
      <trkpt lat="43.99295" lon="5.4164">
        <ele>935</ele>
        <time>2016-05-29T08:23:38Z</time>
      </trkpt>
      <trkpt lat="43.99299" lon="5.41635">
        <ele>935</ele>
        <time>2016-05-29T08:23:40Z</time>
      </trkpt>
      <trkpt lat="43.99303" lon="5.4163">
        <ele>935</ele>
        <time>2016-05-29T08:23:42Z</time>
      </trkpt>
      <trkpt lat="43.99306" lon="5.41624">
        <ele>935</ele>
        <time>2016-05-29T08:23:44Z</time>
      </trkpt>
      <trkpt lat="43.9931" lon="5.41619">
        <ele>935</ele>
        <time>2016-05-29T08:23:46Z</time>
      </trkpt>
      <trkpt lat="43.99313" lon="5.41614">
        <ele>935</ele>
        <time>2016-05-29T08:23:48Z</time>
      </trkpt>
      <trkpt lat="43.99316" lon="5.41608">
        <ele>935</ele>
        <time>2016-05-29T08:23:50Z</time>
      </trkpt>
      <trkpt lat="43.99318" lon="5.41601">
        <ele>935</ele>
        <time>2016-05-29T08:23:52Z</time>
      </trkpt>
      <trkpt lat="43.99319" lon="5.41595">
        <ele>935</ele>
        <time>2016-05-29T08:23:54Z</time>
      </trkpt>
      <trkpt lat="43.9932" lon="5.41589">
        <ele>935</ele>
        <time>2016-05-29T08:23:56Z</time>
      </trkpt>
      <trkpt lat="43.9932" lon="5.41583">
        <ele>935</ele>
        <time>2016-05-29T08:23:58Z</time>
      </trkpt>
      <trkpt lat="43.99318" lon="5.41574">
        <ele>936.9</ele>
        <time>2016-05-29T08:24:01Z</time>
      </trkpt>
      <trkpt lat="43.99315" lon="5.41566">
        <ele>938</ele>
        <time>2016-05-29T08:24:05Z</time>
      </trkpt>
      <trkpt lat="43.99308" lon="5.4156">
        <ele>939</ele>
        <time>2016-05-29T08:24:09Z</time>
      </trkpt>
      <trkpt lat="43.99302" lon="5.41556">
        <ele>940</ele>
        <time>2016-05-29T08:24:12Z</time>
      </trkpt>
      <trkpt lat="43.99298" lon="5.41553">
        <ele>940</ele>
        <time>2016-05-29T08:24:15Z</time>
      </trkpt>
      <trkpt lat="43.99292" lon="5.41549">
        <ele>940</ele>
        <time>2016-05-29T08:24:19Z</time>
      </trkpt>
      <trkpt lat="43.99286" lon="5.41543">
        <ele>941</ele>
        <time>2016-05-29T08:24:24Z</time>
      </trkpt>
      <trkpt lat="43.9928" lon="5.41536">
        <ele>941</ele>
        <time>2016-05-29T08:24:29Z</time>
      </trkpt>
      <trkpt lat="43.99274" lon="5.41529">
        <ele>943</ele>
        <time>2016-05-29T08:24:33Z</time>
      </trkpt>
      <trkpt lat="43.99269" lon="5.41522">
        <ele>943</ele>
        <time>2016-05-29T08:24:37Z</time>
      </trkpt>
      <trkpt lat="43.99264" lon="5.41514">
        <ele>943.6</ele>
        <time>2016-05-29T08:24:41Z</time>
      </trkpt>
      <trkpt lat="43.99261" lon="5.41508">
        <ele>944</ele>
        <time>2016-05-29T08:24:44Z</time>
      </trkpt>
      <trkpt lat="43.99258" lon="5.41502">
        <ele>944</ele>
        <time>2016-05-29T08:24:47Z</time>
      </trkpt>
      <trkpt lat="43.99255" lon="5.41497">
        <ele>944</ele>
        <time>2016-05-29T08:24:50Z</time>
      </trkpt>
      <trkpt lat="43.99251" lon="5.41491">
        <ele>945</ele>
        <time>2016-05-29T08:24:53Z</time>
      </trkpt>
      <trkpt lat="43.99248" lon="5.41486">
        <ele>945</ele>
        <time>2016-05-29T08:24:56Z</time>
      </trkpt>
      <trkpt lat="43.99244" lon="5.4148">
        <ele>945</ele>
        <time>2016-05-29T08:24:59Z</time>
      </trkpt>
      <trkpt lat="43.99239" lon="5.41473">
        <ele>947</ele>
        <time>2016-05-29T08:25:02Z</time>
      </trkpt>
      <trkpt lat="43.99236" lon="5.41469">
        <ele>947</ele>
        <time>2016-05-29T08:25:04Z</time>
      </trkpt>
      <trkpt lat="43.99233" lon="5.41462">
        <ele>947</ele>
        <time>2016-05-29T08:25:07Z</time>
      </trkpt>
      <trkpt lat="43.9923" lon="5.41457">
        <ele>947</ele>
        <time>2016-05-29T08:25:09Z</time>
      </trkpt>
      <trkpt lat="43.99227" lon="5.41449">
        <ele>947</ele>
        <time>2016-05-29T08:25:12Z</time>
      </trkpt>
      <trkpt lat="43.99225" lon="5.41443">
        <ele>947</ele>
        <time>2016-05-29T08:25:14Z</time>
      </trkpt>
      <trkpt lat="43.99222" lon="5.41437">
        <ele>947</ele>
        <time>2016-05-29T08:25:16Z</time>
      </trkpt>
      <trkpt lat="43.99219" lon="5.41428">
        <ele>947</ele>
        <time>2016-05-29T08:25:19Z</time>
      </trkpt>
      <trkpt lat="43.99217" lon="5.41422">
        <ele>947</ele>
        <time>2016-05-29T08:25:21Z</time>
      </trkpt>
      <trkpt lat="43.99214" lon="5.4141">
        <ele>947</ele>
        <time>2016-05-29T08:25:25Z</time>
      </trkpt>
      <trkpt lat="43.99213" lon="5.41402">
        <ele>947</ele>
        <time>2016-05-29T08:25:28Z</time>
      </trkpt>
      <trkpt lat="43.99212" lon="5.41393">
        <ele>947.6</ele>
        <time>2016-05-29T08:25:31Z</time>
      </trkpt>
      <trkpt lat="43.99211" lon="5.41386">
        <ele>948</ele>
        <time>2016-05-29T08:25:34Z</time>
      </trkpt>
      <trkpt lat="43.99211" lon="5.41378">
        <ele>948</ele>
        <time>2016-05-29T08:25:37Z</time>
      </trkpt>
      <trkpt lat="43.99211" lon="5.41373">
        <ele>948</ele>
        <time>2016-05-29T08:25:39Z</time>
      </trkpt>
      <trkpt lat="43.9921" lon="5.41368">
        <ele>949.3</ele>
        <time>2016-05-29T08:25:41Z</time>
      </trkpt>
      <trkpt lat="43.9921" lon="5.41364">
        <ele>950</ele>
        <time>2016-05-29T08:25:43Z</time>
      </trkpt>
      <trkpt lat="43.9921" lon="5.41356">
        <ele>950</ele>
        <time>2016-05-29T08:25:46Z</time>
      </trkpt>
      <trkpt lat="43.9921" lon="5.4135">
        <ele>950</ele>
        <time>2016-05-29T08:25:49Z</time>
      </trkpt>
      <trkpt lat="43.99209" lon="5.41343">
        <ele>952</ele>
        <time>2016-05-29T08:25:52Z</time>
      </trkpt>
      <trkpt lat="43.99209" lon="5.41336">
        <ele>952</ele>
        <time>2016-05-29T08:25:55Z</time>
      </trkpt>
      <trkpt lat="43.99209" lon="5.4133">
        <ele>952</ele>
        <time>2016-05-29T08:25:58Z</time>
      </trkpt>
      <trkpt lat="43.99209" lon="5.41323">
        <ele>953.3</ele>
        <time>2016-05-29T08:26:01Z</time>
      </trkpt>
      <trkpt lat="43.99208" lon="5.41316">
        <ele>954</ele>
        <time>2016-05-29T08:26:04Z</time>
      </trkpt>
      <trkpt lat="43.99209" lon="5.41309">
        <ele>954</ele>
        <time>2016-05-29T08:26:08Z</time>
      </trkpt>
      <trkpt lat="43.99209" lon="5.41301">
        <ele>956</ele>
        <time>2016-05-29T08:26:12Z</time>
      </trkpt>
      <trkpt lat="43.99209" lon="5.41293">
        <ele>956</ele>
        <time>2016-05-29T08:26:16Z</time>
      </trkpt>
      <trkpt lat="43.99209" lon="5.41284">
        <ele>956</ele>
        <time>2016-05-29T08:26:20Z</time>
      </trkpt>
      <trkpt lat="43.9921" lon="5.41277">
        <ele>957</ele>
        <time>2016-05-29T08:26:23Z</time>
      </trkpt>
      <trkpt lat="43.99211" lon="5.41269">
        <ele>957</ele>
        <time>2016-05-29T08:26:26Z</time>
      </trkpt>
      <trkpt lat="43.99211" lon="5.4126">
        <ele>957</ele>
        <time>2016-05-29T08:26:30Z</time>
      </trkpt>
      <trkpt lat="43.99212" lon="5.41253">
        <ele>958</ele>
        <time>2016-05-29T08:26:33Z</time>
      </trkpt>
      <trkpt lat="43.99213" lon="5.41244">
        <ele>958</ele>
        <time>2016-05-29T08:26:36Z</time>
      </trkpt>
      <trkpt lat="43.99213" lon="5.41238">
        <ele>958</ele>
        <time>2016-05-29T08:26:39Z</time>
      </trkpt>
      <trkpt lat="43.99213" lon="5.4123">
        <ele>960</ele>
        <time>2016-05-29T08:26:42Z</time>
      </trkpt>
      <trkpt lat="43.99213" lon="5.41223">
        <ele>960</ele>
        <time>2016-05-29T08:26:45Z</time>
      </trkpt>
      <trkpt lat="43.99211" lon="5.41214">
        <ele>960</ele>
        <time>2016-05-29T08:26:48Z</time>
      </trkpt>
      <trkpt lat="43.9921" lon="5.41209">
        <ele>960</ele>
        <time>2016-05-29T08:26:50Z</time>
      </trkpt>
      <trkpt lat="43.99207" lon="5.41198">
        <ele>962</ele>
        <time>2016-05-29T08:26:54Z</time>
      </trkpt>
      <trkpt lat="43.99203" lon="5.41189">
        <ele>962</ele>
        <time>2016-05-29T08:26:57Z</time>
      </trkpt>
      <trkpt lat="43.99199" lon="5.41179">
        <ele>962</ele>
        <time>2016-05-29T08:27:00Z</time>
      </trkpt>
      <trkpt lat="43.99195" lon="5.41171">
        <ele>964</ele>
        <time>2016-05-29T08:27:03Z</time>
      </trkpt>
      <trkpt lat="43.99191" lon="5.41162">
        <ele>964</ele>
        <time>2016-05-29T08:27:06Z</time>
      </trkpt>
      <trkpt lat="43.99189" lon="5.41156">
        <ele>964</ele>
        <time>2016-05-29T08:27:08Z</time>
      </trkpt>
      <trkpt lat="43.99187" lon="5.4115">
        <ele>964</ele>
        <time>2016-05-29T08:27:10Z</time>
      </trkpt>
      <trkpt lat="43.99185" lon="5.41142">
        <ele>964</ele>
        <time>2016-05-29T08:27:13Z</time>
      </trkpt>
      <trkpt lat="43.99184" lon="5.41136">
        <ele>964</ele>
        <time>2016-05-29T08:27:15Z</time>
      </trkpt>
      <trkpt lat="43.99182" lon="5.41128">
        <ele>964</ele>
        <time>2016-05-29T08:27:18Z</time>
      </trkpt>
      <trkpt lat="43.9918" lon="5.41122">
        <ele>964</ele>
        <time>2016-05-29T08:27:20Z</time>
      </trkpt>
      <trkpt lat="43.99179" lon="5.41116">
        <ele>966</ele>
        <time>2016-05-29T08:27:22Z</time>
      </trkpt>
      <trkpt lat="43.99179" lon="5.4111">
        <ele>966</ele>
        <time>2016-05-29T08:27:24Z</time>
      </trkpt>
      <trkpt lat="43.99177" lon="5.41101">
        <ele>966</ele>
        <time>2016-05-29T08:27:27Z</time>
      </trkpt>
      <trkpt lat="43.99177" lon="5.41092">
        <ele>966</ele>
        <time>2016-05-29T08:27:30Z</time>
      </trkpt>
      <trkpt lat="43.99177" lon="5.41083">
        <ele>968</ele>
        <time>2016-05-29T08:27:33Z</time>
      </trkpt>
      <trkpt lat="43.99175" lon="5.41073">
        <ele>968</ele>
        <time>2016-05-29T08:27:36Z</time>
      </trkpt>
      <trkpt lat="43.99172" lon="5.41062">
        <ele>968</ele>
        <time>2016-05-29T08:27:39Z</time>
      </trkpt>
      <trkpt lat="43.99169" lon="5.41053">
        <ele>969</ele>
        <time>2016-05-29T08:27:42Z</time>
      </trkpt>
      <trkpt lat="43.99165" lon="5.41044">
        <ele>969</ele>
        <time>2016-05-29T08:27:45Z</time>
      </trkpt>
      <trkpt lat="43.99161" lon="5.41034">
        <ele>969</ele>
        <time>2016-05-29T08:27:48Z</time>
      </trkpt>
      <trkpt lat="43.99159" lon="5.41024">
        <ele>969.6</ele>
        <time>2016-05-29T08:27:51Z</time>
      </trkpt>
      <trkpt lat="43.99156" lon="5.41014">
        <ele>970</ele>
        <time>2016-05-29T08:27:54Z</time>
      </trkpt>
      <trkpt lat="43.99152" lon="5.41004">
        <ele>970</ele>
        <time>2016-05-29T08:27:57Z</time>
      </trkpt>
      <trkpt lat="43.99149" lon="5.40996">
        <ele>970</ele>
        <time>2016-05-29T08:27:59Z</time>
      </trkpt>
      <trkpt lat="43.99146" lon="5.40989">
        <ele>970.6</ele>
        <time>2016-05-29T08:28:01Z</time>
      </trkpt>
      <trkpt lat="43.99143" lon="5.40979">
        <ele>971</ele>
        <time>2016-05-29T08:28:04Z</time>
      </trkpt>
      <trkpt lat="43.99141" lon="5.4097">
        <ele>971</ele>
        <time>2016-05-29T08:28:07Z</time>
      </trkpt>
      <trkpt lat="43.99137" lon="5.40959">
        <ele>971</ele>
        <time>2016-05-29T08:28:10Z</time>
      </trkpt>
      <trkpt lat="43.99136" lon="5.40947">
        <ele>972</ele>
        <time>2016-05-29T08:28:14Z</time>
      </trkpt>
      <trkpt lat="43.99133" lon="5.4094">
        <ele>972</ele>
        <time>2016-05-29T08:28:16Z</time>
      </trkpt>
      <trkpt lat="43.99131" lon="5.40932">
        <ele>972</ele>
        <time>2016-05-29T08:28:19Z</time>
      </trkpt>
      <trkpt lat="43.99128" lon="5.40921">
        <ele>972</ele>
        <time>2016-05-29T08:28:22Z</time>
      </trkpt>
      <trkpt lat="43.99124" lon="5.40913">
        <ele>972</ele>
        <time>2016-05-29T08:28:24Z</time>
      </trkpt>
      <trkpt lat="43.99122" lon="5.40905">
        <ele>972</ele>
        <time>2016-05-29T08:28:26Z</time>
      </trkpt>
      <trkpt lat="43.99119" lon="5.40895">
        <ele>972</ele>
        <time>2016-05-29T08:28:29Z</time>
      </trkpt>
      <trkpt lat="43.99117" lon="5.40884">
        <ele>971</ele>
        <time>2016-05-29T08:28:32Z</time>
      </trkpt>
      <trkpt lat="43.99116" lon="5.40878">
        <ele>971</ele>
        <time>2016-05-29T08:28:34Z</time>
      </trkpt>
      <trkpt lat="43.99117" lon="5.40872">
        <ele>971</ele>
        <time>2016-05-29T08:28:37Z</time>
      </trkpt>
      <trkpt lat="43.99118" lon="5.40869">
        <ele>970</ele>
        <time>2016-05-29T08:28:54Z</time>
      </trkpt>
      <trkpt lat="43.99116" lon="5.40866">
        <ele>970</ele>
        <time>2016-05-29T08:36:47Z</time>
      </trkpt>
      <trkpt lat="43.99112" lon="5.40867">
        <ele>970</ele>
        <time>2016-05-29T08:36:51Z</time>
      </trkpt>
      <trkpt lat="43.99109" lon="5.40864">
        <ele>970</ele>
        <time>2016-05-29T08:36:55Z</time>
      </trkpt>
      <trkpt lat="43.99107" lon="5.40858">
        <ele>971</ele>
        <time>2016-05-29T08:37:00Z</time>
      </trkpt>
      <trkpt lat="43.99105" lon="5.40853">
        <ele>970</ele>
        <time>2016-05-29T08:37:03Z</time>
      </trkpt>
      <trkpt lat="43.99102" lon="5.40849">
        <ele>970</ele>
        <time>2016-05-29T08:37:07Z</time>
      </trkpt>
      <trkpt lat="43.991" lon="5.40844">
        <ele>970</ele>
        <time>2016-05-29T08:37:10Z</time>
      </trkpt>
      <trkpt lat="43.99097" lon="5.40838">
        <ele>970</ele>
        <time>2016-05-29T08:37:13Z</time>
      </trkpt>
      <trkpt lat="43.99091" lon="5.40831">
        <ele>970</ele>
        <time>2016-05-29T08:37:16Z</time>
      </trkpt>
      <trkpt lat="43.99085" lon="5.40827">
        <ele>970</ele>
        <time>2016-05-29T08:37:18Z</time>
      </trkpt>
      <trkpt lat="43.99078" lon="5.40823">
        <ele>969.4</ele>
        <time>2016-05-29T08:37:21Z</time>
      </trkpt>
      <trkpt lat="43.99071" lon="5.40819">
        <ele>969</ele>
        <time>2016-05-29T08:37:23Z</time>
      </trkpt>
      <trkpt lat="43.99064" lon="5.40813">
        <ele>969</ele>
        <time>2016-05-29T08:37:25Z</time>
      </trkpt>
      <trkpt lat="43.99058" lon="5.40806">
        <ele>969</ele>
        <time>2016-05-29T08:37:27Z</time>
      </trkpt>
      <trkpt lat="43.99053" lon="5.40797">
        <ele>969</ele>
        <time>2016-05-29T08:37:29Z</time>
      </trkpt>
      <trkpt lat="43.99047" lon="5.40788">
        <ele>967.1</ele>
        <time>2016-05-29T08:37:31Z</time>
      </trkpt>
      <trkpt lat="43.9904" lon="5.40778">
        <ele>966</ele>
        <time>2016-05-29T08:37:33Z</time>
      </trkpt>
      <trkpt lat="43.99034" lon="5.40762">
        <ele>964.7</ele>
        <time>2016-05-29T08:37:36Z</time>
      </trkpt>
      <trkpt lat="43.99031" lon="5.40747">
        <ele>964</ele>
        <time>2016-05-29T08:37:39Z</time>
      </trkpt>
      <trkpt lat="43.99033" lon="5.40736">
        <ele>964</ele>
        <time>2016-05-29T08:37:42Z</time>
      </trkpt>
      <trkpt lat="43.99039" lon="5.40729">
        <ele>964</ele>
        <time>2016-05-29T08:37:46Z</time>
      </trkpt>
      <trkpt lat="43.99036" lon="5.4072">
        <ele>964</ele>
        <time>2016-05-29T08:37:51Z</time>
      </trkpt>
      <trkpt lat="43.99036" lon="5.40712">
        <ele>964</ele>
        <time>2016-05-29T08:37:54Z</time>
      </trkpt>
      <trkpt lat="43.99039" lon="5.40704">
        <ele>964</ele>
        <time>2016-05-29T08:37:57Z</time>
      </trkpt>
      <trkpt lat="43.99044" lon="5.40695">
        <ele>964</ele>
        <time>2016-05-29T08:38:01Z</time>
      </trkpt>
      <trkpt lat="43.99045" lon="5.40686">
        <ele>964</ele>
        <time>2016-05-29T08:38:05Z</time>
      </trkpt>
      <trkpt lat="43.99042" lon="5.40674">
        <ele>964.6</ele>
        <time>2016-05-29T08:38:11Z</time>
      </trkpt>
      <trkpt lat="43.99044" lon="5.40661">
        <ele>965</ele>
        <time>2016-05-29T08:38:17Z</time>
      </trkpt>
      <trkpt lat="43.99049" lon="5.4065">
        <ele>965</ele>
        <time>2016-05-29T08:38:23Z</time>
      </trkpt>
      <trkpt lat="43.99054" lon="5.40643">
        <ele>965</ele>
        <time>2016-05-29T08:38:26Z</time>
      </trkpt>
      <trkpt lat="43.99059" lon="5.40636">
        <ele>965</ele>
        <time>2016-05-29T08:38:29Z</time>
      </trkpt>
      <trkpt lat="43.99061" lon="5.40629">
        <ele>965</ele>
        <time>2016-05-29T08:38:32Z</time>
      </trkpt>
      <trkpt lat="43.9906" lon="5.40622">
        <ele>965</ele>
        <time>2016-05-29T08:38:35Z</time>
      </trkpt>
      <trkpt lat="43.99057" lon="5.40614">
        <ele>965</ele>
        <time>2016-05-29T08:38:39Z</time>
      </trkpt>
      <trkpt lat="43.99054" lon="5.40607">
        <ele>966</ele>
        <time>2016-05-29T08:38:42Z</time>
      </trkpt>
      <trkpt lat="43.99051" lon="5.40601">
        <ele>966</ele>
        <time>2016-05-29T08:38:46Z</time>
      </trkpt>
      <trkpt lat="43.99045" lon="5.40599">
        <ele>966</ele>
        <time>2016-05-29T08:38:50Z</time>
      </trkpt>
      <trkpt lat="43.99038" lon="5.40596">
        <ele>967</ele>
        <time>2016-05-29T08:38:55Z</time>
      </trkpt>
      <trkpt lat="43.99028" lon="5.40593">
        <ele>967.6</ele>
        <time>2016-05-29T08:39:01Z</time>
      </trkpt>
      <trkpt lat="43.99021" lon="5.40598">
        <ele>968</ele>
        <time>2016-05-29T08:39:09Z</time>
      </trkpt>
      <trkpt lat="43.99013" lon="5.40603">
        <ele>970</ele>
        <time>2016-05-29T08:39:15Z</time>
      </trkpt>
      <trkpt lat="43.99006" lon="5.40605">
        <ele>970</ele>
        <time>2016-05-29T08:39:19Z</time>
      </trkpt>
      <trkpt lat="43.99002" lon="5.4061">
        <ele>971</ele>
        <time>2016-05-29T08:39:23Z</time>
      </trkpt>
      <trkpt lat="43.98997" lon="5.40614">
        <ele>971</ele>
        <time>2016-05-29T08:39:27Z</time>
      </trkpt>
      <trkpt lat="43.98992" lon="5.40617">
        <ele>972</ele>
        <time>2016-05-29T08:39:32Z</time>
      </trkpt>
      <trkpt lat="43.98988" lon="5.40612">
        <ele>972</ele>
        <time>2016-05-29T08:39:37Z</time>
      </trkpt>
      <trkpt lat="43.98983" lon="5.40608">
        <ele>972.6</ele>
        <time>2016-05-29T08:39:41Z</time>
      </trkpt>
      <trkpt lat="43.98977" lon="5.40606">
        <ele>973</ele>
        <time>2016-05-29T08:39:46Z</time>
      </trkpt>
      <trkpt lat="43.9897" lon="5.40603">
        <ele>974</ele>
        <time>2016-05-29T08:39:55Z</time>
      </trkpt>
      <trkpt lat="43.98963" lon="5.40597">
        <ele>975.3</ele>
        <time>2016-05-29T08:40:01Z</time>
      </trkpt>
      <trkpt lat="43.98956" lon="5.40592">
        <ele>976</ele>
        <time>2016-05-29T08:40:05Z</time>
      </trkpt>
      <trkpt lat="43.98951" lon="5.40587">
        <ele>976</ele>
        <time>2016-05-29T08:40:08Z</time>
      </trkpt>
      <trkpt lat="43.98946" lon="5.40579">
        <ele>977</ele>
        <time>2016-05-29T08:40:12Z</time>
      </trkpt>
      <trkpt lat="43.98943" lon="5.40572">
        <ele>977</ele>
        <time>2016-05-29T08:40:16Z</time>
      </trkpt>
      <trkpt lat="43.98938" lon="5.40565">
        <ele>977.6</ele>
        <time>2016-05-29T08:40:21Z</time>
      </trkpt>
      <trkpt lat="43.98932" lon="5.40559">
        <ele>978</ele>
        <time>2016-05-29T08:40:26Z</time>
      </trkpt>
      <trkpt lat="43.98925" lon="5.40554">
        <ele>979</ele>
        <time>2016-05-29T08:40:32Z</time>
      </trkpt>
      <trkpt lat="43.98918" lon="5.40547">
        <ele>979</ele>
        <time>2016-05-29T08:40:37Z</time>
      </trkpt>
      <trkpt lat="43.9891" lon="5.4054">
        <ele>980</ele>
        <time>2016-05-29T08:40:44Z</time>
      </trkpt>
      <trkpt lat="43.98903" lon="5.40534">
        <ele>980</ele>
        <time>2016-05-29T08:40:50Z</time>
      </trkpt>
      <trkpt lat="43.98898" lon="5.40529">
        <ele>982</ele>
        <time>2016-05-29T08:40:57Z</time>
      </trkpt>
      <trkpt lat="43.98893" lon="5.40526">
        <ele>983</ele>
        <time>2016-05-29T08:41:06Z</time>
      </trkpt>
      <trkpt lat="43.98886" lon="5.40524">
        <ele>984</ele>
        <time>2016-05-29T08:41:14Z</time>
      </trkpt>
      <trkpt lat="43.98881" lon="5.40519">
        <ele>984</ele>
        <time>2016-05-29T08:41:20Z</time>
      </trkpt>
      <trkpt lat="43.98876" lon="5.40515">
        <ele>985</ele>
        <time>2016-05-29T08:41:27Z</time>
      </trkpt>
      <trkpt lat="43.98868" lon="5.40512">
        <ele>987</ele>
        <time>2016-05-29T08:41:38Z</time>
      </trkpt>
      <trkpt lat="43.98864" lon="5.40512">
        <ele>988</ele>
        <time>2016-05-29T08:41:43Z</time>
      </trkpt>
      <trkpt lat="43.9886" lon="5.40513">
        <ele>988</ele>
        <time>2016-05-29T08:41:50Z</time>
      </trkpt>
      <trkpt lat="43.98855" lon="5.40515">
        <ele>990</ele>
        <time>2016-05-29T08:41:57Z</time>
      </trkpt>
      <trkpt lat="43.98851" lon="5.40516">
        <ele>991</ele>
        <time>2016-05-29T08:42:03Z</time>
      </trkpt>
      <trkpt lat="43.98848" lon="5.40514">
        <ele>991</ele>
        <time>2016-05-29T08:42:09Z</time>
      </trkpt>
      <trkpt lat="43.98843" lon="5.40512">
        <ele>993</ele>
        <time>2016-05-29T08:42:16Z</time>
      </trkpt>
      <trkpt lat="43.98838" lon="5.40511">
        <ele>994</ele>
        <time>2016-05-29T08:42:26Z</time>
      </trkpt>
      <trkpt lat="43.98833" lon="5.40509">
        <ele>996</ele>
        <time>2016-05-29T08:42:34Z</time>
      </trkpt>
      <trkpt lat="43.98827" lon="5.40509">
        <ele>998</ele>
        <time>2016-05-29T08:42:50Z</time>
      </trkpt>
      <trkpt lat="43.9882" lon="5.4051">
        <ele>1000</ele>
        <time>2016-05-29T08:43:00Z</time>
      </trkpt>
      <trkpt lat="43.98812" lon="5.40511">
        <ele>1002</ele>
        <time>2016-05-29T08:43:11Z</time>
      </trkpt>
      <trkpt lat="43.98806" lon="5.40511">
        <ele>1003.3</ele>
        <time>2016-05-29T08:43:21Z</time>
      </trkpt>
      <trkpt lat="43.988" lon="5.40514">
        <ele>1005</ele>
        <time>2016-05-29T08:43:32Z</time>
      </trkpt>
      <trkpt lat="43.98793" lon="5.40515">
        <ele>1007</ele>
        <time>2016-05-29T08:43:45Z</time>
      </trkpt>
      <trkpt lat="43.98788" lon="5.40518">
        <ele>1010</ele>
        <time>2016-05-29T08:43:57Z</time>
      </trkpt>
      <trkpt lat="43.98781" lon="5.40521">
        <ele>1011</ele>
        <time>2016-05-29T08:44:09Z</time>
      </trkpt>
      <trkpt lat="43.98773" lon="5.40524">
        <ele>1015</ele>
        <time>2016-05-29T08:44:23Z</time>
      </trkpt>
      <trkpt lat="43.98765" lon="5.40526">
        <ele>1017</ele>
        <time>2016-05-29T08:44:34Z</time>
      </trkpt>
      <trkpt lat="43.98759" lon="5.40525">
        <ele>1018</ele>
        <time>2016-05-29T08:44:43Z</time>
      </trkpt>
      <trkpt lat="43.98752" lon="5.40525">
        <ele>1020</ele>
        <time>2016-05-29T08:44:54Z</time>
      </trkpt>
      <trkpt lat="43.98743" lon="5.40524">
        <ele>1022.3</ele>
        <time>2016-05-29T08:45:11Z</time>
      </trkpt>
      <trkpt lat="43.98735" lon="5.4052">
        <ele>1024.3</ele>
        <time>2016-05-29T08:45:21Z</time>
      </trkpt>
      <trkpt lat="43.98726" lon="5.40516">
        <ele>1027</ele>
        <time>2016-05-29T08:45:37Z</time>
      </trkpt>
      <trkpt lat="43.98716" lon="5.40515">
        <ele>1030</ele>
        <time>2016-05-29T08:45:52Z</time>
      </trkpt>
      <trkpt lat="43.98709" lon="5.40509">
        <ele>1031.3</ele>
        <time>2016-05-29T08:46:01Z</time>
      </trkpt>
      <trkpt lat="43.98701" lon="5.40507">
        <ele>1032</ele>
        <time>2016-05-29T08:46:13Z</time>
      </trkpt>
      <trkpt lat="43.98692" lon="5.40511">
        <ele>1033</ele>
        <time>2016-05-29T08:46:25Z</time>
      </trkpt>
      <trkpt lat="43.98685" lon="5.40517">
        <ele>1035</ele>
        <time>2016-05-29T08:46:35Z</time>
      </trkpt>
      <trkpt lat="43.98679" lon="5.4052">
        <ele>1037</ele>
        <time>2016-05-29T08:46:43Z</time>
      </trkpt>
      <trkpt lat="43.98673" lon="5.40525">
        <ele>1037</ele>
        <time>2016-05-29T08:46:50Z</time>
      </trkpt>
      <trkpt lat="43.98667" lon="5.40529">
        <ele>1038</ele>
        <time>2016-05-29T08:46:58Z</time>
      </trkpt>
      <trkpt lat="43.98662" lon="5.40535">
        <ele>1040</ele>
        <time>2016-05-29T08:47:05Z</time>
      </trkpt>
      <trkpt lat="43.98655" lon="5.40539">
        <ele>1041</ele>
        <time>2016-05-29T08:47:16Z</time>
      </trkpt>
      <trkpt lat="43.98647" lon="5.40541">
        <ele>1043</ele>
        <time>2016-05-29T08:47:26Z</time>
      </trkpt>
      <trkpt lat="43.98642" lon="5.40542">
        <ele>1044</ele>
        <time>2016-05-29T08:47:32Z</time>
      </trkpt>
      <trkpt lat="43.98636" lon="5.40545">
        <ele>1045.3</ele>
        <time>2016-05-29T08:47:41Z</time>
      </trkpt>
      <trkpt lat="43.98631" lon="5.40549">
        <ele>1046</ele>
        <time>2016-05-29T08:47:48Z</time>
      </trkpt>
      <trkpt lat="43.98626" lon="5.40552">
        <ele>1048</ele>
        <time>2016-05-29T08:47:55Z</time>
      </trkpt>
      <trkpt lat="43.98622" lon="5.40553">
        <ele>1049</ele>
        <time>2016-05-29T08:48:02Z</time>
      </trkpt>
      <trkpt lat="43.98614" lon="5.40553">
        <ele>1049</ele>
        <time>2016-05-29T08:48:11Z</time>
      </trkpt>
      <trkpt lat="43.98608" lon="5.40557">
        <ele>1049</ele>
        <time>2016-05-29T08:48:18Z</time>
      </trkpt>
      <trkpt lat="43.98602" lon="5.4056">
        <ele>1051</ele>
        <time>2016-05-29T08:48:25Z</time>
      </trkpt>
      <trkpt lat="43.98598" lon="5.40564">
        <ele>1052</ele>
        <time>2016-05-29T08:48:32Z</time>
      </trkpt>
      <trkpt lat="43.98596" lon="5.40562">
        <ele>1053</ele>
        <time>2016-05-29T08:48:45Z</time>
      </trkpt>
      <trkpt lat="43.98594" lon="5.40558">
        <ele>1052</ele>
        <time>2016-05-29T09:16:46Z</time>
      </trkpt>
      <trkpt lat="43.98592" lon="5.4055">
        <ele>1052</ele>
        <time>2016-05-29T09:17:41Z</time>
      </trkpt>
      <trkpt lat="43.98591" lon="5.40534">
        <ele>1052</ele>
        <time>2016-05-29T09:17:43Z</time>
      </trkpt>
      <trkpt lat="43.98589" lon="5.40519">
        <ele>1052</ele>
        <time>2016-05-29T09:17:45Z</time>
      </trkpt>
      <trkpt lat="43.98582" lon="5.40504">
        <ele>1052</ele>
        <time>2016-05-29T09:17:47Z</time>
      </trkpt>
      <trkpt lat="43.9858" lon="5.40485">
        <ele>1052</ele>
        <time>2016-05-29T09:17:49Z</time>
      </trkpt>
      <trkpt lat="43.98585" lon="5.40463">
        <ele>1049.4</ele>
        <time>2016-05-29T09:17:51Z</time>
      </trkpt>
      <trkpt lat="43.98584" lon="5.40441">
        <ele>1048</ele>
        <time>2016-05-29T09:17:53Z</time>
      </trkpt>
      <trkpt lat="43.98582" lon="5.40422">
        <ele>1048</ele>
        <time>2016-05-29T09:17:55Z</time>
      </trkpt>
      <trkpt lat="43.98588" lon="5.40407">
        <ele>1042</ele>
        <time>2016-05-29T09:17:58Z</time>
      </trkpt>
      <trkpt lat="43.98594" lon="5.40391">
        <ele>1038.1</ele>
        <time>2016-05-29T09:18:01Z</time>
      </trkpt>
      <trkpt lat="43.98594" lon="5.40371">
        <ele>1035.4</ele>
        <time>2016-05-29T09:18:03Z</time>
      </trkpt>
      <trkpt lat="43.98591" lon="5.40345">
        <ele>1033.7</ele>
        <time>2016-05-29T09:18:05Z</time>
      </trkpt>
      <trkpt lat="43.98589" lon="5.40333">
        <ele>1032.3</ele>
        <time>2016-05-29T09:18:06Z</time>
      </trkpt>
      <trkpt lat="43.98587" lon="5.4032">
        <ele>1032</ele>
        <time>2016-05-29T09:18:07Z</time>
      </trkpt>
      <trkpt lat="43.98584" lon="5.40308">
        <ele>1030.7</ele>
        <time>2016-05-29T09:18:08Z</time>
      </trkpt>
      <trkpt lat="43.98581" lon="5.40297">
        <ele>1029.4</ele>
        <time>2016-05-29T09:18:09Z</time>
      </trkpt>
      <trkpt lat="43.98578" lon="5.40287">
        <ele>1027.7</ele>
        <time>2016-05-29T09:18:10Z</time>
      </trkpt>
      <trkpt lat="43.98567" lon="5.40274">
        <ele>1024.4</ele>
        <time>2016-05-29T09:18:13Z</time>
      </trkpt>
      <trkpt lat="43.98559" lon="5.4027">
        <ele>1023.4</ele>
        <time>2016-05-29T09:18:15Z</time>
      </trkpt>
      <trkpt lat="43.98549" lon="5.40271">
        <ele>1022</ele>
        <time>2016-05-29T09:18:17Z</time>
      </trkpt>
      <trkpt lat="43.98539" lon="5.40263">
        <ele>1021.4</ele>
        <time>2016-05-29T09:18:19Z</time>
      </trkpt>
      <trkpt lat="43.98537" lon="5.40251">
        <ele>1019.4</ele>
        <time>2016-05-29T09:18:21Z</time>
      </trkpt>
      <trkpt lat="43.98539" lon="5.40237">
        <ele>1020</ele>
        <time>2016-05-29T09:18:23Z</time>
      </trkpt>
      <trkpt lat="43.98542" lon="5.40221">
        <ele>1019.4</ele>
        <time>2016-05-29T09:18:25Z</time>
      </trkpt>
      <trkpt lat="43.9855" lon="5.4021">
        <ele>1018</ele>
        <time>2016-05-29T09:18:27Z</time>
      </trkpt>
      <trkpt lat="43.98553" lon="5.40196">
        <ele>1020</ele>
        <time>2016-05-29T09:18:29Z</time>
      </trkpt>
      <trkpt lat="43.98556" lon="5.40182">
        <ele>1019.4</ele>
        <time>2016-05-29T09:18:31Z</time>
      </trkpt>
      <trkpt lat="43.98551" lon="5.40171">
        <ele>1019</ele>
        <time>2016-05-29T09:18:33Z</time>
      </trkpt>
      <trkpt lat="43.98542" lon="5.40158">
        <ele>1019</ele>
        <time>2016-05-29T09:18:35Z</time>
      </trkpt>
      <trkpt lat="43.98536" lon="5.4015">
        <ele>1019</ele>
        <time>2016-05-29T09:18:36Z</time>
      </trkpt>
      <trkpt lat="43.98531" lon="5.40144">
        <ele>1019</ele>
        <time>2016-05-29T09:18:37Z</time>
      </trkpt>
      <trkpt lat="43.98518" lon="5.40141">
        <ele>1019</ele>
        <time>2016-05-29T09:18:40Z</time>
      </trkpt>
      <trkpt lat="43.98507" lon="5.40149">
        <ele>1008</ele>
        <time>2016-05-29T09:18:42Z</time>
      </trkpt>
      <trkpt lat="43.98497" lon="5.40156">
        <ele>1003.3</ele>
        <time>2016-05-29T09:18:44Z</time>
      </trkpt>
      <trkpt lat="43.98486" lon="5.40165">
        <ele>1002.3</ele>
        <time>2016-05-29T09:18:46Z</time>
      </trkpt>
      <trkpt lat="43.98474" lon="5.40177">
        <ele>1002</ele>
        <time>2016-05-29T09:18:48Z</time>
      </trkpt>
      <trkpt lat="43.98464" lon="5.40187">
        <ele>1000.3</ele>
        <time>2016-05-29T09:18:50Z</time>
      </trkpt>
      <trkpt lat="43.9845" lon="5.4019">
        <ele>997</ele>
        <time>2016-05-29T09:18:53Z</time>
      </trkpt>
      <trkpt lat="43.98438" lon="5.40191">
        <ele>993.3</ele>
        <time>2016-05-29T09:18:56Z</time>
      </trkpt>
      <trkpt lat="43.98428" lon="5.40185">
        <ele>991</ele>
        <time>2016-05-29T09:18:59Z</time>
      </trkpt>
      <trkpt lat="43.9842" lon="5.40172">
        <ele>988.7</ele>
        <time>2016-05-29T09:19:02Z</time>
      </trkpt>
      <trkpt lat="43.98413" lon="5.40165">
        <ele>987</ele>
        <time>2016-05-29T09:19:04Z</time>
      </trkpt>
      <trkpt lat="43.98408" lon="5.40152">
        <ele>986</ele>
        <time>2016-05-29T09:19:07Z</time>
      </trkpt>
      <trkpt lat="43.98398" lon="5.40146">
        <ele>984.3</ele>
        <time>2016-05-29T09:19:10Z</time>
      </trkpt>
      <trkpt lat="43.98385" lon="5.40152">
        <ele>981.4</ele>
        <time>2016-05-29T09:19:13Z</time>
      </trkpt>
      <trkpt lat="43.98373" lon="5.40149">
        <ele>976.3</ele>
        <time>2016-05-29T09:19:16Z</time>
      </trkpt>
      <trkpt lat="43.98361" lon="5.40141">
        <ele>973.4</ele>
        <time>2016-05-29T09:19:19Z</time>
      </trkpt>
      <trkpt lat="43.9835" lon="5.40137">
        <ele>969.3</ele>
        <time>2016-05-29T09:19:22Z</time>
      </trkpt>
      <trkpt lat="43.98342" lon="5.40127">
        <ele>966.7</ele>
        <time>2016-05-29T09:19:24Z</time>
      </trkpt>
      <trkpt lat="43.98334" lon="5.40119">
        <ele>964.3</ele>
        <time>2016-05-29T09:19:26Z</time>
      </trkpt>
      <trkpt lat="43.98324" lon="5.40117">
        <ele>961.4</ele>
        <time>2016-05-29T09:19:29Z</time>
      </trkpt>
      <trkpt lat="43.98319" lon="5.40101">
        <ele>958.3</ele>
        <time>2016-05-29T09:19:32Z</time>
      </trkpt>
      <trkpt lat="43.98314" lon="5.40086">
        <ele>956</ele>
        <time>2016-05-29T09:19:35Z</time>
      </trkpt>
      <trkpt lat="43.98304" lon="5.40079">
        <ele>954.4</ele>
        <time>2016-05-29T09:19:37Z</time>
      </trkpt>
      <trkpt lat="43.98293" lon="5.40075">
        <ele>951.7</ele>
        <time>2016-05-29T09:19:39Z</time>
      </trkpt>
      <trkpt lat="43.98284" lon="5.40068">
        <ele>949.4</ele>
        <time>2016-05-29T09:19:41Z</time>
      </trkpt>
      <trkpt lat="43.98273" lon="5.40067">
        <ele>947.4</ele>
        <time>2016-05-29T09:19:43Z</time>
      </trkpt>
      <trkpt lat="43.98263" lon="5.40071">
        <ele>944.3</ele>
        <time>2016-05-29T09:19:46Z</time>
      </trkpt>
      <trkpt lat="43.98258" lon="5.40056">
        <ele>941</ele>
        <time>2016-05-29T09:19:49Z</time>
      </trkpt>
      <trkpt lat="43.98251" lon="5.40046">
        <ele>938</ele>
        <time>2016-05-29T09:19:52Z</time>
      </trkpt>
      <trkpt lat="43.98236" lon="5.4005">
        <ele>935.7</ele>
        <time>2016-05-29T09:19:55Z</time>
      </trkpt>
      <trkpt lat="43.98224" lon="5.40052">
        <ele>932.4</ele>
        <time>2016-05-29T09:19:57Z</time>
      </trkpt>
      <trkpt lat="43.9821" lon="5.40054">
        <ele>930.3</ele>
        <time>2016-05-29T09:20:00Z</time>
      </trkpt>
      <trkpt lat="43.98197" lon="5.40046">
        <ele>925.7</ele>
        <time>2016-05-29T09:20:03Z</time>
      </trkpt>
      <trkpt lat="43.98188" lon="5.40037">
        <ele>922.3</ele>
        <time>2016-05-29T09:20:06Z</time>
      </trkpt>
      <trkpt lat="43.98179" lon="5.40029">
        <ele>920</ele>
        <time>2016-05-29T09:20:09Z</time>
      </trkpt>
      <trkpt lat="43.98172" lon="5.40033">
        <ele>917.4</ele>
        <time>2016-05-29T09:20:11Z</time>
      </trkpt>
      <trkpt lat="43.98174" lon="5.40026">
        <ele>916</ele>
        <time>2016-05-29T09:20:23Z</time>
      </trkpt>
      <trkpt lat="43.98174" lon="5.4002">
        <ele>914</ele>
        <time>2016-05-29T09:22:12Z</time>
      </trkpt>
      <trkpt lat="43.98177" lon="5.40014">
        <ele>914</ele>
        <time>2016-05-29T09:22:15Z</time>
      </trkpt>
      <trkpt lat="43.9818" lon="5.40007">
        <ele>914</ele>
        <time>2016-05-29T09:22:17Z</time>
      </trkpt>
      <trkpt lat="43.98183" lon="5.40003">
        <ele>914</ele>
        <time>2016-05-29T09:22:18Z</time>
      </trkpt>
      <trkpt lat="43.98185" lon="5.39999">
        <ele>914</ele>
        <time>2016-05-29T09:22:19Z</time>
      </trkpt>
      <trkpt lat="43.98187" lon="5.39996">
        <ele>914</ele>
        <time>2016-05-29T09:22:20Z</time>
      </trkpt>
      <trkpt lat="43.9819" lon="5.39992">
        <ele>914</ele>
        <time>2016-05-29T09:22:21Z</time>
      </trkpt>
      <trkpt lat="43.98192" lon="5.39988">
        <ele>914</ele>
        <time>2016-05-29T09:22:22Z</time>
      </trkpt>
      <trkpt lat="43.98195" lon="5.39984">
        <ele>914</ele>
        <time>2016-05-29T09:22:23Z</time>
      </trkpt>
      <trkpt lat="43.98197" lon="5.3998">
        <ele>914</ele>
        <time>2016-05-29T09:22:24Z</time>
      </trkpt>
      <trkpt lat="43.982" lon="5.39976">
        <ele>914</ele>
        <time>2016-05-29T09:22:25Z</time>
      </trkpt>
      <trkpt lat="43.98205" lon="5.39969">
        <ele>914</ele>
        <time>2016-05-29T09:22:27Z</time>
      </trkpt>
      <trkpt lat="43.98209" lon="5.3996">
        <ele>914</ele>
        <time>2016-05-29T09:22:29Z</time>
      </trkpt>
      <trkpt lat="43.98215" lon="5.39951">
        <ele>914</ele>
        <time>2016-05-29T09:22:31Z</time>
      </trkpt>
      <trkpt lat="43.98221" lon="5.39942">
        <ele>914</ele>
        <time>2016-05-29T09:22:33Z</time>
      </trkpt>
      <trkpt lat="43.98229" lon="5.39935">
        <ele>914</ele>
        <time>2016-05-29T09:22:35Z</time>
      </trkpt>
      <trkpt lat="43.98236" lon="5.39928">
        <ele>914</ele>
        <time>2016-05-29T09:22:37Z</time>
      </trkpt>
      <trkpt lat="43.98243" lon="5.39923">
        <ele>914</ele>
        <time>2016-05-29T09:22:39Z</time>
      </trkpt>
      <trkpt lat="43.9825" lon="5.39919">
        <ele>915.3</ele>
        <time>2016-05-29T09:22:41Z</time>
      </trkpt>
      <trkpt lat="43.98256" lon="5.39914">
        <ele>916</ele>
        <time>2016-05-29T09:22:43Z</time>
      </trkpt>
      <trkpt lat="43.98262" lon="5.3991">
        <ele>916</ele>
        <time>2016-05-29T09:22:45Z</time>
      </trkpt>
      <trkpt lat="43.98267" lon="5.39906">
        <ele>916</ele>
        <time>2016-05-29T09:22:47Z</time>
      </trkpt>
      <trkpt lat="43.98272" lon="5.39902">
        <ele>916</ele>
        <time>2016-05-29T09:22:49Z</time>
      </trkpt>
      <trkpt lat="43.98277" lon="5.39897">
        <ele>916.6</ele>
        <time>2016-05-29T09:22:51Z</time>
      </trkpt>
      <trkpt lat="43.98285" lon="5.39887">
        <ele>917</ele>
        <time>2016-05-29T09:22:54Z</time>
      </trkpt>
      <trkpt lat="43.98294" lon="5.39877">
        <ele>917</ele>
        <time>2016-05-29T09:22:57Z</time>
      </trkpt>
      <trkpt lat="43.98301" lon="5.39868">
        <ele>917</ele>
        <time>2016-05-29T09:22:59Z</time>
      </trkpt>
      <trkpt lat="43.98308" lon="5.3986">
        <ele>917</ele>
        <time>2016-05-29T09:23:01Z</time>
      </trkpt>
      <trkpt lat="43.98315" lon="5.39853">
        <ele>917</ele>
        <time>2016-05-29T09:23:03Z</time>
      </trkpt>
      <trkpt lat="43.98321" lon="5.39846">
        <ele>917</ele>
        <time>2016-05-29T09:23:05Z</time>
      </trkpt>
      <trkpt lat="43.98327" lon="5.3984">
        <ele>917</ele>
        <time>2016-05-29T09:23:07Z</time>
      </trkpt>
      <trkpt lat="43.98337" lon="5.39832">
        <ele>917</ele>
        <time>2016-05-29T09:23:10Z</time>
      </trkpt>
      <trkpt lat="43.98343" lon="5.39827">
        <ele>917</ele>
        <time>2016-05-29T09:23:12Z</time>
      </trkpt>
      <trkpt lat="43.98349" lon="5.39822">
        <ele>917</ele>
        <time>2016-05-29T09:23:14Z</time>
      </trkpt>
      <trkpt lat="43.98355" lon="5.39816">
        <ele>917</ele>
        <time>2016-05-29T09:23:16Z</time>
      </trkpt>
      <trkpt lat="43.98362" lon="5.39811">
        <ele>917</ele>
        <time>2016-05-29T09:23:18Z</time>
      </trkpt>
      <trkpt lat="43.9837" lon="5.39805">
        <ele>917</ele>
        <time>2016-05-29T09:23:20Z</time>
      </trkpt>
      <trkpt lat="43.98376" lon="5.398">
        <ele>916</ele>
        <time>2016-05-29T09:23:22Z</time>
      </trkpt>
      <trkpt lat="43.98383" lon="5.39795">
        <ele>916</ele>
        <time>2016-05-29T09:23:24Z</time>
      </trkpt>
      <trkpt lat="43.9839" lon="5.39789">
        <ele>916</ele>
        <time>2016-05-29T09:23:26Z</time>
      </trkpt>
      <trkpt lat="43.98397" lon="5.39784">
        <ele>916</ele>
        <time>2016-05-29T09:23:28Z</time>
      </trkpt>
      <trkpt lat="43.98404" lon="5.39778">
        <ele>916</ele>
        <time>2016-05-29T09:23:30Z</time>
      </trkpt>
      <trkpt lat="43.98412" lon="5.39772">
        <ele>915</ele>
        <time>2016-05-29T09:23:32Z</time>
      </trkpt>
      <trkpt lat="43.98419" lon="5.39767">
        <ele>915</ele>
        <time>2016-05-29T09:23:34Z</time>
      </trkpt>
      <trkpt lat="43.98427" lon="5.39761">
        <ele>915</ele>
        <time>2016-05-29T09:23:36Z</time>
      </trkpt>
      <trkpt lat="43.98434" lon="5.39755">
        <ele>915</ele>
        <time>2016-05-29T09:23:38Z</time>
      </trkpt>
      <trkpt lat="43.98441" lon="5.3975">
        <ele>915</ele>
        <time>2016-05-29T09:23:40Z</time>
      </trkpt>
      <trkpt lat="43.98451" lon="5.39744">
        <ele>915</ele>
        <time>2016-05-29T09:23:43Z</time>
      </trkpt>
      <trkpt lat="43.98459" lon="5.39739">
        <ele>915</ele>
        <time>2016-05-29T09:23:46Z</time>
      </trkpt>
      <trkpt lat="43.98468" lon="5.39736">
        <ele>915</ele>
        <time>2016-05-29T09:23:49Z</time>
      </trkpt>
      <trkpt lat="43.98476" lon="5.39731">
        <ele>917</ele>
        <time>2016-05-29T09:23:52Z</time>
      </trkpt>
      <trkpt lat="43.98484" lon="5.39727">
        <ele>917</ele>
        <time>2016-05-29T09:23:55Z</time>
      </trkpt>
      <trkpt lat="43.98491" lon="5.39722">
        <ele>917</ele>
        <time>2016-05-29T09:23:58Z</time>
      </trkpt>
      <trkpt lat="43.98496" lon="5.39719">
        <ele>917</ele>
        <time>2016-05-29T09:24:00Z</time>
      </trkpt>
      <trkpt lat="43.98501" lon="5.39716">
        <ele>918</ele>
        <time>2016-05-29T09:24:05Z</time>
      </trkpt>
      <trkpt lat="43.98506" lon="5.39714">
        <ele>918</ele>
        <time>2016-05-29T09:25:27Z</time>
      </trkpt>
      <trkpt lat="43.98511" lon="5.39712">
        <ele>918</ele>
        <time>2016-05-29T09:25:30Z</time>
      </trkpt>
      <trkpt lat="43.98518" lon="5.39709">
        <ele>918</ele>
        <time>2016-05-29T09:25:34Z</time>
      </trkpt>
      <trkpt lat="43.98523" lon="5.39709">
        <ele>918</ele>
        <time>2016-05-29T09:25:37Z</time>
      </trkpt>
      <trkpt lat="43.98531" lon="5.39707">
        <ele>919.3</ele>
        <time>2016-05-29T09:25:41Z</time>
      </trkpt>
      <trkpt lat="43.98533" lon="5.39707">
        <ele>920</ele>
        <time>2016-05-29T09:25:42Z</time>
      </trkpt>
      <trkpt lat="43.98535" lon="5.39706">
        <ele>920</ele>
        <time>2016-05-29T09:25:43Z</time>
      </trkpt>
      <trkpt lat="43.98537" lon="5.39706">
        <ele>920</ele>
        <time>2016-05-29T09:25:44Z</time>
      </trkpt>
      <trkpt lat="43.98538" lon="5.39705">
        <ele>920</ele>
        <time>2016-05-29T09:25:45Z</time>
      </trkpt>
      <trkpt lat="43.9854" lon="5.39705">
        <ele>920</ele>
        <time>2016-05-29T09:25:46Z</time>
      </trkpt>
      <trkpt lat="43.98542" lon="5.39705">
        <ele>920</ele>
        <time>2016-05-29T09:25:47Z</time>
      </trkpt>
      <trkpt lat="43.98544" lon="5.39705">
        <ele>920</ele>
        <time>2016-05-29T09:25:48Z</time>
      </trkpt>
      <trkpt lat="43.98546" lon="5.39704">
        <ele>920</ele>
        <time>2016-05-29T09:25:49Z</time>
      </trkpt>
      <trkpt lat="43.98548" lon="5.39704">
        <ele>920</ele>
        <time>2016-05-29T09:25:50Z</time>
      </trkpt>
      <trkpt lat="43.98549" lon="5.39704">
        <ele>920.6</ele>
        <time>2016-05-29T09:25:51Z</time>
      </trkpt>
      <trkpt lat="43.98551" lon="5.39704">
        <ele>921</ele>
        <time>2016-05-29T09:25:52Z</time>
      </trkpt>
      <trkpt lat="43.98553" lon="5.39704">
        <ele>921</ele>
        <time>2016-05-29T09:25:53Z</time>
      </trkpt>
      <trkpt lat="43.98555" lon="5.39703">
        <ele>921</ele>
        <time>2016-05-29T09:25:54Z</time>
      </trkpt>
      <trkpt lat="43.98556" lon="5.39703">
        <ele>921</ele>
        <time>2016-05-29T09:25:55Z</time>
      </trkpt>
      <trkpt lat="43.98558" lon="5.39703">
        <ele>921</ele>
        <time>2016-05-29T09:25:56Z</time>
      </trkpt>
      <trkpt lat="43.9856" lon="5.39702">
        <ele>921</ele>
        <time>2016-05-29T09:25:57Z</time>
      </trkpt>
      <trkpt lat="43.98563" lon="5.39702">
        <ele>921</ele>
        <time>2016-05-29T09:25:59Z</time>
      </trkpt>
      <trkpt lat="43.98565" lon="5.39702">
        <ele>921</ele>
        <time>2016-05-29T09:26:00Z</time>
      </trkpt>
      <trkpt lat="43.98567" lon="5.39702">
        <ele>921.6</ele>
        <time>2016-05-29T09:26:01Z</time>
      </trkpt>
      <trkpt lat="43.9857" lon="5.39702">
        <ele>922</ele>
        <time>2016-05-29T09:26:03Z</time>
      </trkpt>
      <trkpt lat="43.98573" lon="5.39702">
        <ele>922</ele>
        <time>2016-05-29T09:26:05Z</time>
      </trkpt>
      <trkpt lat="43.98576" lon="5.39702">
        <ele>922</ele>
        <time>2016-05-29T09:26:07Z</time>
      </trkpt>
      <trkpt lat="43.9858" lon="5.39702">
        <ele>922</ele>
        <time>2016-05-29T09:26:10Z</time>
      </trkpt>
      <trkpt lat="43.98585" lon="5.39702">
        <ele>924</ele>
        <time>2016-05-29T09:26:13Z</time>
      </trkpt>
      <trkpt lat="43.98589" lon="5.39702">
        <ele>924</ele>
        <time>2016-05-29T09:26:16Z</time>
      </trkpt>
      <trkpt lat="43.98594" lon="5.39703">
        <ele>924</ele>
        <time>2016-05-29T09:26:19Z</time>
      </trkpt>
      <trkpt lat="43.98597" lon="5.39703">
        <ele>925.3</ele>
        <time>2016-05-29T09:26:21Z</time>
      </trkpt>
      <trkpt lat="43.986" lon="5.39703">
        <ele>926</ele>
        <time>2016-05-29T09:26:23Z</time>
      </trkpt>
      <trkpt lat="43.98603" lon="5.39704">
        <ele>926</ele>
        <time>2016-05-29T09:26:25Z</time>
      </trkpt>
      <trkpt lat="43.98607" lon="5.39705">
        <ele>926</ele>
        <time>2016-05-29T09:26:28Z</time>
      </trkpt>
      <trkpt lat="43.98611" lon="5.39705">
        <ele>926.6</ele>
        <time>2016-05-29T09:26:31Z</time>
      </trkpt>
      <trkpt lat="43.98615" lon="5.39706">
        <ele>927</ele>
        <time>2016-05-29T09:26:34Z</time>
      </trkpt>
      <trkpt lat="43.9861" lon="5.39703">
        <ele>927</ele>
        <time>2016-05-29T09:26:39Z</time>
      </trkpt>
      <trkpt lat="43.98605" lon="5.39704">
        <ele>927</ele>
        <time>2016-05-29T09:26:41Z</time>
      </trkpt>
      <trkpt lat="43.98598" lon="5.39704">
        <ele>927</ele>
        <time>2016-05-29T09:26:43Z</time>
      </trkpt>
      <trkpt lat="43.98593" lon="5.39704">
        <ele>927</ele>
        <time>2016-05-29T09:26:44Z</time>
      </trkpt>
      <trkpt lat="43.98588" lon="5.39704">
        <ele>927</ele>
        <time>2016-05-29T09:26:45Z</time>
      </trkpt>
      <trkpt lat="43.98583" lon="5.39704">
        <ele>927</ele>
        <time>2016-05-29T09:26:46Z</time>
      </trkpt>
      <trkpt lat="43.98577" lon="5.39704">
        <ele>927</ele>
        <time>2016-05-29T09:26:47Z</time>
      </trkpt>
      <trkpt lat="43.98571" lon="5.39704">
        <ele>927</ele>
        <time>2016-05-29T09:26:48Z</time>
      </trkpt>
      <trkpt lat="43.98564" lon="5.39705">
        <ele>927</ele>
        <time>2016-05-29T09:26:49Z</time>
      </trkpt>
      <trkpt lat="43.98557" lon="5.39705">
        <ele>927</ele>
        <time>2016-05-29T09:26:50Z</time>
      </trkpt>
      <trkpt lat="43.98549" lon="5.39706">
        <ele>925.1</ele>
        <time>2016-05-29T09:26:51Z</time>
      </trkpt>
      <trkpt lat="43.98542" lon="5.39706">
        <ele>924</ele>
        <time>2016-05-29T09:26:52Z</time>
      </trkpt>
      <trkpt lat="43.98534" lon="5.39707">
        <ele>924</ele>
        <time>2016-05-29T09:26:53Z</time>
      </trkpt>
      <trkpt lat="43.98526" lon="5.39708">
        <ele>924</ele>
        <time>2016-05-29T09:26:54Z</time>
      </trkpt>
      <trkpt lat="43.98514" lon="5.3971">
        <ele>922</ele>
        <time>2016-05-29T09:26:56Z</time>
      </trkpt>
      <trkpt lat="43.98503" lon="5.39713">
        <ele>917.7</ele>
        <time>2016-05-29T09:27:02Z</time>
      </trkpt>
      <trkpt lat="43.985" lon="5.39711">
        <ele>921</ele>
        <time>2016-05-29T09:32:42Z</time>
      </trkpt>
      <trkpt lat="43.98496" lon="5.3971">
        <ele>921</ele>
        <time>2016-05-29T09:32:43Z</time>
      </trkpt>
      <trkpt lat="43.98488" lon="5.39707">
        <ele>921</ele>
        <time>2016-05-29T09:32:44Z</time>
      </trkpt>
      <trkpt lat="43.9848" lon="5.39708">
        <ele>921</ele>
        <time>2016-05-29T09:32:45Z</time>
      </trkpt>
      <trkpt lat="43.9847" lon="5.3971">
        <ele>921</ele>
        <time>2016-05-29T09:32:46Z</time>
      </trkpt>
      <trkpt lat="43.98459" lon="5.39713">
        <ele>921</ele>
        <time>2016-05-29T09:32:47Z</time>
      </trkpt>
      <trkpt lat="43.98449" lon="5.39716">
        <ele>921</ele>
        <time>2016-05-29T09:32:48Z</time>
      </trkpt>
      <trkpt lat="43.98439" lon="5.39719">
        <ele>921</ele>
        <time>2016-05-29T09:32:49Z</time>
      </trkpt>
      <trkpt lat="43.98429" lon="5.39722">
        <ele>921</ele>
        <time>2016-05-29T09:32:50Z</time>
      </trkpt>
      <trkpt lat="43.98419" lon="5.39725">
        <ele>915.2</ele>
        <time>2016-05-29T09:32:51Z</time>
      </trkpt>
      <trkpt lat="43.98408" lon="5.39728">
        <ele>908.7</ele>
        <time>2016-05-29T09:32:52Z</time>
      </trkpt>
      <trkpt lat="43.98398" lon="5.3973">
        <ele>905.7</ele>
        <time>2016-05-29T09:32:53Z</time>
      </trkpt>
      <trkpt lat="43.98387" lon="5.39733">
        <ele>904.3</ele>
        <time>2016-05-29T09:32:54Z</time>
      </trkpt>
      <trkpt lat="43.98376" lon="5.39737">
        <ele>903.4</ele>
        <time>2016-05-29T09:32:55Z</time>
      </trkpt>
      <trkpt lat="43.98367" lon="5.39742">
        <ele>903</ele>
        <time>2016-05-29T09:32:56Z</time>
      </trkpt>
      <trkpt lat="43.98349" lon="5.39747">
        <ele>902.3</ele>
        <time>2016-05-29T09:32:58Z</time>
      </trkpt>
      <trkpt lat="43.9833" lon="5.39748">
        <ele>901.3</ele>
        <time>2016-05-29T09:33:00Z</time>
      </trkpt>
      <trkpt lat="43.98312" lon="5.39756">
        <ele>899.3</ele>
        <time>2016-05-29T09:33:02Z</time>
      </trkpt>
      <trkpt lat="43.98302" lon="5.39762">
        <ele>898.4</ele>
        <time>2016-05-29T09:33:03Z</time>
      </trkpt>
      <trkpt lat="43.98291" lon="5.39767">
        <ele>897.3</ele>
        <time>2016-05-29T09:33:04Z</time>
      </trkpt>
      <trkpt lat="43.98282" lon="5.39771">
        <ele>895.7</ele>
        <time>2016-05-29T09:33:05Z</time>
      </trkpt>
      <trkpt lat="43.98272" lon="5.39777">
        <ele>894.3</ele>
        <time>2016-05-29T09:33:06Z</time>
      </trkpt>
      <trkpt lat="43.98262" lon="5.39782">
        <ele>893.4</ele>
        <time>2016-05-29T09:33:07Z</time>
      </trkpt>
      <trkpt lat="43.98251" lon="5.39788">
        <ele>891.7</ele>
        <time>2016-05-29T09:33:08Z</time>
      </trkpt>
      <trkpt lat="43.98241" lon="5.39792">
        <ele>889.7</ele>
        <time>2016-05-29T09:33:09Z</time>
      </trkpt>
      <trkpt lat="43.98223" lon="5.39799">
        <ele>886.4</ele>
        <time>2016-05-29T09:33:11Z</time>
      </trkpt>
      <trkpt lat="43.98205" lon="5.39806">
        <ele>883.7</ele>
        <time>2016-05-29T09:33:13Z</time>
      </trkpt>
      <trkpt lat="43.98185" lon="5.3981">
        <ele>878.7</ele>
        <time>2016-05-29T09:33:15Z</time>
      </trkpt>
      <trkpt lat="43.98174" lon="5.39811">
        <ele>878</ele>
        <time>2016-05-29T09:33:16Z</time>
      </trkpt>
      <trkpt lat="43.98164" lon="5.39813">
        <ele>877.4</ele>
        <time>2016-05-29T09:33:17Z</time>
      </trkpt>
      <trkpt lat="43.98148" lon="5.39816">
        <ele>874.4</ele>
        <time>2016-05-29T09:33:19Z</time>
      </trkpt>
      <trkpt lat="43.98134" lon="5.39818">
        <ele>872.4</ele>
        <time>2016-05-29T09:33:21Z</time>
      </trkpt>
      <trkpt lat="43.98118" lon="5.39823">
        <ele>869.4</ele>
        <time>2016-05-29T09:33:23Z</time>
      </trkpt>
      <trkpt lat="43.98102" lon="5.3983">
        <ele>868.4</ele>
        <time>2016-05-29T09:33:25Z</time>
      </trkpt>
      <trkpt lat="43.9809" lon="5.39836">
        <ele>867.6</ele>
        <time>2016-05-29T09:33:27Z</time>
      </trkpt>
      <trkpt lat="43.98077" lon="5.39842">
        <ele>868</ele>
        <time>2016-05-29T09:33:29Z</time>
      </trkpt>
      <trkpt lat="43.98064" lon="5.3985">
        <ele>867</ele>
        <time>2016-05-29T09:33:31Z</time>
      </trkpt>
      <trkpt lat="43.98047" lon="5.39856">
        <ele>864.4</ele>
        <time>2016-05-29T09:33:33Z</time>
      </trkpt>
      <trkpt lat="43.98028" lon="5.39861">
        <ele>860.4</ele>
        <time>2016-05-29T09:33:35Z</time>
      </trkpt>
      <trkpt lat="43.9801" lon="5.39866">
        <ele>856.7</ele>
        <time>2016-05-29T09:33:37Z</time>
      </trkpt>
      <trkpt lat="43.98002" lon="5.3987">
        <ele>855.3</ele>
        <time>2016-05-29T09:33:38Z</time>
      </trkpt>
      <trkpt lat="43.97993" lon="5.39875">
        <ele>854.4</ele>
        <time>2016-05-29T09:33:39Z</time>
      </trkpt>
      <trkpt lat="43.97984" lon="5.3988">
        <ele>852.7</ele>
        <time>2016-05-29T09:33:40Z</time>
      </trkpt>
      <trkpt lat="43.97966" lon="5.39877">
        <ele>851</ele>
        <time>2016-05-29T09:33:42Z</time>
      </trkpt>
      <trkpt lat="43.97957" lon="5.39873">
        <ele>850.4</ele>
        <time>2016-05-29T09:33:43Z</time>
      </trkpt>
      <trkpt lat="43.97944" lon="5.39878">
        <ele>848.4</ele>
        <time>2016-05-29T09:33:45Z</time>
      </trkpt>
      <trkpt lat="43.97931" lon="5.39878">
        <ele>845.4</ele>
        <time>2016-05-29T09:33:47Z</time>
      </trkpt>
      <trkpt lat="43.97913" lon="5.39871">
        <ele>845</ele>
        <time>2016-05-29T09:33:49Z</time>
      </trkpt>
      <trkpt lat="43.97894" lon="5.39869">
        <ele>842.4</ele>
        <time>2016-05-29T09:33:51Z</time>
      </trkpt>
      <trkpt lat="43.97883" lon="5.39867">
        <ele>841.3</ele>
        <time>2016-05-29T09:33:52Z</time>
      </trkpt>
      <trkpt lat="43.97872" lon="5.39866">
        <ele>841</ele>
        <time>2016-05-29T09:33:53Z</time>
      </trkpt>
      <trkpt lat="43.97862" lon="5.39866">
        <ele>840.3</ele>
        <time>2016-05-29T09:33:54Z</time>
      </trkpt>
      <trkpt lat="43.97851" lon="5.39864">
        <ele>839.4</ele>
        <time>2016-05-29T09:33:55Z</time>
      </trkpt>
      <trkpt lat="43.97841" lon="5.39862">
        <ele>839.7</ele>
        <time>2016-05-29T09:33:56Z</time>
      </trkpt>
      <trkpt lat="43.97822" lon="5.39859">
        <ele>838.7</ele>
        <time>2016-05-29T09:33:58Z</time>
      </trkpt>
      <trkpt lat="43.97811" lon="5.39857">
        <ele>837.4</ele>
        <time>2016-05-29T09:33:59Z</time>
      </trkpt>
      <trkpt lat="43.97799" lon="5.39854">
        <ele>836.3</ele>
        <time>2016-05-29T09:34:00Z</time>
      </trkpt>
      <trkpt lat="43.97788" lon="5.39852">
        <ele>835.4</ele>
        <time>2016-05-29T09:34:01Z</time>
      </trkpt>
      <trkpt lat="43.97778" lon="5.39852">
        <ele>834.3</ele>
        <time>2016-05-29T09:34:02Z</time>
      </trkpt>
      <trkpt lat="43.97767" lon="5.39854">
        <ele>833.4</ele>
        <time>2016-05-29T09:34:03Z</time>
      </trkpt>
      <trkpt lat="43.97756" lon="5.39855">
        <ele>833</ele>
        <time>2016-05-29T09:34:04Z</time>
      </trkpt>
      <trkpt lat="43.97746" lon="5.39856">
        <ele>833</ele>
        <time>2016-05-29T09:34:05Z</time>
      </trkpt>
      <trkpt lat="43.97736" lon="5.39855">
        <ele>832.3</ele>
        <time>2016-05-29T09:34:06Z</time>
      </trkpt>
      <trkpt lat="43.97719" lon="5.39856">
        <ele>831</ele>
        <time>2016-05-29T09:34:08Z</time>
      </trkpt>
      <trkpt lat="43.97703" lon="5.39855">
        <ele>829.3</ele>
        <time>2016-05-29T09:34:10Z</time>
      </trkpt>
      <trkpt lat="43.97686" lon="5.39852">
        <ele>828</ele>
        <time>2016-05-29T09:34:12Z</time>
      </trkpt>
      <trkpt lat="43.97676" lon="5.39849">
        <ele>827.4</ele>
        <time>2016-05-29T09:34:13Z</time>
      </trkpt>
      <trkpt lat="43.97664" lon="5.39847">
        <ele>825</ele>
        <time>2016-05-29T09:34:14Z</time>
      </trkpt>
      <trkpt lat="43.97654" lon="5.39846">
        <ele>824</ele>
        <time>2016-05-29T09:34:15Z</time>
      </trkpt>
      <trkpt lat="43.97644" lon="5.39846">
        <ele>824</ele>
        <time>2016-05-29T09:34:16Z</time>
      </trkpt>
      <trkpt lat="43.97635" lon="5.39846">
        <ele>824</ele>
        <time>2016-05-29T09:34:17Z</time>
      </trkpt>
      <trkpt lat="43.97625" lon="5.39846">
        <ele>824</ele>
        <time>2016-05-29T09:34:18Z</time>
      </trkpt>
      <trkpt lat="43.97617" lon="5.39842">
        <ele>823.4</ele>
        <time>2016-05-29T09:34:19Z</time>
      </trkpt>
      <trkpt lat="43.97609" lon="5.39838">
        <ele>822.3</ele>
        <time>2016-05-29T09:34:20Z</time>
      </trkpt>
      <trkpt lat="43.976" lon="5.39834">
        <ele>821.4</ele>
        <time>2016-05-29T09:34:21Z</time>
      </trkpt>
      <trkpt lat="43.97592" lon="5.39831">
        <ele>820.3</ele>
        <time>2016-05-29T09:34:22Z</time>
      </trkpt>
      <trkpt lat="43.97586" lon="5.39827">
        <ele>820</ele>
        <time>2016-05-29T09:34:23Z</time>
      </trkpt>
      <trkpt lat="43.97574" lon="5.39821">
        <ele>817.4</ele>
        <time>2016-05-29T09:34:25Z</time>
      </trkpt>
      <trkpt lat="43.97561" lon="5.39815">
        <ele>816</ele>
        <time>2016-05-29T09:34:27Z</time>
      </trkpt>
      <trkpt lat="43.97546" lon="5.39809">
        <ele>815</ele>
        <time>2016-05-29T09:34:29Z</time>
      </trkpt>
      <trkpt lat="43.97538" lon="5.39806">
        <ele>815</ele>
        <time>2016-05-29T09:34:30Z</time>
      </trkpt>
      <trkpt lat="43.9753" lon="5.39803">
        <ele>815</ele>
        <time>2016-05-29T09:34:31Z</time>
      </trkpt>
      <trkpt lat="43.97521" lon="5.39801">
        <ele>814.3</ele>
        <time>2016-05-29T09:34:32Z</time>
      </trkpt>
      <trkpt lat="43.97511" lon="5.39799">
        <ele>813.4</ele>
        <time>2016-05-29T09:34:33Z</time>
      </trkpt>
      <trkpt lat="43.97501" lon="5.39798">
        <ele>813</ele>
        <time>2016-05-29T09:34:34Z</time>
      </trkpt>
      <trkpt lat="43.9749" lon="5.39798">
        <ele>813</ele>
        <time>2016-05-29T09:34:35Z</time>
      </trkpt>
      <trkpt lat="43.97479" lon="5.39798">
        <ele>812.3</ele>
        <time>2016-05-29T09:34:36Z</time>
      </trkpt>
      <trkpt lat="43.97469" lon="5.39798">
        <ele>810.7</ele>
        <time>2016-05-29T09:34:37Z</time>
      </trkpt>
      <trkpt lat="43.97459" lon="5.39797">
        <ele>809.3</ele>
        <time>2016-05-29T09:34:38Z</time>
      </trkpt>
      <trkpt lat="43.97449" lon="5.39796">
        <ele>808.4</ele>
        <time>2016-05-29T09:34:39Z</time>
      </trkpt>
      <trkpt lat="43.9743" lon="5.39794">
        <ele>806.4</ele>
        <time>2016-05-29T09:34:41Z</time>
      </trkpt>
      <trkpt lat="43.97421" lon="5.39792">
        <ele>805.3</ele>
        <time>2016-05-29T09:34:42Z</time>
      </trkpt>
      <trkpt lat="43.97411" lon="5.3979">
        <ele>804.4</ele>
        <time>2016-05-29T09:34:43Z</time>
      </trkpt>
      <trkpt lat="43.97402" lon="5.3979">
        <ele>802</ele>
        <time>2016-05-29T09:34:44Z</time>
      </trkpt>
      <trkpt lat="43.97389" lon="5.3979">
        <ele>800</ele>
        <time>2016-05-29T09:34:46Z</time>
      </trkpt>
      <trkpt lat="43.97374" lon="5.39787">
        <ele>798.3</ele>
        <time>2016-05-29T09:34:48Z</time>
      </trkpt>
      <trkpt lat="43.97366" lon="5.39784">
        <ele>797.4</ele>
        <time>2016-05-29T09:34:49Z</time>
      </trkpt>
      <trkpt lat="43.97358" lon="5.39781">
        <ele>797</ele>
        <time>2016-05-29T09:34:50Z</time>
      </trkpt>
      <trkpt lat="43.97348" lon="5.39779">
        <ele>795.7</ele>
        <time>2016-05-29T09:34:51Z</time>
      </trkpt>
      <trkpt lat="43.97339" lon="5.39777">
        <ele>794.3</ele>
        <time>2016-05-29T09:34:52Z</time>
      </trkpt>
      <trkpt lat="43.9733" lon="5.39775">
        <ele>792.7</ele>
        <time>2016-05-29T09:34:53Z</time>
      </trkpt>
      <trkpt lat="43.9732" lon="5.39771">
        <ele>790.7</ele>
        <time>2016-05-29T09:34:54Z</time>
      </trkpt>
      <trkpt lat="43.9731" lon="5.39766">
        <ele>788.7</ele>
        <time>2016-05-29T09:34:55Z</time>
      </trkpt>
      <trkpt lat="43.97299" lon="5.39764">
        <ele>788</ele>
        <time>2016-05-29T09:34:56Z</time>
      </trkpt>
      <trkpt lat="43.97288" lon="5.39762">
        <ele>788</ele>
        <time>2016-05-29T09:34:57Z</time>
      </trkpt>
      <trkpt lat="43.97277" lon="5.3976">
        <ele>787.3</ele>
        <time>2016-05-29T09:34:58Z</time>
      </trkpt>
      <trkpt lat="43.97265" lon="5.39757">
        <ele>786.4</ele>
        <time>2016-05-29T09:34:59Z</time>
      </trkpt>
      <trkpt lat="43.97254" lon="5.39755">
        <ele>785.3</ele>
        <time>2016-05-29T09:35:00Z</time>
      </trkpt>
      <trkpt lat="43.97242" lon="5.39754">
        <ele>783.1</ele>
        <time>2016-05-29T09:35:01Z</time>
      </trkpt>
      <trkpt lat="43.9723" lon="5.39752">
        <ele>782</ele>
        <time>2016-05-29T09:35:02Z</time>
      </trkpt>
      <trkpt lat="43.97219" lon="5.39748">
        <ele>780.1</ele>
        <time>2016-05-29T09:35:03Z</time>
      </trkpt>
      <trkpt lat="43.97209" lon="5.39742">
        <ele>777</ele>
        <time>2016-05-29T09:35:04Z</time>
      </trkpt>
      <trkpt lat="43.97197" lon="5.39736">
        <ele>774.7</ele>
        <time>2016-05-29T09:35:05Z</time>
      </trkpt>
      <trkpt lat="43.97184" lon="5.39732">
        <ele>772.7</ele>
        <time>2016-05-29T09:35:06Z</time>
      </trkpt>
      <trkpt lat="43.97172" lon="5.39729">
        <ele>771.4</ele>
        <time>2016-05-29T09:35:07Z</time>
      </trkpt>
      <trkpt lat="43.97159" lon="5.39726">
        <ele>769.7</ele>
        <time>2016-05-29T09:35:08Z</time>
      </trkpt>
      <trkpt lat="43.97147" lon="5.39724">
        <ele>767.7</ele>
        <time>2016-05-29T09:35:09Z</time>
      </trkpt>
      <trkpt lat="43.97136" lon="5.39722">
        <ele>765.7</ele>
        <time>2016-05-29T09:35:10Z</time>
      </trkpt>
      <trkpt lat="43.97128" lon="5.3972">
        <ele>764.4</ele>
        <time>2016-05-29T09:35:11Z</time>
      </trkpt>
      <trkpt lat="43.97122" lon="5.39708">
        <ele>760.4</ele>
        <time>2016-05-29T09:35:13Z</time>
      </trkpt>
      <trkpt lat="43.97112" lon="5.39693">
        <ele>758.4</ele>
        <time>2016-05-29T09:35:15Z</time>
      </trkpt>
      <trkpt lat="43.97105" lon="5.39682">
        <ele>756.7</ele>
        <time>2016-05-29T09:35:16Z</time>
      </trkpt>
      <trkpt lat="43.97097" lon="5.39671">
        <ele>755.4</ele>
        <time>2016-05-29T09:35:17Z</time>
      </trkpt>
      <trkpt lat="43.97089" lon="5.39661">
        <ele>753.7</ele>
        <time>2016-05-29T09:35:18Z</time>
      </trkpt>
      <trkpt lat="43.9708" lon="5.39651">
        <ele>752.4</ele>
        <time>2016-05-29T09:35:19Z</time>
      </trkpt>
      <trkpt lat="43.97071" lon="5.39644">
        <ele>751.3</ele>
        <time>2016-05-29T09:35:20Z</time>
      </trkpt>
      <trkpt lat="43.97064" lon="5.39638">
        <ele>750.4</ele>
        <time>2016-05-29T09:35:21Z</time>
      </trkpt>
      <trkpt lat="43.97054" lon="5.39618">
        <ele>747.4</ele>
        <time>2016-05-29T09:35:23Z</time>
      </trkpt>
      <trkpt lat="43.97047" lon="5.3961">
        <ele>745.7</ele>
        <time>2016-05-29T09:35:24Z</time>
      </trkpt>
      <trkpt lat="43.97034" lon="5.39607">
        <ele>743.3</ele>
        <time>2016-05-29T09:35:26Z</time>
      </trkpt>
      <trkpt lat="43.97025" lon="5.39607">
        <ele>741.7</ele>
        <time>2016-05-29T09:35:27Z</time>
      </trkpt>
      <trkpt lat="43.97017" lon="5.39609">
        <ele>741</ele>
        <time>2016-05-29T09:35:28Z</time>
      </trkpt>
      <trkpt lat="43.97008" lon="5.39614">
        <ele>740</ele>
        <time>2016-05-29T09:35:31Z</time>
      </trkpt>
      <trkpt lat="43.97014" lon="5.3961">
        <ele>740</ele>
        <time>2016-05-29T09:35:39Z</time>
      </trkpt>
      <trkpt lat="43.97019" lon="5.39609">
        <ele>741</ele>
        <time>2016-05-29T09:35:43Z</time>
      </trkpt>
      <trkpt lat="43.97013" lon="5.39612">
        <ele>741</ele>
        <time>2016-05-29T09:35:53Z</time>
      </trkpt>
      <trkpt lat="43.97008" lon="5.39618">
        <ele>741</ele>
        <time>2016-05-29T09:36:55Z</time>
      </trkpt>
      <trkpt lat="43.97005" lon="5.39619">
        <ele>741</ele>
        <time>2016-05-29T09:37:00Z</time>
      </trkpt>
      <trkpt lat="43.97003" lon="5.39622">
        <ele>741</ele>
        <time>2016-05-29T09:37:13Z</time>
      </trkpt>
      <trkpt lat="43.96998" lon="5.39628">
        <ele>742</ele>
        <time>2016-05-29T09:37:44Z</time>
      </trkpt>
      <trkpt lat="43.96994" lon="5.39633">
        <ele>742</ele>
        <time>2016-05-29T09:37:50Z</time>
      </trkpt>
      <trkpt lat="43.96991" lon="5.39637">
        <ele>743</ele>
        <time>2016-05-29T09:37:56Z</time>
      </trkpt>
      <trkpt lat="43.96988" lon="5.3964">
        <ele>743</ele>
        <time>2016-05-29T09:38:00Z</time>
      </trkpt>
      <trkpt lat="43.96985" lon="5.39643">
        <ele>743</ele>
        <time>2016-05-29T09:38:37Z</time>
      </trkpt>
      <trkpt lat="43.96982" lon="5.39647">
        <ele>743</ele>
        <time>2016-05-29T09:40:02Z</time>
      </trkpt>
      <trkpt lat="43.96977" lon="5.39651">
        <ele>743</ele>
        <time>2016-05-29T09:40:06Z</time>
      </trkpt>
      <trkpt lat="43.96973" lon="5.39655">
        <ele>743</ele>
        <time>2016-05-29T09:40:09Z</time>
      </trkpt>
      <trkpt lat="43.9697" lon="5.39658">
        <ele>743</ele>
        <time>2016-05-29T09:40:12Z</time>
      </trkpt>
      <trkpt lat="43.96967" lon="5.39662">
        <ele>743</ele>
        <time>2016-05-29T09:40:15Z</time>
      </trkpt>
      <trkpt lat="43.96964" lon="5.39665">
        <ele>743</ele>
        <time>2016-05-29T09:40:18Z</time>
      </trkpt>
      <trkpt lat="43.9696" lon="5.39672">
        <ele>744</ele>
        <time>2016-05-29T09:40:24Z</time>
      </trkpt>
      <trkpt lat="43.96967" lon="5.39664">
        <ele>744</ele>
        <time>2016-05-29T09:40:29Z</time>
      </trkpt>
      <trkpt lat="43.96974" lon="5.39657">
        <ele>744</ele>
        <time>2016-05-29T09:40:32Z</time>
      </trkpt>
      <trkpt lat="43.9698" lon="5.39651">
        <ele>744</ele>
        <time>2016-05-29T09:40:36Z</time>
      </trkpt>
      <trkpt lat="43.96982" lon="5.3965">
        <ele>741</ele>
        <time>2016-05-29T09:42:41Z</time>
      </trkpt>
      <trkpt lat="43.96974" lon="5.39641">
        <ele>738</ele>
        <time>2016-05-29T09:47:43Z</time>
      </trkpt>
      <trkpt lat="43.96967" lon="5.39629">
        <ele>738</ele>
        <time>2016-05-29T09:47:45Z</time>
      </trkpt>
      <trkpt lat="43.96959" lon="5.39618">
        <ele>738</ele>
        <time>2016-05-29T09:47:47Z</time>
      </trkpt>
      <trkpt lat="43.96948" lon="5.3962">
        <ele>738</ele>
        <time>2016-05-29T09:47:49Z</time>
      </trkpt>
      <trkpt lat="43.96932" lon="5.39628">
        <ele>732.2</ele>
        <time>2016-05-29T09:47:51Z</time>
      </trkpt>
      <trkpt lat="43.96913" lon="5.39639">
        <ele>723.4</ele>
        <time>2016-05-29T09:47:53Z</time>
      </trkpt>
      <trkpt lat="43.96894" lon="5.3965">
        <ele>721</ele>
        <time>2016-05-29T09:47:55Z</time>
      </trkpt>
      <trkpt lat="43.96884" lon="5.39655">
        <ele>720.3</ele>
        <time>2016-05-29T09:47:56Z</time>
      </trkpt>
      <trkpt lat="43.96867" lon="5.39659">
        <ele>716.3</ele>
        <time>2016-05-29T09:47:58Z</time>
      </trkpt>
      <trkpt lat="43.96851" lon="5.3966">
        <ele>715.3</ele>
        <time>2016-05-29T09:48:00Z</time>
      </trkpt>
      <trkpt lat="43.96835" lon="5.39653">
        <ele>713</ele>
        <time>2016-05-29T09:48:02Z</time>
      </trkpt>
      <trkpt lat="43.96819" lon="5.39652">
        <ele>712.3</ele>
        <time>2016-05-29T09:48:04Z</time>
      </trkpt>
      <trkpt lat="43.96805" lon="5.39652">
        <ele>710.3</ele>
        <time>2016-05-29T09:48:06Z</time>
      </trkpt>
      <trkpt lat="43.96791" lon="5.39655">
        <ele>708</ele>
        <time>2016-05-29T09:48:09Z</time>
      </trkpt>
      <trkpt lat="43.96781" lon="5.39654">
        <ele>706.4</ele>
        <time>2016-05-29T09:48:11Z</time>
      </trkpt>
      <trkpt lat="43.96768" lon="5.39649">
        <ele>706</ele>
        <time>2016-05-29T09:48:13Z</time>
      </trkpt>
      <trkpt lat="43.96755" lon="5.39648">
        <ele>705.4</ele>
        <time>2016-05-29T09:48:15Z</time>
      </trkpt>
      <trkpt lat="43.96743" lon="5.3965">
        <ele>704.4</ele>
        <time>2016-05-29T09:48:17Z</time>
      </trkpt>
      <trkpt lat="43.9673" lon="5.39649">
        <ele>703</ele>
        <time>2016-05-29T09:48:19Z</time>
      </trkpt>
      <trkpt lat="43.96718" lon="5.39649">
        <ele>701.4</ele>
        <time>2016-05-29T09:48:21Z</time>
      </trkpt>
      <trkpt lat="43.96708" lon="5.39654">
        <ele>696.7</ele>
        <time>2016-05-29T09:48:23Z</time>
      </trkpt>
      <trkpt lat="43.96692" lon="5.39654">
        <ele>695</ele>
        <time>2016-05-29T09:48:25Z</time>
      </trkpt>
      <trkpt lat="43.96679" lon="5.39654">
        <ele>693.7</ele>
        <time>2016-05-29T09:48:27Z</time>
      </trkpt>
      <trkpt lat="43.96664" lon="5.3966">
        <ele>690.3</ele>
        <time>2016-05-29T09:48:30Z</time>
      </trkpt>
      <trkpt lat="43.96652" lon="5.39658">
        <ele>689</ele>
        <time>2016-05-29T09:48:32Z</time>
      </trkpt>
      <trkpt lat="43.96639" lon="5.39657">
        <ele>687</ele>
        <time>2016-05-29T09:48:35Z</time>
      </trkpt>
      <trkpt lat="43.96629" lon="5.39647">
        <ele>686</ele>
        <time>2016-05-29T09:48:38Z</time>
      </trkpt>
      <trkpt lat="43.96615" lon="5.39638">
        <ele>685.3</ele>
        <time>2016-05-29T09:48:40Z</time>
      </trkpt>
      <trkpt lat="43.96607" lon="5.39635">
        <ele>684.4</ele>
        <time>2016-05-29T09:48:41Z</time>
      </trkpt>
      <trkpt lat="43.966" lon="5.39632">
        <ele>682.7</ele>
        <time>2016-05-29T09:48:42Z</time>
      </trkpt>
      <trkpt lat="43.96592" lon="5.39629">
        <ele>681.4</ele>
        <time>2016-05-29T09:48:43Z</time>
      </trkpt>
      <trkpt lat="43.96576" lon="5.39627">
        <ele>679.4</ele>
        <time>2016-05-29T09:48:45Z</time>
      </trkpt>
      <trkpt lat="43.96568" lon="5.39626">
        <ele>679</ele>
        <time>2016-05-29T09:48:46Z</time>
      </trkpt>
      <trkpt lat="43.96553" lon="5.39621">
        <ele>677.3</ele>
        <time>2016-05-29T09:48:48Z</time>
      </trkpt>
      <trkpt lat="43.96541" lon="5.39611">
        <ele>676</ele>
        <time>2016-05-29T09:48:50Z</time>
      </trkpt>
      <trkpt lat="43.96526" lon="5.39599">
        <ele>675.3</ele>
        <time>2016-05-29T09:48:52Z</time>
      </trkpt>
      <trkpt lat="43.96511" lon="5.39589">
        <ele>672.3</ele>
        <time>2016-05-29T09:48:54Z</time>
      </trkpt>
      <trkpt lat="43.96496" lon="5.39581">
        <ele>669.7</ele>
        <time>2016-05-29T09:48:56Z</time>
      </trkpt>
      <trkpt lat="43.96483" lon="5.39567">
        <ele>668.3</ele>
        <time>2016-05-29T09:48:58Z</time>
      </trkpt>
      <trkpt lat="43.96476" lon="5.39549">
        <ele>665.7</ele>
        <time>2016-05-29T09:49:00Z</time>
      </trkpt>
      <trkpt lat="43.96474" lon="5.3953">
        <ele>664</ele>
        <time>2016-05-29T09:49:03Z</time>
      </trkpt>
      <trkpt lat="43.96475" lon="5.39511">
        <ele>662.4</ele>
        <time>2016-05-29T09:49:05Z</time>
      </trkpt>
      <trkpt lat="43.96473" lon="5.3949">
        <ele>662</ele>
        <time>2016-05-29T09:49:07Z</time>
      </trkpt>
      <trkpt lat="43.96465" lon="5.39471">
        <ele>660.4</ele>
        <time>2016-05-29T09:49:09Z</time>
      </trkpt>
      <trkpt lat="43.96459" lon="5.39462">
        <ele>660</ele>
        <time>2016-05-29T09:49:10Z</time>
      </trkpt>
      <trkpt lat="43.96449" lon="5.39444">
        <ele>657.3</ele>
        <time>2016-05-29T09:49:12Z</time>
      </trkpt>
      <trkpt lat="43.96439" lon="5.39433">
        <ele>654.7</ele>
        <time>2016-05-29T09:49:14Z</time>
      </trkpt>
      <trkpt lat="43.9643" lon="5.39423">
        <ele>653</ele>
        <time>2016-05-29T09:49:17Z</time>
      </trkpt>
      <trkpt lat="43.96423" lon="5.3941">
        <ele>651</ele>
        <time>2016-05-29T09:49:19Z</time>
      </trkpt>
      <trkpt lat="43.96417" lon="5.39396">
        <ele>651</ele>
        <time>2016-05-29T09:49:21Z</time>
      </trkpt>
      <trkpt lat="43.96408" lon="5.39384">
        <ele>649.7</ele>
        <time>2016-05-29T09:49:23Z</time>
      </trkpt>
      <trkpt lat="43.964" lon="5.39373">
        <ele>648</ele>
        <time>2016-05-29T09:49:25Z</time>
      </trkpt>
      <trkpt lat="43.96388" lon="5.39363">
        <ele>648</ele>
        <time>2016-05-29T09:49:27Z</time>
      </trkpt>
      <trkpt lat="43.96378" lon="5.39352">
        <ele>648</ele>
        <time>2016-05-29T09:49:29Z</time>
      </trkpt>
      <trkpt lat="43.96369" lon="5.39335">
        <ele>645.7</ele>
        <time>2016-05-29T09:49:31Z</time>
      </trkpt>
      <trkpt lat="43.96363" lon="5.39317">
        <ele>644</ele>
        <time>2016-05-29T09:49:33Z</time>
      </trkpt>
      <trkpt lat="43.96356" lon="5.39302">
        <ele>642.4</ele>
        <time>2016-05-29T09:49:35Z</time>
      </trkpt>
      <trkpt lat="43.96348" lon="5.39292">
        <ele>642</ele>
        <time>2016-05-29T09:49:37Z</time>
      </trkpt>
      <trkpt lat="43.96339" lon="5.39277">
        <ele>641</ele>
        <time>2016-05-29T09:49:40Z</time>
      </trkpt>
      <trkpt lat="43.96325" lon="5.39267">
        <ele>638.4</ele>
        <time>2016-05-29T09:49:43Z</time>
      </trkpt>
      <trkpt lat="43.96313" lon="5.39259">
        <ele>638</ele>
        <time>2016-05-29T09:49:45Z</time>
      </trkpt>
      <trkpt lat="43.96297" lon="5.39256">
        <ele>636.4</ele>
        <time>2016-05-29T09:49:47Z</time>
      </trkpt>
      <trkpt lat="43.96281" lon="5.39258">
        <ele>635</ele>
        <time>2016-05-29T09:49:49Z</time>
      </trkpt>
      <trkpt lat="43.96268" lon="5.39258">
        <ele>633.4</ele>
        <time>2016-05-29T09:49:51Z</time>
      </trkpt>
      <trkpt lat="43.96256" lon="5.39255">
        <ele>631.4</ele>
        <time>2016-05-29T09:49:53Z</time>
      </trkpt>
      <trkpt lat="43.96241" lon="5.39247">
        <ele>630.4</ele>
        <time>2016-05-29T09:49:55Z</time>
      </trkpt>
      <trkpt lat="43.96226" lon="5.39236">
        <ele>629</ele>
        <time>2016-05-29T09:49:57Z</time>
      </trkpt>
      <trkpt lat="43.96213" lon="5.39223">
        <ele>628</ele>
        <time>2016-05-29T09:49:59Z</time>
      </trkpt>
      <trkpt lat="43.96199" lon="5.39215">
        <ele>626.4</ele>
        <time>2016-05-29T09:50:01Z</time>
      </trkpt>
      <trkpt lat="43.96186" lon="5.39202">
        <ele>625.4</ele>
        <time>2016-05-29T09:50:03Z</time>
      </trkpt>
      <trkpt lat="43.96178" lon="5.39196">
        <ele>624.3</ele>
        <time>2016-05-29T09:50:04Z</time>
      </trkpt>
      <trkpt lat="43.96171" lon="5.3919">
        <ele>624</ele>
        <time>2016-05-29T09:50:05Z</time>
      </trkpt>
      <trkpt lat="43.96156" lon="5.39181">
        <ele>624</ele>
        <time>2016-05-29T09:50:07Z</time>
      </trkpt>
      <trkpt lat="43.96149" lon="5.39176">
        <ele>623.3</ele>
        <time>2016-05-29T09:50:08Z</time>
      </trkpt>
      <trkpt lat="43.96141" lon="5.3917">
        <ele>622.4</ele>
        <time>2016-05-29T09:50:09Z</time>
      </trkpt>
      <trkpt lat="43.96133" lon="5.39165">
        <ele>621.3</ele>
        <time>2016-05-29T09:50:10Z</time>
      </trkpt>
      <trkpt lat="43.96124" lon="5.3916">
        <ele>620.4</ele>
        <time>2016-05-29T09:50:11Z</time>
      </trkpt>
      <trkpt lat="43.96115" lon="5.39155">
        <ele>619.3</ele>
        <time>2016-05-29T09:50:12Z</time>
      </trkpt>
      <trkpt lat="43.96105" lon="5.39151">
        <ele>619</ele>
        <time>2016-05-29T09:50:13Z</time>
      </trkpt>
      <trkpt lat="43.96096" lon="5.39148">
        <ele>618.3</ele>
        <time>2016-05-29T09:50:14Z</time>
      </trkpt>
      <trkpt lat="43.96087" lon="5.39145">
        <ele>617.4</ele>
        <time>2016-05-29T09:50:15Z</time>
      </trkpt>
      <trkpt lat="43.96078" lon="5.39139">
        <ele>616.3</ele>
        <time>2016-05-29T09:50:16Z</time>
      </trkpt>
      <trkpt lat="43.96069" lon="5.39133">
        <ele>615.4</ele>
        <time>2016-05-29T09:50:17Z</time>
      </trkpt>
      <trkpt lat="43.9606" lon="5.39127">
        <ele>615</ele>
        <time>2016-05-29T09:50:18Z</time>
      </trkpt>
      <trkpt lat="43.9605" lon="5.39123">
        <ele>615</ele>
        <time>2016-05-29T09:50:19Z</time>
      </trkpt>
      <trkpt lat="43.9604" lon="5.39119">
        <ele>613.7</ele>
        <time>2016-05-29T09:50:20Z</time>
      </trkpt>
      <trkpt lat="43.96031" lon="5.39115">
        <ele>611.7</ele>
        <time>2016-05-29T09:50:21Z</time>
      </trkpt>
      <trkpt lat="43.96014" lon="5.39103">
        <ele>611</ele>
        <time>2016-05-29T09:50:23Z</time>
      </trkpt>
      <trkpt lat="43.96005" lon="5.39096">
        <ele>611</ele>
        <time>2016-05-29T09:50:24Z</time>
      </trkpt>
      <trkpt lat="43.95996" lon="5.39089">
        <ele>610.4</ele>
        <time>2016-05-29T09:50:25Z</time>
      </trkpt>
      <trkpt lat="43.95986" lon="5.39081">
        <ele>609.3</ele>
        <time>2016-05-29T09:50:26Z</time>
      </trkpt>
      <trkpt lat="43.95976" lon="5.39074">
        <ele>607.7</ele>
        <time>2016-05-29T09:50:27Z</time>
      </trkpt>
      <trkpt lat="43.95966" lon="5.39068">
        <ele>606.3</ele>
        <time>2016-05-29T09:50:28Z</time>
      </trkpt>
      <trkpt lat="43.95956" lon="5.39062">
        <ele>606</ele>
        <time>2016-05-29T09:50:29Z</time>
      </trkpt>
      <trkpt lat="43.95946" lon="5.39056">
        <ele>606</ele>
        <time>2016-05-29T09:50:30Z</time>
      </trkpt>
      <trkpt lat="43.95932" lon="5.39043">
        <ele>603.3</ele>
        <time>2016-05-29T09:50:32Z</time>
      </trkpt>
      <trkpt lat="43.95918" lon="5.39029">
        <ele>601.3</ele>
        <time>2016-05-29T09:50:34Z</time>
      </trkpt>
      <trkpt lat="43.95907" lon="5.39017">
        <ele>600.4</ele>
        <time>2016-05-29T09:50:36Z</time>
      </trkpt>
      <trkpt lat="43.95896" lon="5.39005">
        <ele>600</ele>
        <time>2016-05-29T09:50:39Z</time>
      </trkpt>
      <trkpt lat="43.95883" lon="5.39005">
        <ele>597.3</ele>
        <time>2016-05-29T09:50:42Z</time>
      </trkpt>
      <trkpt lat="43.95875" lon="5.38994">
        <ele>597</ele>
        <time>2016-05-29T09:50:44Z</time>
      </trkpt>
      <trkpt lat="43.95866" lon="5.3898">
        <ele>596</ele>
        <time>2016-05-29T09:50:46Z</time>
      </trkpt>
      <trkpt lat="43.95853" lon="5.38971">
        <ele>595.3</ele>
        <time>2016-05-29T09:50:48Z</time>
      </trkpt>
      <trkpt lat="43.95841" lon="5.38958">
        <ele>593</ele>
        <time>2016-05-29T09:50:50Z</time>
      </trkpt>
      <trkpt lat="43.95829" lon="5.3894">
        <ele>592.3</ele>
        <time>2016-05-29T09:50:52Z</time>
      </trkpt>
      <trkpt lat="43.95819" lon="5.38921">
        <ele>591.3</ele>
        <time>2016-05-29T09:50:54Z</time>
      </trkpt>
      <trkpt lat="43.95813" lon="5.38911">
        <ele>590.4</ele>
        <time>2016-05-29T09:50:55Z</time>
      </trkpt>
      <trkpt lat="43.95798" lon="5.38897">
        <ele>588.7</ele>
        <time>2016-05-29T09:50:57Z</time>
      </trkpt>
      <trkpt lat="43.95782" lon="5.38897">
        <ele>587.4</ele>
        <time>2016-05-29T09:50:59Z</time>
      </trkpt>
      <trkpt lat="43.95765" lon="5.3889">
        <ele>586.4</ele>
        <time>2016-05-29T09:51:01Z</time>
      </trkpt>
      <trkpt lat="43.95756" lon="5.38883">
        <ele>586</ele>
        <time>2016-05-29T09:51:02Z</time>
      </trkpt>
      <trkpt lat="43.9574" lon="5.38872">
        <ele>584.3</ele>
        <time>2016-05-29T09:51:04Z</time>
      </trkpt>
      <trkpt lat="43.95728" lon="5.38856">
        <ele>584</ele>
        <time>2016-05-29T09:51:06Z</time>
      </trkpt>
      <trkpt lat="43.95717" lon="5.38844">
        <ele>584.3</ele>
        <time>2016-05-29T09:51:08Z</time>
      </trkpt>
      <trkpt lat="43.9571" lon="5.38831">
        <ele>581.4</ele>
        <time>2016-05-29T09:51:10Z</time>
      </trkpt>
      <trkpt lat="43.95699" lon="5.38818">
        <ele>578.4</ele>
        <time>2016-05-29T09:51:13Z</time>
      </trkpt>
      <trkpt lat="43.9569" lon="5.3881">
        <ele>577</ele>
        <time>2016-05-29T09:51:15Z</time>
      </trkpt>
      <trkpt lat="43.95677" lon="5.38806">
        <ele>575.7</ele>
        <time>2016-05-29T09:51:18Z</time>
      </trkpt>
      <trkpt lat="43.95667" lon="5.38801">
        <ele>574.7</ele>
        <time>2016-05-29T09:51:20Z</time>
      </trkpt>
      <trkpt lat="43.95658" lon="5.38794">
        <ele>573</ele>
        <time>2016-05-29T09:51:22Z</time>
      </trkpt>
      <trkpt lat="43.95648" lon="5.38784">
        <ele>573</ele>
        <time>2016-05-29T09:51:24Z</time>
      </trkpt>
      <trkpt lat="43.95638" lon="5.38774">
        <ele>571.3</ele>
        <time>2016-05-29T09:51:26Z</time>
      </trkpt>
      <trkpt lat="43.95629" lon="5.38762">
        <ele>570.3</ele>
        <time>2016-05-29T09:51:28Z</time>
      </trkpt>
      <trkpt lat="43.95619" lon="5.38748">
        <ele>569.3</ele>
        <time>2016-05-29T09:51:30Z</time>
      </trkpt>
      <trkpt lat="43.95611" lon="5.38739">
        <ele>568</ele>
        <time>2016-05-29T09:51:32Z</time>
      </trkpt>
      <trkpt lat="43.95603" lon="5.38726">
        <ele>565.4</ele>
        <time>2016-05-29T09:51:35Z</time>
      </trkpt>
      <trkpt lat="43.95593" lon="5.38714">
        <ele>564.3</ele>
        <time>2016-05-29T09:51:38Z</time>
      </trkpt>
      <trkpt lat="43.95584" lon="5.38704">
        <ele>565</ele>
        <time>2016-05-29T09:51:40Z</time>
      </trkpt>
      <trkpt lat="43.95573" lon="5.38692">
        <ele>565</ele>
        <time>2016-05-29T09:51:42Z</time>
      </trkpt>
      <trkpt lat="43.9556" lon="5.38688">
        <ele>565</ele>
        <time>2016-05-29T09:51:44Z</time>
      </trkpt>
      <trkpt lat="43.9555" lon="5.38682">
        <ele>564.3</ele>
        <time>2016-05-29T09:51:46Z</time>
      </trkpt>
      <trkpt lat="43.95542" lon="5.38669">
        <ele>564</ele>
        <time>2016-05-29T09:51:48Z</time>
      </trkpt>
      <trkpt lat="43.95532" lon="5.38651">
        <ele>564</ele>
        <time>2016-05-29T09:51:50Z</time>
      </trkpt>
      <trkpt lat="43.95526" lon="5.38641">
        <ele>563.4</ele>
        <time>2016-05-29T09:51:51Z</time>
      </trkpt>
      <trkpt lat="43.9552" lon="5.38632">
        <ele>563</ele>
        <time>2016-05-29T09:51:52Z</time>
      </trkpt>
      <trkpt lat="43.95514" lon="5.38622">
        <ele>563</ele>
        <time>2016-05-29T09:51:53Z</time>
      </trkpt>
      <trkpt lat="43.95507" lon="5.38612">
        <ele>563</ele>
        <time>2016-05-29T09:51:54Z</time>
      </trkpt>
      <trkpt lat="43.955" lon="5.38602">
        <ele>563</ele>
        <time>2016-05-29T09:51:55Z</time>
      </trkpt>
      <trkpt lat="43.95494" lon="5.38594">
        <ele>563</ele>
        <time>2016-05-29T09:51:56Z</time>
      </trkpt>
      <trkpt lat="43.95487" lon="5.38587">
        <ele>563</ele>
        <time>2016-05-29T09:51:57Z</time>
      </trkpt>
      <trkpt lat="43.95483" lon="5.38581">
        <ele>563</ele>
        <time>2016-05-29T09:51:58Z</time>
      </trkpt>
      <trkpt lat="43.95486" lon="5.38568">
        <ele>556.5</ele>
        <time>2016-05-29T09:52:01Z</time>
      </trkpt>
      <trkpt lat="43.95494" lon="5.38561">
        <ele>550.7</ele>
        <time>2016-05-29T09:52:03Z</time>
      </trkpt>
      <trkpt lat="43.95496" lon="5.38544">
        <ele>548</ele>
        <time>2016-05-29T09:52:06Z</time>
      </trkpt>
      <trkpt lat="43.95495" lon="5.38523">
        <ele>548</ele>
        <time>2016-05-29T09:52:09Z</time>
      </trkpt>
      <trkpt lat="43.95495" lon="5.38507">
        <ele>546.4</ele>
        <time>2016-05-29T09:52:11Z</time>
      </trkpt>
      <trkpt lat="43.95493" lon="5.38488">
        <ele>544.4</ele>
        <time>2016-05-29T09:52:13Z</time>
      </trkpt>
      <trkpt lat="43.95489" lon="5.3847">
        <ele>542.4</ele>
        <time>2016-05-29T09:52:15Z</time>
      </trkpt>
      <trkpt lat="43.95483" lon="5.38452">
        <ele>541</ele>
        <time>2016-05-29T09:52:17Z</time>
      </trkpt>
      <trkpt lat="43.95482" lon="5.38434">
        <ele>540.4</ele>
        <time>2016-05-29T09:52:19Z</time>
      </trkpt>
      <trkpt lat="43.95483" lon="5.3842">
        <ele>540</ele>
        <time>2016-05-29T09:52:21Z</time>
      </trkpt>
      <trkpt lat="43.95475" lon="5.38405">
        <ele>538.7</ele>
        <time>2016-05-29T09:52:24Z</time>
      </trkpt>
      <trkpt lat="43.95468" lon="5.38392">
        <ele>537</ele>
        <time>2016-05-29T09:52:26Z</time>
      </trkpt>
      <trkpt lat="43.95462" lon="5.38375">
        <ele>535.7</ele>
        <time>2016-05-29T09:52:28Z</time>
      </trkpt>
      <trkpt lat="43.95455" lon="5.38358">
        <ele>533.3</ele>
        <time>2016-05-29T09:52:30Z</time>
      </trkpt>
      <trkpt lat="43.95445" lon="5.38342">
        <ele>532.3</ele>
        <time>2016-05-29T09:52:32Z</time>
      </trkpt>
      <trkpt lat="43.95434" lon="5.38329">
        <ele>531</ele>
        <time>2016-05-29T09:52:34Z</time>
      </trkpt>
      <trkpt lat="43.95422" lon="5.38316">
        <ele>530.3</ele>
        <time>2016-05-29T09:52:36Z</time>
      </trkpt>
      <trkpt lat="43.95413" lon="5.38305">
        <ele>528.3</ele>
        <time>2016-05-29T09:52:38Z</time>
      </trkpt>
      <trkpt lat="43.95402" lon="5.38299">
        <ele>527.3</ele>
        <time>2016-05-29T09:52:40Z</time>
      </trkpt>
      <trkpt lat="43.95393" lon="5.38291">
        <ele>526</ele>
        <time>2016-05-29T09:52:42Z</time>
      </trkpt>
      <trkpt lat="43.95382" lon="5.38284">
        <ele>526</ele>
        <time>2016-05-29T09:52:44Z</time>
      </trkpt>
      <trkpt lat="43.9537" lon="5.38283">
        <ele>524.3</ele>
        <time>2016-05-29T09:52:46Z</time>
      </trkpt>
      <trkpt lat="43.95355" lon="5.38282">
        <ele>522.3</ele>
        <time>2016-05-29T09:52:48Z</time>
      </trkpt>
      <trkpt lat="43.95339" lon="5.38284">
        <ele>521.3</ele>
        <time>2016-05-29T09:52:50Z</time>
      </trkpt>
      <trkpt lat="43.95331" lon="5.38284">
        <ele>519.7</ele>
        <time>2016-05-29T09:52:51Z</time>
      </trkpt>
      <trkpt lat="43.95319" lon="5.3828">
        <ele>519</ele>
        <time>2016-05-29T09:52:53Z</time>
      </trkpt>
      <trkpt lat="43.95312" lon="5.38282">
        <ele>519</ele>
        <time>2016-05-29T09:52:54Z</time>
      </trkpt>
      <trkpt lat="43.95299" lon="5.38282">
        <ele>517.3</ele>
        <time>2016-05-29T09:52:56Z</time>
      </trkpt>
      <trkpt lat="43.95288" lon="5.38288">
        <ele>515.7</ele>
        <time>2016-05-29T09:52:58Z</time>
      </trkpt>
      <trkpt lat="43.95275" lon="5.383">
        <ele>515</ele>
        <time>2016-05-29T09:53:00Z</time>
      </trkpt>
      <trkpt lat="43.95263" lon="5.3831">
        <ele>513</ele>
        <time>2016-05-29T09:53:02Z</time>
      </trkpt>
      <trkpt lat="43.95257" lon="5.38317">
        <ele>512.4</ele>
        <time>2016-05-29T09:53:03Z</time>
      </trkpt>
      <trkpt lat="43.95253" lon="5.38324">
        <ele>512</ele>
        <time>2016-05-29T09:53:04Z</time>
      </trkpt>
      <trkpt lat="43.95243" lon="5.38336">
        <ele>510.3</ele>
        <time>2016-05-29T09:53:06Z</time>
      </trkpt>
      <trkpt lat="43.9523" lon="5.3834">
        <ele>508.3</ele>
        <time>2016-05-29T09:53:08Z</time>
      </trkpt>
      <trkpt lat="43.95223" lon="5.38344">
        <ele>507.4</ele>
        <time>2016-05-29T09:53:09Z</time>
      </trkpt>
      <trkpt lat="43.95215" lon="5.38349">
        <ele>506.3</ele>
        <time>2016-05-29T09:53:10Z</time>
      </trkpt>
      <trkpt lat="43.95207" lon="5.38351">
        <ele>506</ele>
        <time>2016-05-29T09:53:11Z</time>
      </trkpt>
      <trkpt lat="43.95192" lon="5.38364">
        <ele>505.4</ele>
        <time>2016-05-29T09:53:13Z</time>
      </trkpt>
      <trkpt lat="43.95185" lon="5.38372">
        <ele>503.7</ele>
        <time>2016-05-29T09:53:14Z</time>
      </trkpt>
      <trkpt lat="43.95178" lon="5.3838">
        <ele>501.7</ele>
        <time>2016-05-29T09:53:15Z</time>
      </trkpt>
      <trkpt lat="43.9517" lon="5.38388">
        <ele>500.3</ele>
        <time>2016-05-29T09:53:16Z</time>
      </trkpt>
      <trkpt lat="43.9516" lon="5.38395">
        <ele>500</ele>
        <time>2016-05-29T09:53:17Z</time>
      </trkpt>
      <trkpt lat="43.95151" lon="5.384">
        <ele>499.3</ele>
        <time>2016-05-29T09:53:18Z</time>
      </trkpt>
      <trkpt lat="43.95142" lon="5.38407">
        <ele>497.7</ele>
        <time>2016-05-29T09:53:19Z</time>
      </trkpt>
      <trkpt lat="43.95133" lon="5.38413">
        <ele>495.7</ele>
        <time>2016-05-29T09:53:20Z</time>
      </trkpt>
      <trkpt lat="43.95119" lon="5.38411">
        <ele>493.3</ele>
        <time>2016-05-29T09:53:22Z</time>
      </trkpt>
      <trkpt lat="43.95108" lon="5.38411">
        <ele>492</ele>
        <time>2016-05-29T09:53:24Z</time>
      </trkpt>
      <trkpt lat="43.95099" lon="5.38417">
        <ele>489.3</ele>
        <time>2016-05-29T09:53:26Z</time>
      </trkpt>
      <trkpt lat="43.95091" lon="5.38432">
        <ele>487.3</ele>
        <time>2016-05-29T09:53:28Z</time>
      </trkpt>
      <trkpt lat="43.95086" lon="5.3844">
        <ele>486.4</ele>
        <time>2016-05-29T09:53:29Z</time>
      </trkpt>
      <trkpt lat="43.95074" lon="5.38449">
        <ele>484.4</ele>
        <time>2016-05-29T09:53:31Z</time>
      </trkpt>
      <trkpt lat="43.95064" lon="5.38458">
        <ele>482</ele>
        <time>2016-05-29T09:53:33Z</time>
      </trkpt>
      <trkpt lat="43.95053" lon="5.38471">
        <ele>481.4</ele>
        <time>2016-05-29T09:53:35Z</time>
      </trkpt>
      <trkpt lat="43.9504" lon="5.38477">
        <ele>479.4</ele>
        <time>2016-05-29T09:53:37Z</time>
      </trkpt>
      <trkpt lat="43.95026" lon="5.38475">
        <ele>477.4</ele>
        <time>2016-05-29T09:53:39Z</time>
      </trkpt>
      <trkpt lat="43.95012" lon="5.38459">
        <ele>475.4</ele>
        <time>2016-05-29T09:53:41Z</time>
      </trkpt>
      <trkpt lat="43.95003" lon="5.38451">
        <ele>475</ele>
        <time>2016-05-29T09:53:42Z</time>
      </trkpt>
      <trkpt lat="43.94994" lon="5.38444">
        <ele>473.7</ele>
        <time>2016-05-29T09:53:43Z</time>
      </trkpt>
      <trkpt lat="43.94985" lon="5.38438">
        <ele>473</ele>
        <time>2016-05-29T09:53:44Z</time>
      </trkpt>
      <trkpt lat="43.94969" lon="5.38429">
        <ele>470.3</ele>
        <time>2016-05-29T09:53:46Z</time>
      </trkpt>
      <trkpt lat="43.94959" lon="5.38429">
        <ele>470</ele>
        <time>2016-05-29T09:53:47Z</time>
      </trkpt>
      <trkpt lat="43.9495" lon="5.38428">
        <ele>470</ele>
        <time>2016-05-29T09:53:48Z</time>
      </trkpt>
      <trkpt lat="43.94931" lon="5.38428">
        <ele>467.3</ele>
        <time>2016-05-29T09:53:50Z</time>
      </trkpt>
      <trkpt lat="43.94921" lon="5.38432">
        <ele>466.4</ele>
        <time>2016-05-29T09:53:51Z</time>
      </trkpt>
      <trkpt lat="43.9491" lon="5.38437">
        <ele>465.3</ele>
        <time>2016-05-29T09:53:52Z</time>
      </trkpt>
      <trkpt lat="43.949" lon="5.38439">
        <ele>464.4</ele>
        <time>2016-05-29T09:53:53Z</time>
      </trkpt>
      <trkpt lat="43.94891" lon="5.38439">
        <ele>463.3</ele>
        <time>2016-05-29T09:53:54Z</time>
      </trkpt>
      <trkpt lat="43.94881" lon="5.38437">
        <ele>463</ele>
        <time>2016-05-29T09:53:55Z</time>
      </trkpt>
      <trkpt lat="43.94872" lon="5.38435">
        <ele>463</ele>
        <time>2016-05-29T09:53:56Z</time>
      </trkpt>
      <trkpt lat="43.94864" lon="5.38427">
        <ele>463</ele>
        <time>2016-05-29T09:53:57Z</time>
      </trkpt>
      <trkpt lat="43.94857" lon="5.38419">
        <ele>463</ele>
        <time>2016-05-29T09:53:58Z</time>
      </trkpt>
      <trkpt lat="43.94849" lon="5.38412">
        <ele>463</ele>
        <time>2016-05-29T09:53:59Z</time>
      </trkpt>
      <trkpt lat="43.94842" lon="5.38406">
        <ele>463</ele>
        <time>2016-05-29T09:54:00Z</time>
      </trkpt>
      <trkpt lat="43.94834" lon="5.38401">
        <ele>463.6</ele>
        <time>2016-05-29T09:54:01Z</time>
      </trkpt>
      <trkpt lat="43.94828" lon="5.38396">
        <ele>464</ele>
        <time>2016-05-29T09:54:02Z</time>
      </trkpt>
      <trkpt lat="43.94821" lon="5.38392">
        <ele>464</ele>
        <time>2016-05-29T09:54:03Z</time>
      </trkpt>
      <trkpt lat="43.94813" lon="5.38388">
        <ele>464</ele>
        <time>2016-05-29T09:54:04Z</time>
      </trkpt>
      <trkpt lat="43.94806" lon="5.38384">
        <ele>464</ele>
        <time>2016-05-29T09:54:05Z</time>
      </trkpt>
      <trkpt lat="43.94799" lon="5.38381">
        <ele>464</ele>
        <time>2016-05-29T09:54:06Z</time>
      </trkpt>
      <trkpt lat="43.94792" lon="5.38378">
        <ele>464</ele>
        <time>2016-05-29T09:54:07Z</time>
      </trkpt>
      <trkpt lat="43.94786" lon="5.38375">
        <ele>464</ele>
        <time>2016-05-29T09:54:08Z</time>
      </trkpt>
      <trkpt lat="43.94779" lon="5.38371">
        <ele>464</ele>
        <time>2016-05-29T09:54:09Z</time>
      </trkpt>
      <trkpt lat="43.94772" lon="5.38367">
        <ele>464</ele>
        <time>2016-05-29T09:54:10Z</time>
      </trkpt>
      <trkpt lat="43.94766" lon="5.38363">
        <ele>465.3</ele>
        <time>2016-05-29T09:54:11Z</time>
      </trkpt>
      <trkpt lat="43.94759" lon="5.3836">
        <ele>466</ele>
        <time>2016-05-29T09:54:12Z</time>
      </trkpt>
      <trkpt lat="43.94753" lon="5.38356">
        <ele>466</ele>
        <time>2016-05-29T09:54:13Z</time>
      </trkpt>
      <trkpt lat="43.94746" lon="5.38352">
        <ele>466</ele>
        <time>2016-05-29T09:54:14Z</time>
      </trkpt>
      <trkpt lat="43.94739" lon="5.38349">
        <ele>466</ele>
        <time>2016-05-29T09:54:15Z</time>
      </trkpt>
      <trkpt lat="43.94733" lon="5.38345">
        <ele>466</ele>
        <time>2016-05-29T09:54:16Z</time>
      </trkpt>
      <trkpt lat="43.94727" lon="5.38342">
        <ele>466</ele>
        <time>2016-05-29T09:54:17Z</time>
      </trkpt>
      <trkpt lat="43.94721" lon="5.38336">
        <ele>466</ele>
        <time>2016-05-29T09:54:18Z</time>
      </trkpt>
      <trkpt lat="43.94712" lon="5.38323">
        <ele>466</ele>
        <time>2016-05-29T09:54:20Z</time>
      </trkpt>
      <trkpt lat="43.94707" lon="5.38318">
        <ele>466.6</ele>
        <time>2016-05-29T09:54:21Z</time>
      </trkpt>
      <trkpt lat="43.94694" lon="5.38319">
        <ele>467</ele>
        <time>2016-05-29T09:54:23Z</time>
      </trkpt>
      <trkpt lat="43.94682" lon="5.38318">
        <ele>467</ele>
        <time>2016-05-29T09:54:25Z</time>
      </trkpt>
      <trkpt lat="43.94673" lon="5.38323">
        <ele>467</ele>
        <time>2016-05-29T09:54:27Z</time>
      </trkpt>
      <trkpt lat="43.94664" lon="5.38316">
        <ele>467</ele>
        <time>2016-05-29T09:54:30Z</time>
      </trkpt>
      <trkpt lat="43.9466" lon="5.38305">
        <ele>463</ele>
        <time>2016-05-29T09:54:32Z</time>
      </trkpt>
      <trkpt lat="43.94649" lon="5.383">
        <ele>463</ele>
        <time>2016-05-29T09:54:35Z</time>
      </trkpt>
      <trkpt lat="43.9464" lon="5.38293">
        <ele>460</ele>
        <time>2016-05-29T09:54:37Z</time>
      </trkpt>
      <trkpt lat="43.94632" lon="5.38284">
        <ele>460</ele>
        <time>2016-05-29T09:54:40Z</time>
      </trkpt>
      <trkpt lat="43.94618" lon="5.3828">
        <ele>457</ele>
        <time>2016-05-29T09:54:42Z</time>
      </trkpt>
      <trkpt lat="43.94603" lon="5.38275">
        <ele>454.7</ele>
        <time>2016-05-29T09:54:44Z</time>
      </trkpt>
      <trkpt lat="43.94595" lon="5.38271">
        <ele>453.4</ele>
        <time>2016-05-29T09:54:45Z</time>
      </trkpt>
      <trkpt lat="43.94588" lon="5.38265">
        <ele>453</ele>
        <time>2016-05-29T09:54:46Z</time>
      </trkpt>
      <trkpt lat="43.94581" lon="5.38256">
        <ele>452.4</ele>
        <time>2016-05-29T09:54:47Z</time>
      </trkpt>
      <trkpt lat="43.94575" lon="5.38247">
        <ele>451.3</ele>
        <time>2016-05-29T09:54:48Z</time>
      </trkpt>
      <trkpt lat="43.94568" lon="5.3824">
        <ele>451</ele>
        <time>2016-05-29T09:54:49Z</time>
      </trkpt>
      <trkpt lat="43.94554" lon="5.38235">
        <ele>449.4</ele>
        <time>2016-05-29T09:54:51Z</time>
      </trkpt>
      <trkpt lat="43.94542" lon="5.38229">
        <ele>448.4</ele>
        <time>2016-05-29T09:54:53Z</time>
      </trkpt>
      <trkpt lat="43.94528" lon="5.38223">
        <ele>445.3</ele>
        <time>2016-05-29T09:54:56Z</time>
      </trkpt>
      <trkpt lat="43.94518" lon="5.38217">
        <ele>445</ele>
        <time>2016-05-29T09:54:58Z</time>
      </trkpt>
      <trkpt lat="43.94517" lon="5.38198">
        <ele>444.4</ele>
        <time>2016-05-29T09:55:01Z</time>
      </trkpt>
      <trkpt lat="43.94518" lon="5.38182">
        <ele>444.6</ele>
        <time>2016-05-29T09:55:03Z</time>
      </trkpt>
      <trkpt lat="43.94514" lon="5.38168">
        <ele>444.4</ele>
        <time>2016-05-29T09:55:05Z</time>
      </trkpt>
      <trkpt lat="43.94506" lon="5.38152">
        <ele>443</ele>
        <time>2016-05-29T09:55:07Z</time>
      </trkpt>
      <trkpt lat="43.94497" lon="5.38135">
        <ele>440.4</ele>
        <time>2016-05-29T09:55:09Z</time>
      </trkpt>
      <trkpt lat="43.94492" lon="5.3812">
        <ele>439</ele>
        <time>2016-05-29T09:55:11Z</time>
      </trkpt>
      <trkpt lat="43.94486" lon="5.38105">
        <ele>435.7</ele>
        <time>2016-05-29T09:55:13Z</time>
      </trkpt>
      <trkpt lat="43.94474" lon="5.38102">
        <ele>434.4</ele>
        <time>2016-05-29T09:55:15Z</time>
      </trkpt>
      <trkpt lat="43.94458" lon="5.38101">
        <ele>433</ele>
        <time>2016-05-29T09:55:17Z</time>
      </trkpt>
      <trkpt lat="43.94442" lon="5.38102">
        <ele>430.7</ele>
        <time>2016-05-29T09:55:19Z</time>
      </trkpt>
      <trkpt lat="43.94424" lon="5.38104">
        <ele>429</ele>
        <time>2016-05-29T09:55:21Z</time>
      </trkpt>
      <trkpt lat="43.94406" lon="5.38109">
        <ele>427.4</ele>
        <time>2016-05-29T09:55:23Z</time>
      </trkpt>
      <trkpt lat="43.94388" lon="5.38112">
        <ele>425.4</ele>
        <time>2016-05-29T09:55:25Z</time>
      </trkpt>
      <trkpt lat="43.94371" lon="5.38113">
        <ele>423.4</ele>
        <time>2016-05-29T09:55:27Z</time>
      </trkpt>
      <trkpt lat="43.94355" lon="5.38113">
        <ele>419.7</ele>
        <time>2016-05-29T09:55:29Z</time>
      </trkpt>
      <trkpt lat="43.94346" lon="5.38114">
        <ele>418.3</ele>
        <time>2016-05-29T09:55:30Z</time>
      </trkpt>
      <trkpt lat="43.9433" lon="5.38121">
        <ele>415.3</ele>
        <time>2016-05-29T09:55:32Z</time>
      </trkpt>
      <trkpt lat="43.94322" lon="5.38124">
        <ele>414.4</ele>
        <time>2016-05-29T09:55:33Z</time>
      </trkpt>
      <trkpt lat="43.94308" lon="5.3812">
        <ele>413.4</ele>
        <time>2016-05-29T09:55:35Z</time>
      </trkpt>
      <trkpt lat="43.94306" lon="5.38103">
        <ele>410</ele>
        <time>2016-05-29T09:55:37Z</time>
      </trkpt>
      <trkpt lat="43.94302" lon="5.38085">
        <ele>408</ele>
        <time>2016-05-29T09:55:39Z</time>
      </trkpt>
      <trkpt lat="43.94297" lon="5.38074">
        <ele>406.4</ele>
        <time>2016-05-29T09:55:41Z</time>
      </trkpt>
      <trkpt lat="43.94294" lon="5.38082">
        <ele>405</ele>
        <time>2016-05-29T09:55:47Z</time>
      </trkpt>
      <trkpt lat="43.94296" lon="5.3809">
        <ele>406</ele>
        <time>2016-05-29T09:55:52Z</time>
      </trkpt>
      <trkpt lat="43.943" lon="5.38098">
        <ele>406</ele>
        <time>2016-05-29T09:55:58Z</time>
      </trkpt>
    </trkseg>
  </trk>
</gpx>